     2              OBSERVATION DATA    GPS                 RINEX VERSION / TYPE
TRRINEXO-V2.3.4-LH UCLA/SCEC 29-JUL-1994                    PGM / RUN BY / DATE
                                                            COMMENT
BIT 2 OF LLI (+4) FLAGS DATA COLLECTED UNDER "AS" CONDITION COMMENT
BIT 2 OF LLI (+4) FLAGS DATA COLLECTED UNDER "AS" CONDITION COMMENT
BIT 2 OF LLI (+4) FLAGS DATA COLLECTED UNDER "AS" CONDITION COMMENT
Original Marker Name: HPGN CALIF STA 0505 1990              COMMENT
Campaign Name: NGS reobservation 93-94                      COMMENT
4-Character Station Name: 0505                              COMMENT
6-Character Antenna Code: TRMSST                            COMMENT
Vertical Measurement Point: BPA                             COMMENT
Vertical Offset to Rinex Ref. Point: 0.0000                 COMMENT
Radial Measurement Point: RRP                               COMMENT
Radial Offset to Rinex Ref. Point: 0.0000                   COMMENT
Antenna Height from Field Measurement: 2.2200 m             COMMENT
Original XYZ: -2658495.9268 -4498262.6716 3645569.5828      COMMENT
New XYZ position is based on association with SCEC monument COMMENT
E1E9Q4N0+0011. Position of that monument is believed to be  COMMENT
valid to within 1 m horizontally; vertical accuracy         COMMENT
should be no worse than 3-times this value.                 COMMENT
                                                            COMMENT
Revised Rinex header created by UCSD GPS archive for        COMMENT
GSAC on 19-Apr-1999 (1999:109) 06:55:18 GMT                 COMMENT
For assistance contact dagnew@ucsd.edu or hjohnson@ucsd.edu COMMENT
                                                            COMMENT
HPGN CALIF STA 0505 1990                                    MARKER NAME
D. AUG NATIONAL GEODETIC SURVEY                             OBSERVER / AGENCY
1531 TRIMBLE 4000 SSE 5.66                                  REC # / TYPE / VERS
16 TR 4000SST L1/L2 GEO                                     ANT # / TYPE
 -2658546.0000 -4498184.0000  3645536.0000                  APPROX POSITION XYZ
        2.2200        0.0000        0.0000                  ANTENNA: DELTA H/E/N
     1     1     0                                          WAVELENGTH FACT L1/2
     4    C1    L1    L2    P2                              # / TYPES OF OBSERV
    30                                                      INTERVAL
  1994     3    17    18    47   30.000000                  TIME OF FIRST OBS
  1994     3    18     2    52    0.000000                  TIME OF LAST OBS
     0                                                      # OF SATELLITES
                                                            END OF HEADER
 94  3 17 18 47 30.0000000  0  6 29 31 18 27 19 28
  21241505.406       24157.18217
  23462293.406     -187590.51415    -35870.79519  23462299.441
  20306577.508      -85731.47818    -44836.98619  20306579.828
  22835678.789     -142822.00716    -12570.71319  22835682.844
  21144169.625     -170349.78817    -91094.32619  21144172.965
  23747396.961      -76098.51216    -16654.92619  23747400.910
 94  3 17 18 48  0.0000000  0  6 29 31 18 27 19 28
  21247580.148       56080.918 7      9992.03519  21247582.551
  23445914.453     -273661.288 5   -102938.819 9  23445919.691
  20302685.055     -106187.793 8    -60776.962 9  20302687.316
  22820351.461     -223366.239 6    -75332.397 9  22820355.691
  21136126.344     -212619.603 7   -124031.832 9  21136129.566
  23739338.023     -118446.189 6    -49652.883 2  23739340.707
 94  3 17 18 48 30.0000000  0  6 29 31 18 27 19 28
  21253741.391       88461.309 7     35223.467 9  21253744.004
  23429599.063     -359401.532 6   -169749.325 9  23429603.281
  20298883.711     -126162.036 8    -76341.305 9  20298886.078
  22805065.188     -303698.425 6   -137928.865 9  22805069.230
  21128131.305     -254633.117 7   -156769.611 9  21128134.375
  23731385.523     -160240.661 6    -82220.191 9  23731389.367
 94  3 17 18 49  0.0000000  0  6 29 31 18 27 19 28
  21259992.039      121305.419 7     60816.246 9  21259994.852
  23413350.109     -444786.259 6   -236282.751 9  23413355.219
  20295181.883     -145615.933 8    -91500.180 9  20295184.063
  22789822.969     -383797.207 6   -200343.457 9  22789827.141
  21120191.648     -296356.496 7   -189281.316 9  21120194.836
  23723542.539     -201453.746 6   -114334.235 9  23723546.863
 94  3 17 18 49 30.0000000  0  6 29 31 18 27 19 28
  21266330.695      154616.223 7     86772.678 9  21266333.555
  23397168.609     -529824.185 6   -302545.987 9  23397174.387
  20291582.742     -164530.595 8   -106238.878 9  20291584.840
  22774625.914     -463658.269 6   -262572.817 9  22774629.629
  21112310.953     -337772.919 8   -221553.841 9  21112313.836
  23715808.672     -242096.967 6   -146004.245 9  23715812.434
 94  3 17 18 50  0.0000000  0  6 29 31 18 27 19 28
  21272756.313      188382.678 7    113084.162 9  21272758.996
  23381053.938     -614506.287 6   -368531.926 9  23381058.766
  20288089.195     -182889.096 8   -120544.203 9  20288091.398
  22759476.227     -543269.494 6   -324607.510 9  22759480.480
  21104491.266     -378863.505 8   -253572.463 9  21104494.137
  23708183.414     -282162.519 6   -177224.120 9  23708187.598
 94  3 17 18 50 30.0000000  0  6 29 31 18 27 19 28
  21279268.281      222604.193 7    139750.234 9  21279271.094
  23365008.266     -698826.234 6   -434235.675 9  23365013.164
  20284698.898     -200705.422 8   -134427.056 9  20284701.219
  22744372.391     -622641.529 6   -386455.819 9  22744376.586
  21096733.648     -419628.835 8   -285337.640 9  21096736.789
  23700668.570     -321656.128 6   -207998.332 9  23700672.473
 94  3 17 18 51  0.0000000  0  6 29 31 18 27 19 28
  21285869.438      257293.662 7    166780.949 9  21285872.414
  23349033.391     -782774.095 6   -499649.510 9  23349038.066
  20281408.242     -217997.366 8   -147901.299 9  20281410.633
  22729316.578     -701759.681 6   -448106.278 9  22729320.527
  21089042.664     -460047.309 8   -316832.542 9  21089045.605
  23693261.453     -360580.627 6   -238329.074 9  23693265.508
 94  3 17 18 51 30.0000000  0  6 29 31 18 27 19 28
  21292559.000      292446.400 7    194172.653 9  21292561.801
  23333128.867     -866353.015 6   -564775.853 9  23333133.695
  20278212.266     -234793.755 8   -160989.398 9  20278214.563
  22714304.805     -780645.475 6   -509575.689 9  22714308.730
  21081412.148     -500145.151 8   -348077.600 9  21081414.914
  23685959.891     -398950.658 6   -268227.763 9  23685963.488
 94  3 17 18 52  0.0000000  0  6 29 31 18 27 19 28
  21299338.242      328069.626 7    221930.966 9  21299340.762
  23317296.258     -949552.661 5   -629606.651 9  23317301.813
  20275111.648     -251086.333 8   -173684.909 9  20275113.934
  22699337.531     -859302.961 6   -570867.188 9  22699341.340
  21073843.438     -539918.234 8   -379069.603 9  21073846.285
  23678769.266     -436743.246 6   -297676.492 9  23678773.203
 94  3 17 18 52 30.0000000  0  6 29 31 18 27 19 28
  21306209.438      364179.653 7    250068.604 9  21306212.074
  23301534.547    -1032378.677 5   -694146.288 9  23301540.734
  20272107.758     -266873.822 8   -185986.843 9  20272109.984
  22684411.000     -937742.501 6   -631988.870 9  22684414.961
  21066335.727     -579373.056 8   -409813.609 9  21066338.563
  23671685.617     -473962.699 6   -326678.629 9  23671688.992
 94  3 17 18 53  0.0000000  0  6 29 31 18 27 19 28
  21313168.430      400748.518 7    278563.771 9  21313171.395
  23285839.031    -1114862.818 6   -758419.544 9  23285844.645
  20269194.359     -282182.415 8   -197915.611 9  20269196.457
  22669519.438    -1015993.817 6   -692963.891 9  22669523.281
  21058881.125     -618545.530 7   -440337.601 9  21058884.184
  23664707.375     -510633.279 6   -355253.074 9  23664711.441
 94  3 17 18 53 30.0000000  0  6 29 31 18 27 19 28
  21320213.227      437768.491 7    307410.449 9  21320216.016
  23270205.852    -1197012.928 6   -822432.539 9  23270211.113
  20266374.320     -296999.739 8   -209461.573 9  20266376.582
  22654662.258    -1094070.053 6   -753802.479 9  22654666.301
  21051479.898     -657440.030 8   -470644.998 9  21051482.852
  23657833.500     -546761.942 6   -383405.252 9  23657836.840
 94  3 17 18 54  0.0000000  0  6 29 31 18 27 19 28
  21327346.164      475252.367 7    336618.619 9  21327348.707
  23254639.906    -1278813.421 6   -886173.096 9  23254645.062
  20263654.352     -311296.162 8   -220601.643 9  20263656.566
  22639842.750    -1171945.053 6   -814484.265 9  22639846.992
  21044136.633     -696028.771 8   -500714.138 9  21044139.492
  23651063.180     -582335.944 6   -411125.212 9  23651066.789
 94  3 17 18 54 30.0000000  0  6 29 31 18 27 19 28
  21334566.141      513190.729 7    366180.928 9  21334568.402
  23239144.391    -1360243.260 6   -949624.803 9  23239149.805
  20261032.289     -325075.349 8   -231338.680 9  20261034.469
  22625063.469    -1249610.652 6   -875002.876 9  22625067.641
  21036851.305     -734313.833 8   -530546.649 9  21036854.117
  23644397.680     -617363.446 6   -438419.332 9  23644401.512
 94  3 17 18 55  0.0000000  0  6 29 31 18 27 19 28
  21341864.406      551544.890 7    396067.238 9  21341866.398
  23223719.867    -1441301.928 6  -1012787.301 9  23223724.555
  20258505.391     -338355.269 8   -241686.676 9  20258507.664
  22610322.531    -1327078.218 6   -935367.179 9  22610326.609
  21029618.813     -772320.395 8   -560162.153 9  21029621.742
  23637832.961     -651859.559 6   -465299.391 9  23637837.004
 94  3 17 18 55 30.0000000  0  6 29 31 18 27 19 28
  21349241.750      590311.067 7    426274.603 9  21349244.012
  23208367.289    -1521976.390 6  -1075650.408 9  23208372.563
  20256074.164     -351130.461 8   -251641.385 9  20256076.496
  22595617.344    -1404351.982 6   -995580.470 9  22595621.363
  21022438.672     -810052.506 8   -589563.791 9  21022441.391
  23631368.359     -685833.175 6   -491772.331 9  23631372.180
 94  3 17 18 56  0.0000000  0  6 29 31 18 27 19 28
  21356699.656      629503.554 7    456814.141 9  21356702.035
  23193090.391    -1602256.786 6  -1138206.475 9  23193094.750
  20253739.805     -363397.561 8   -261200.174 9  20253741.984
  22580953.141    -1481414.927 6  -1055629.492 9  22580956.668
  21015309.594     -847516.763 8   -618756.716 9  21015312.418
  23625005.141     -719269.794 6   -517826.810 9  23625008.598
 94  3 17 18 56 30.0000000  0  6 29 31 18 27 19 28
  21364241.891      669139.174 7    487698.991 9  21364244.563
  23177888.469    -1682142.891 6  -1200455.308 9  23177893.543
  20251501.117     -375163.811 8   -270368.695 9  20251502.992
  22566331.664    -1558250.665 6  -1115501.467 9  22566335.391
  21008231.266     -884714.804 8   -647742.202 9  21008234.043
  23618748.688     -752150.029 6   -543447.751 9  23618752.332
 94  3 17 18 57  0.0000000  0  6 29 31 18 27 19 28
  21371877.727      709263.369 7    518964.534 9  21371880.305
  23162761.430    -1761635.920 6  -1262397.860 9  23162766.762
  20249360.695     -386410.869 8   -279132.642 9  20249362.758
  22551759.297    -1634827.685 6  -1175171.850 9  22551762.813
  21001209.406     -921613.339 8   -676494.300 9  21001212.207
  23612603.266     -784441.006 6   -568609.520 9  23612606.816
 94  3 17 18 57 30.0000000  0  6 29 31 18 27 19 28
  21379602.180      749857.111 7    550595.979 9  21379604.664
  23147699.227    -1840790.878 6  -1324076.960 9  23147703.809
  20247314.695     -397162.781 8   -287510.768 9  20247316.980
  22537232.008    -1711169.384 6  -1234658.858 9  22537235.652
  20994240.039     -958238.815 8   -705033.628 9  20994243.074
  23606566.070     -816170.506 6   -593333.789 9  23606569.844
 94  3 17 18 58  0.0000000  0  6 29 31 18 27 19 28
  21387420.617      790941.640 7    582609.837 9  21387423.207
  23132704.656    -1919586.225 6  -1385475.853 9  23132709.508
  20245367.500     -407394.486 8   -295483.543 9  20245369.703
  22522755.875    -1787242.576 6  -1293936.643 9  22522759.484
  20987331.547     -994539.988 8   -733320.252 9  20987334.594
  23600642.570     -847298.274 6   -617589.186 9  23600646.379
 94  3 17 18 58 30.0000000  0  6 29 31 18 27 19 28
  21395329.391      832502.814 7    614995.135 9  21395331.617
  23117780.563    -1998011.114 6  -1446586.088 9  23117784.793
  20243519.211     -417106.365 8   -303051.249 9  20243521.402
  22508326.641    -1863071.138 6  -1353023.806 9  22508330.109
  20980487.945    -1030506.822 8   -761346.354 9  20980491.109
  23594833.820     -877824.048 6   -641375.496 9  23594837.617
 94  3 17 18 59  0.0000000  0  6 29 31 18 27 19 28
  21403320.906      874497.165 7    647717.963 9  21403323.133
  23102922.789    -2076087.989 6  -1507425.156 9  23102927.430
  20241766.578     -426316.287 8   -310227.814 9  20241769.016
  22493932.023    -1938711.097 6  -1411964.008 9  22493935.750
  20973700.188    -1066176.578 8   -789140.966 9  20973703.188
  23589129.992     -907796.074 6   -664730.316 9  23589133.672
 94  3 17 18 59 30.0000000  0  6 29 31 18 27 19 28
  21411393.156      916917.007 7    680772.338 9  21411395.547
  23088136.945    -2153790.263 6  -1567972.315 9  23088141.809
  20240110.055     -435021.815 8   -317011.348 9  20240112.434
  22479571.328    -2014176.240 6  -1470767.983 9  22479575.289
  20966968.609    -1101550.510 8   -816705.072 9  20966971.492
  23583530.867     -937221.522 6   -687659.217 9  23583534.324
 94  3 17 19  0  0.0000000  0  6 29 31 18 27 19 28
  21419546.555      959765.264 7    714160.547 9  21419549.098
  23073425.961    -2231096.615 6  -1628210.961 9  23073430.766
  20238547.969     -443232.055 8   -323408.944 9  20238550.137
  22465242.453    -2089475.139 6  -1529442.426 9  22465246.309
  20960294.266    -1136624.618 8   -844035.539 9  20960297.242
  23578037.297     -966088.600 6   -710153.029 9  23578041.211
 94  3 17 19  0 30.0000000  0  6 29 31 18 27 19 28
  21427783.703     1003051.858 7    747890.305 9  21427786.598
  23058794.602    -2307988.843 6  -1688126.919 9  23058798.586
  20237080.281     -450945.114 8   -329419.127 9  20237082.203
  22450948.414    -2164593.458 6  -1587976.146 9  22450952.621
  20953672.297    -1171423.035 8   -871151.189 9  20953675.203
  23572649.742     -994399.835 6   -732213.713 9  23572653.328
 94  3 17 19  1  0.0000000  0  6 29 31 18 27 19 28
  21436104.359     1046774.386 7    781959.753 9  21436106.996
  23044240.969    -2384463.906 6  -1747717.811 9  23044245.621
  20235707.797     -458157.680 8   -335039.313 9  20235710.012
  22436691.289    -2239516.487 6  -1646357.692 9  22436695.109
  20947100.531    -1205959.023 8   -898062.342 9  20947103.250
  23567368.359    -1022159.031 6   -753844.241 9  23567372.027
 94  3 17 19  1 30.0000000  0  6 29 31 18 27 19 28
  21444505.500     1090922.456 7    816360.809 9  21444507.914
  23029768.859    -2460518.137 6  -1806980.787 9  23029773.582
  20234429.469     -464875.200 8   -340273.750 9  20234431.883
  22422472.047    -2314240.206 6  -1704583.931 9  22422475.586
  20940577.633    -1240235.355 8   -924771.169 9  20940580.410
  23562191.813    -1049358.744 6   -775038.799 9  23562195.375
 94  3 17 19  2  0.0000000  0  6 29 31 18 27 19 28
  21452988.148     1135499.194 7    851095.874 9  21452990.609
  23015378.977    -2536136.786 6  -1865904.345 9  23015382.914
  20233250.945     -471069.023 8   -345100.116 9  20233253.336
  22408293.656    -2388744.507 6  -1762639.204 9  22408297.078
  20934105.719    -1274246.517 8   -951273.365 9  20934108.566
  23557123.648    -1075989.247 6   -795789.823 9  23557126.883
 94  3 17 19  2 30.0000000  0  6 29 31 18 27 19 28
  21461556.664     1180527.705 7    886182.971 9  21461559.418
  23001074.172    -2611306.386 6  -1924477.966 9  23001078.637
  20232176.750     -476712.626 8   -349497.732 9  20232179.012
  22394160.500    -2463011.922 6  -1820509.890 9  22394164.391
  20927684.695    -1307988.902 8   -977566.123 9  20927687.531
  23552166.422    -1102042.773 6   -816091.252 9  23552170.125
 94  3 17 19  3  0.0000000  0  6 29 31 18 27 19 28
  21470206.844     1225984.156 7    921603.537 9  21470209.516
  22986847.547    -2686066.339 6  -1982732.406 9  22986852.363
  20231205.406     -481818.561 8   -353476.402 9  20231207.633
  22380067.188    -2537074.636 6  -1878221.060 9  22380071.172
  20921312.727    -1341473.855 8  -1003658.286 9  20921315.562
  23547317.664    -1127522.257 6   -835945.391 9  23547321.156
 94  3 17 19  3 30.0000000  0  6 29 31 18 27 19 28
  21478939.273     1271872.653 7    957360.736 9  21478941.828
  22972698.555    -2760421.005 6  -2040671.027 9  22972702.996
  20230333.914     -486397.840 8   -357044.675 9  20230336.164
  22366012.969    -2610930.549 6  -1935771.082 9  22366016.801
  20914990.594    -1374697.357 8  -1029546.723 9  20914993.676
  23542579.703    -1152419.887 6   -855346.132 9  23542583.664
 94  3 17 19  4  0.0000000  0  6 29 31 18 27 19 28
  21487748.625     1318166.618 7    993433.905 9  21487751.133
  22958619.836    -2834406.524 6  -2098321.994 9  22958624.477
  20229556.219     -490483.900 8   -360228.621 9  20229558.422
  22351994.648    -2684598.463 6  -1993174.609 9  22351998.094
  20908711.797    -1407690.234 8  -1055255.450 9  20908714.621
  23537950.086    -1176754.347 6   -874308.040 9  23537953.707
 94  3 17 19  4 30.0000000  0  6 29 31 18 27 19 28
  21496637.031     1364878.506 7   1029832.727 9  21496639.621
  22944613.195    -2908006.093 6  -2155672.255 9  22944619.066
  20228872.695     -494075.672 8   -363027.411 9  20228875.027
  22338014.367    -2758062.607 6  -2050419.356 9  22338017.988
  20902480.430    -1440438.363 8  -1080773.463 9  20902483.266
  23533430.320    -1200500.832 6   -892811.778 9  23533433.719
 94  3 17 19  5  0.0000000  0  6 29 31 18 27 19 28
  21505606.742     1412009.779 7   1066558.332 9  21505609.309
  22930688.023    -2981185.621 6  -2212695.172 9  22930692.898
  20228285.406     -497161.309 8   -365431.820 9  20228287.797
  22324074.875    -2831312.873 6  -2107497.447 9  22324078.742
  20896303.625    -1472897.616 8  -1106066.383 9  20896306.531
  23529024.961    -1223654.854 6   -910853.870 9  23529028.266
 94  3 17 19  5 30.0000000  0  6 29 31 18 27 19 28
  21514659.602     1459584.604 7   1103629.577 9  21514662.215
  22916850.273    -3053900.530 6  -2269356.085 9  22916854.480
  20227798.031     -499724.722 8   -367429.293 9  20227800.199
  22310178.547    -2904341.071 6  -2164402.506 9  22310182.543
  20890186.977    -1505040.871 8  -1131113.067 9  20890189.824
  23524729.258    -1246223.151 6   -928439.529 9  23524732.891
 94  3 17 19  6  0.0000000  0  6 29 31 18 27 19 28
  21523797.250     1507602.373 7   1141045.968 9  21523799.898
  22903101.930    -3126156.049 6  -2325659.009 9  22903106.078
  20227410.055     -501763.335 8   -369017.831 9  20227412.117
  22296318.945    -2977172.853 6  -2221154.502 9  22296322.824
  20884130.023    -1536871.200 8  -1155915.917 9  20884132.766
  23520543.469    -1268222.839 6   -945582.132 9  23520547.102
 94  3 17 19  6 30.0000000  0  6 29 31 18 27 19 28
  21533022.945     1556082.450 7   1178822.597 9  21533025.605
  22889443.359    -3197928.550 6  -2381585.546 9  22889447.730
  20227125.164     -503259.138 8   -370183.397 9  20227127.438
  22282496.953    -3049810.580 6  -2277755.290 9  22282500.504
  20878135.961    -1568371.293 8  -1180461.436 9  20878138.668
  23516465.898    -1289645.818 6   -962275.344 9  23516469.426
 94  3 17 19  7  0.0000000  0  6 29 31 18 27 19 28
  21542333.992     1605013.089 7   1216950.306 9  21542336.922
  22875873.250    -3269238.657 6  -2437151.776 9  22875877.445
  20226942.000     -504223.989 8   -370935.243 9  20226944.273
  22268709.219    -3122266.104 6  -2334214.106 9  22268712.887
  20872200.688    -1599560.087 8  -1204764.382 9  20872203.535
  23512498.984    -1310493.429 6   -978520.221 9  23512502.793
 94  3 17 19  7 30.0000000  0  6 29 31 18 27 19 28
  21551729.984     1654390.462 7   1255426.132 9  21551732.937
  22862387.703    -3340108.099 6  -2492374.624 9  22862391.793
  20226858.531     -504662.005 8   -371276.568 9  20226860.676
  22254957.141    -3194533.757 6  -2390526.531 9  22254960.727
  20866318.313    -1630472.112 8  -1228851.668 9  20866321.348
  23508644.867    -1330746.138 6   -994301.550 9  23508649.086
 94  3 17 19  8  0.0000000  0  6 29 31 18 27 19 28
  21561210.734     1704210.643 7   1294246.992 9  21561213.875
  22848982.656    -3410549.596 6  -2547263.999 9  22848987.227
  20226875.859     -504570.012 8   -371204.896 9  20226878.016
  22241247.195    -3266578.291 6  -2446665.099 9  22241250.746
  20860488.148    -1661110.523 8  -1252725.746 9  20860491.230
  23504910.320    -1350372.550 6  -1009594.846 9  23504914.387
 94  3 17 19  8 30.0000000  0  6 29 31 18 27 19 28
  21570772.547     1754458.047 7   1333400.757 9  21570775.652
  22835660.023    -3480557.969 6  -2601815.880 9  22835664.711
  20226992.422     -503957.258 8   -370727.443 9  20226994.801
  22227583.070    -3338383.813 6  -2502617.427 9  22227586.668
  20854710.039    -1691476.480 8  -1276387.522 9  20854712.758
  23501295.414    -1369368.666 6  -1024396.992 9  23501298.871
 94  3 17 19  9  0.0000000  0  6 29 31 18 27 19 28
  21580417.164     1805142.543 7   1372895.091 9  21580420.117
  22822420.906    -3550132.567 6  -2656029.745 9  22822425.477
  20227208.398     -502822.184 8   -369842.993 9  20227210.754
  22213965.500    -3409942.184 6  -2558377.161 9  22213969.051
  20848984.586    -1721562.560 8  -1299831.212 9  20848987.152
  23497800.969    -1387737.736 6  -1038710.539 9  23497804.473
 94  3 17 19  9 30.0000000  0  6 29 31 18 27 19 28
  21590148.844     1856282.518 7   1412744.342 9  21590151.820
  22809266.547    -3619256.860 6  -2709892.745 9  22809270.918
  20227526.867     -501151.245 8   -368540.982 9  20227529.199
  22200394.766    -3481256.948 6  -2613947.077 9  22200398.211
  20843315.195    -1751354.919 8  -1323046.027 9  20843317.902
  23494421.070    -1405496.212 6  -1052548.293 9  23494424.457
 94  3 17 19 10  0.0000000  0  6 29 31 18 27 19 28
  21599967.141     1907876.520 7   1452947.390 9  21599970.023
  22796199.539    -3687925.233 6  -2763400.480 9  22796203.980
  20227946.156     -498948.378 8   -366824.472 9  20227948.465
  22186867.414    -3552345.493 6  -2669340.709 9  22186870.848
  20837702.133    -1780850.363 8  -1346029.485 9  20837705.051
  23491153.656    -1422665.853 6  -1065927.210 9  23491157.219
 94  3 17 19 10 30.0000000  0  6 29 31 18 27 19 28
  21609873.664     1959933.095 7   1493510.874 9  21609876.406
  22783224.102    -3756109.345 6  -2816530.864 9  22783228.438
  20228470.406     -496192.281 8   -364676.879 9  20228472.574
  22173380.313    -3623221.887 6  -2724569.038 9  22173383.770
  20832147.148    -1810042.970 8  -1368776.965 9  20832150.008
  23487996.414    -1439257.128 6  -1078855.455 9  23487999.883
 94  3 17 19 11  0.0000000  0  6 29 31 18 27 19 28
  21619867.617     2012452.803 7   1534435.234 9  21619870.113
  22770340.859    -3823815.060 6  -2869288.482 9  22770345.230
  20229101.977     -492872.333 8   -362089.923 9  20229104.215
  22159932.445    -3693888.111 6  -2779633.587 9  22159936.289
  20826647.938    -1838941.793 8  -1391295.524 9  20826650.984
  23484948.266    -1455272.227 6  -1091334.728 9  23484952.063
 94  3 17 19 11 30.0000000  0  6 29 31 18 27 19 28
  21629950.094     2065435.104 7   1575720.052 9  21629952.965
  22757550.703    -3891026.160 6  -2921660.697 9  22757554.641
  20229845.805     -488965.024 8   -359045.281 9  20229848.066
  22146529.617    -3764323.804 7  -2834518.511 9  22146533.227
  20821206.961    -1867534.044 8  -1413575.191 9  20821209.867
  23482015.211    -1470689.302 6  -1103348.027 9  23482018.387
 94  3 17 19 12  0.0000000  0  6 29 31 18 27 19 28
  21640113.266     2118843.014 7   1617336.509 9  21640116.160
  22744853.344    -3957752.871 6  -2973655.451 9  22744856.824
  20230696.391     -484494.719 8   -355561.940 9  20230698.699
  22133168.430    -3834536.083 7  -2889229.344 9  22133172.027
  20815820.922    -1895838.344 8  -1435630.469 9  20815823.945
  23479195.375    -1485504.628 6  -1114892.411 9  23479198.656
 94  3 17 19 12 30.0000000  0  6 29 31 18 27 19 28
  21650356.086     2172670.177 7   1659279.674 9  21650358.898
  22732249.398    -4023984.056 6  -3025264.104 9  22732253.887
  20231654.445     -479460.226 8   -351638.978 9  20231656.789
  22119852.289    -3904512.629 7  -2943756.495 9  22119855.688
  20810489.602    -1923853.761 8  -1457460.653 9  20810492.660
  23476492.492    -1499706.452 6  -1125958.756 9  23476496.195
 94  3 17 19 13  0.0000000  0  6 29 31 18 27 19 28
  21660682.109     2226932.212 7   1701561.694 9  21660685.156
  22719738.648    -4089727.593 6  -3076492.763 9  22719742.656
  20232716.375     -473880.101 8   -347290.848 9  20232718.648
  22106581.297    -3974250.055 7  -2998097.321 9  22106584.766
  20805213.672    -1951578.880 8  -1479064.632 9  20805216.344
  23473911.047    -1513278.536 6  -1136534.383 9  23473914.539
 94  3 17 19 13 30.0000000  0  6 29 31 18 27 19 28
  21671089.180     2281621.326 7   1744176.500 9  21671091.969
  22707321.352    -4154981.654 6  -3127340.005 9  22707325.664
  20233876.984     -467780.716 8   -342538.091 9  20233879.270
  22093353.453    -4043764.475 7  -3052264.366 9  22093356.746
  20799989.539    -1979032.159 8  -1500456.784 9  20799992.398
  23471445.578    -1526231.813 6  -1146627.837 9  23471449.328
 94  3 17 19 14  0.0000000  0  6 29 31 18 27 19 28
  21681581.703     2336760.184 7   1787141.749 9  21681584.727
  22695000.000    -4219730.758 6  -3177793.791 9  22695004.066
  20235136.969     -461159.804 8   -337378.951 9  20235139.184
  22080170.828    -4113039.075 7  -3106244.537 9  22080173.957
  20794818.266    -2006206.309 7  -1521631.435 9  20794821.254
  23469099.844    -1538561.345 6  -1156235.245 9  23469103.406
 94  3 17 19 14 30.0000000  0  6 29 31 18 27 19 28
  21692164.648     2392374.042 7   1830477.131 9  21692167.813
  22682771.531    -4283990.214 6  -3227866.023 9  22682775.785
  20236497.008     -454011.801 8   -331809.093 9  20236499.375
  22067034.000    -4182073.414 7  -3160037.490 9  22067037.363
  20789700.578    -2033099.903 7  -1542587.468 9  20789703.695
  23466869.086    -1550280.284 6  -1165366.875 9  23466873.281
 94  3 17 19 15  0.0000000  0  6 29 31 18 27 19 28
  21702839.953     2448471.428 7   1874189.301 9  21702843.176
  22670635.711    -4347762.988 6  -3277559.026 9  22670639.988
  20237960.234     -446323.685 8   -325818.369 9  20237962.484
  22053942.680    -4250866.375 7  -3213642.357 9  22053946.148
  20784636.727    -2059710.208 7  -1563322.760 9  20784639.750
  23464755.672    -1561384.654 6  -1174019.618 9  23464759.305
 94  3 17 19 15 30.0000000  0  6 29 31 18 27 19 28
  21713601.602     2505025.038 7   1918256.969 9  21713604.426
  22658595.789    -4411036.003 6  -3326862.612 9  22658599.738
  20239528.242     -438084.313 8   -319398.086 9  20239530.434
  22040899.109    -4319413.802 7  -3267055.894 9  22040902.648
  20779629.945    -2086022.611 7  -1583825.919 9  20779632.805
  23462758.703    -1571880.434 6  -1182198.127 9  23462762.430
 94  3 17 19 16  0.0000000  0  6 29 31 18 27 19 28
  21724448.906     2562026.357 7   1962673.500 9  21724451.707
  22646650.656    -4473806.816 6  -3375774.882 9  22646655.227
  20241202.961     -429283.970 8   -312540.686 9  20241205.117
  22027900.055    -4387724.540 7  -3320284.997 9  22027903.078
  20774681.359    -2112027.791 8  -1604089.686 9  20774684.102
  23460879.484    -1581756.737 6  -1189893.934 9  23460883.059
 94  3 17 19 16 30.0000000  0  6 29 31 18 27 19 28
  21735376.367     2619450.762 7   2007419.709 9  21735379.332
  22634801.586    -4536073.083 6  -3424293.991 9  22634806.027
  20242981.383     -419935.848 8   -305256.445 9  20242983.809
  22014939.336    -4455830.570 7  -3373354.596 9  22014942.617
  20769788.492    -2137740.957 8  -1624125.904 9  20769791.059
  23459118.320    -1591011.462 6  -1197105.378 9  23459122.480
 94  3 17 19 17  0.0000000  0  6 29 31 18 27 19 28
  21746380.320     2677276.980 7   2052479.022 9  21746383.391
  22623053.359    -4597810.517 6  -3472401.020 9  22623057.965
  20244862.984     -410049.622 8   -297552.900 9  20244865.258
  22002017.570    -4523733.821 7  -3426266.182 9  22002021.180
  20764951.133    -2163160.056 7  -1643932.991 9  20764953.969
  23457475.242    -1599643.621 6  -1203831.719 9  23457478.406
 94  3 17 19 17 30.0000000  0  6 29 31 18 27 19 28
  21757461.008     2735508.131 7   2097853.874 9  21757463.891
  22611405.906    -4659019.062 6  -3520095.943 9  22611409.926
  20246843.617     -399641.730 8   -289442.861 9  20246845.820
  21989133.914    -4591439.871 7  -3479024.114 9  21989137.430
  20760169.422    -2188287.607 7  -1663512.894 9  20760172.141
  23455949.406    -1607662.923 6  -1210080.491 9  23455953.063
 94  3 17 19 18  0.0000000  0  6 29 31 18 27 19 28
  21768624.484     2794170.341 7   2143564.605 9  21768627.543
  22599856.680    -4719707.982 6  -3567385.962 9  22599860.875
  20248923.609     -388711.318 8   -280925.665 9  20248925.859
  21976285.281    -4658958.365 7  -3531635.893 9  21976289.008
  20755440.977    -2213136.557 7  -1682875.709 9  20755443.836
  23454541.938    -1615065.456 6  -1215848.691 9  23454545.688
 94  3 17 19 18 30.0000000  0  6 29 31 18 27 19 28
  21779868.500     2853258.923 7   2189607.575 9  21779871.535
  22588405.227    -4779890.418 6  -3614281.321 9  22588408.918
  20251103.492     -377254.458 8   -271998.249 9  20251105.813
  21963476.078    -4726273.670 7  -3584089.345 9  21963479.535
  20750764.805    -2237709.754 8  -1702023.651 9  20750767.266
  23453246.352    -1621871.706 6  -1221152.249 9  23453249.563
 94  3 17 19 19  0.0000000  0  7 29 31 18 27  2 19 28
  21791192.813     2912767.360 7   2235977.706 9  21791195.953
  22577043.211    -4839594.710 6  -3660804.080 9  22577047.090
  20253383.773     -365271.586 8   -262660.961 9  20253385.965
  21950706.070    -4793376.058 7  -3636376.892 9  21950709.727
  24319553.008      -17314.93115
  20746138.578    -2262020.759 8  -1720967.279 9  20746141.027
  23452062.070    -1628093.961 6  -1226000.761 9  23452065.492
 94  3 17 19 19 30.0000000  0  7 29 31 18 27  2 19 28
  21802599.734     2972710.215 7   2282686.336 9  21802603.227
  22565773.117    -4898818.108 6  -3706952.126 9  22565776.902
  20255768.453     -352740.612 8   -252896.572 9  20255770.680
  21937978.875    -4860260.626 7  -3688494.708 9  21937982.449
  24299802.461     -121106.845 5
  20741563.625    -2286062.925 8  -1739701.425 9  20741566.309
  23450992.523    -1633712.204 6  -1230378.597 9  23450995.746
 94  3 17 19 20  0.0000000  0  7 29 31 18 27  2 19 28
  21814087.063     3033076.285 7   2329724.737 9  21814090.238
  22554595.148    -4957559.976 6  -3752724.945 9  22554599.039
  20258258.992     -339653.462 8   -242698.802 9  20258261.160
  21925293.656    -4926923.233 7  -3740439.572 9  21925297.254
  24280087.344     -224710.518 5    -43035.64319  24280095.469
  20737039.961    -2309834.775 8  -1758224.934 9  20737042.434
  23450038.828    -1638725.894 6  -1234285.352 9  23450041.512
 94  3 17 19 20 30.0000000  0  7 29 31 18 27  2 19 28
  21825656.477     3093874.777 7   2377100.103 9  21825659.523
  22543514.992    -5015787.285 6  -3798096.806 9  22543518.660
  20260858.492     -325992.444 8   -232053.857 9  20260860.613
  21912657.688    -4993324.509 7  -3792180.789 9  21912661.156
  24260411.641     -328109.330 5   -123606.071 9  24260420.527
  20732571.125    -2333318.900 8  -1776524.241 9  20732573.738
  23449204.250    -1643109.249 6  -1237700.951 9  23449207.543
 94  3 17 19 21  0.0000000  0  7 29 31 18 27  2 19 28
  21837311.078     3155116.725 7   2424821.019 9  21837314.137
  22532533.617    -5073496.269 6  -3843064.779 9  22532537.016
  20263564.922     -311771.206 8   -220972.379 9  20263567.137
  21900067.961    -5059485.283 7  -3843734.609 9  21900071.547
  24240776.414     -431296.652 5   -204011.660 9  24240784.855
  20728157.406    -2356512.771 8  -1794597.375 9  20728160.160
  23448492.320    -1646850.472 6  -1240616.187 9  23448495.414
 94  3 17 19 21 30.0000000  0  7 29 31 18 27  2 19 28
  21849050.797     3216809.947 7   2472893.586 9  21849053.938
  22521653.492    -5130668.155 6  -3887614.224 9  22521657.090
  20266378.688     -296984.489 8   -209450.270 9  20266381.020
  21887519.906    -5125423.010 7  -3895114.625 9  21887523.398
  24221184.070     -534250.471 5   -284235.298 9  24221192.746
  20723800.750    -2379405.085 7  -1812435.531 9  20723803.457
  23447898.297    -1649969.505 6  -1243046.577 9  23447902.293
 94  3 17 19 22  0.0000000  0  7 29 31 18 27  2 19 28
  21860873.070     3278935.899 7   2521303.343 9  21860876.363
  22510875.133    -5187310.385 6  -3931750.960 9  22510879.387
  20269296.555     -281650.175 8   -197501.459 9  20269298.805
  21875013.664    -5191144.692 7  -3946326.298 9  21875017.016
  24201636.164     -636972.706 5   -364278.542 9  24201644.488
  20719498.906    -2402012.382 7  -1830051.596 9  20719501.543
  23447420.961    -1652481.598 6  -1245004.071 9  23447424.324
 94  3 17 19 22 30.0000000  0  7 29 31 18 27  2 19 28
  21872777.656     3341494.357 7   2570050.131 9  21872780.797
  22500198.234    -5243414.293 6  -3975468.212 9  22500202.324
  20272319.156     -265765.571 8   -185123.856 9  20272321.641
  21862548.414    -5256650.810 7  -3997369.986 9  21862551.707
  24182136.594     -739445.149 5   -444127.112 9  24182143.453
  20715250.859    -2424335.623 7  -1847446.320 9  20715253.953
  23447058.945    -1654382.333 6  -1246485.158 9  23447062.684
 94  3 17 19 23  0.0000000  0  7 29 31 18 27  2 19 28
  21884761.938     3404474.582 7   2619125.557 9  21884765.289
  22489623.664    -5298987.737 6  -4018772.108 9  22489627.484
  20275444.766     -249341.532 8   -172325.914 9  20275447.332
  21850118.633    -5321970.347 7  -4048268.287 9  21850122.137
  24162681.656     -841679.485 5   -523790.153 9  24162690.660
  20711055.336    -2446384.527 8  -1864627.275 9  20711058.113
  23446807.563    -1655701.977 6  -1247513.452 9  23446811.266
 94  3 17 19 23 29.9990000  0  7 29 31 18 27  2 19 28
  21896824.620     3467862.226 7   2668518.463 9  21896828.276
  22479151.714    -5354019.503 6  -4061653.926 9  22479155.312
  20278674.870     -232367.261 8   -159099.218 9  20278677.390
  21837729.190    -5387077.867 7  -4099001.385 9  21837732.519
  24143273.581     -943667.189 5   -603261.021 9  24143281.390
  20706911.784    -2468158.234 7  -1881593.789 9  20706914.573
  23446668.105    -1656439.213 6  -1248087.927 9  23446671.632
 94  3 17 19 23 59.9990000  0  7 29 31 18 27  2 19 28
  21908960.284     3531635.722 7   2718212.037 9  21908963.601
  22468777.956    -5408531.758 6  -4104130.911 9  22468781.800
  20282003.370     -214875.041 8   -145468.929 9  20282005.831
  21825378.581    -5451978.110 7  -4149572.964 9  21825381.862
  24123906.909    -1045439.942 5   -682564.371 9  24123914.296
  20702817.815    -2489673.162 8  -1898358.660 9  20702820.569
  23446639.175    -1656588.403 6  -1248204.169 9  23446642.339
 94  3 17 19 24 29.9990000  0  7 29 31 18 27  2 19 28
  21921175.034     3595823.958 7   2768228.775 9  21921178.327
  22458507.159    -5462501.411 6  -4146185.098 9  22458510.897
  20285434.347     -196844.492 8   -131419.176 9  20285436.937
  21813072.081    -5516650.249 7  -4199966.801 9  21813075.116
  24104585.745    -1146973.985 5   -761681.715 9  24104593.729
  20698777.440    -2510905.426 8  -1914903.270 9  20698779.972
  23446726.167    -1656132.670 6  -1247849.040 9  23446729.718
 94  3 17 19 24 59.9990000  0  7 29 31 18 27  2 19 28
  21933470.511     3660435.753 7   2818575.567 9  21933473.839
  22448341.479    -5515925.227 6  -4187813.953 9  22448344.995
  20288968.730     -178271.046 8   -116946.384 9  20288971.413
  21800810.222    -5581085.526 7  -4250176.076 9  21800813.409
  24085309.136    -1248271.773 5   -840614.992 9  24085318.163
  20694792.026    -2531849.505 8  -1931223.324 9  20694794.698
  23446931.308    -1655058.471 6  -1247011.995 9  23446934.214
 94  3 17 19 25 29.9990000  0  7 29 31 18 27  2 19 28
  21945843.175     3725456.548 7   2869241.065 9  21945846.608
  22438275.925    -5568816.930 6  -4229028.187 9  22438280.038
  20292604.464     -159165.612 8   -102059.054 9  20292606.995
  21788595.003    -5645276.113 7  -4300194.685 9  21788598.226
  24066079.823    -1349322.436 5   -919355.674 9  24066088.382
  20690858.964    -2552515.544 8  -1947326.728 9  20690861.870
  23447254.542    -1653355.555 6  -1245685.052 9  23447257.741
 94  3 17 19 25 59.9990000  0  7 29 31 18 27  2 19 28
  21958300.269     3790918.837 7   2920250.571 9  21958303.480
  22428317.456    -5621151.927 6  -4269808.634 9  22428321.147
  20296344.050     -139513.388 8    -86745.654 9  20296346.792
  21776428.542    -5709214.908 7  -4350017.085 9  21776431.577
  24046903.667    -1450096.669 5   -997880.996 9  24046911.194
  20686980.940    -2572895.840 8  -1963207.469 9  20686983.683
  23447703.230    -1650998.283 6  -1243848.189 9  23447706.616
 94  3 17 19 26 29.9990000  0  7 29 31 18 27  2 19 28
  21970840.909     3856820.933 7   2971602.801 9  21970844.542
  22418464.261    -5672930.506 6  -4310155.493 9  22418468.022
  20300189.261     -119306.712 8    -71000.214 9  20300191.968
  21764305.472    -5772919.065 7  -4399656.654 9  21764308.542
  24027777.042    -1550605.334 5  -1076199.335 9  24027785.331
  20683154.628    -2593002.087 7  -1978874.664 9  20683157.581
  23448274.487    -1647995.625 6  -1241508.451 9  23448278.519
 94  3 17 19 26 59.9990000  0  7 29 31 18 27  2 19 28
  21983461.987     3923143.249 7   3023282.460 9  21983465.819
  22408713.886    -5724168.062 6  -4350080.773 9  22408717.390
  20304137.980      -98555.597 8    -54830.527 9  20304140.616
  21752224.722    -5836403.654 7  -4449125.131 9  21752227.733
  24008697.722    -1650872.975 5  -1154329.861 9  24008705.964
  20679379.128    -2612844.145 8  -1994336.002 9  20679381.940
  23448968.003    -1644352.073 6  -1238669.302 9  23448971.636
 94  3 17 19 27 29.9990000  0  7 29 31 18 27  2 19 28
  21996164.026     3989890.966 7   3075293.603 9  21996167.788
  22399069.198    -5774850.618 6  -4389573.600 9  22399073.054
  20308191.901      -77254.352 8    -38232.180 9  20308194.491
  21740184.940    -5899674.284 7  -4498426.883 9  21740188.046
  23989662.753    -1750896.649 5  -1232270.316 9  23989671.522
  20675655.284    -2632412.840 8  -2009584.327 9  20675658.015
  23449782.667    -1640073.002 6  -1235334.955 9  23449786.253
 94  3 17 19 27 59.9990000  0  7 29 31 18 27  2 19 28
  22008946.425     4057064.989 7   3127636.937 9  22008950.022
  22389534.354    -5824955.506 6  -4428616.293 9  22389538.058
  20312352.269      -55390.413 8    -21195.369 9  20312354.765
  21728182.847    -5962746.500 7  -4547574.021 9  21728186.105
  23970673.284    -1850689.826 5  -1310031.135 9  23970681.526
  20671985.784    -2651696.611 8  -2024610.636 9  20671988.562
  23450717.034    -1635161.209 6  -1231507.571 9  23450720.796
 94  3 17 19 28 29.9990000  0  7 29 31 18 27  2 19 28
  22021806.526     4124643.798 7   3180295.676 9  22021810.300
  22380107.644    -5874493.324 6  -4467217.116 9  22380111.417
  20316619.440      -32968.296 8     -3723.614 9  20316622.136
  21716218.323    -6025619.671 7  -4596566.068 9  21716221.605
  23951722.979    -1950268.233 5  -1387624.619 9  23951730.390
  20668371.761    -2670689.527 8  -2039410.296 9  20668374.538
  23451770.573    -1629626.531 6  -1227194.828 9  23451774.007
 94  3 17 19 28 59.9990000  0  7 29 31 18 27  2 19 28
  22034742.409     4192622.414 7   3233265.948 9  22034746.030
  22370790.550    -5923456.770 6  -4505370.388 9  22370794.265
  20320991.183       -9994.184 8     14178.266 9  20320993.983
  21704293.526    -6088285.155 7  -4645396.274 9  21704296.386
  23932820.761    -2049604.378 5  -1465029.301 9  23932829.331
  20664812.628    -2689390.965 8  -2053982.834 9  20664815.276
  23452941.151    -1623470.831 6  -1222398.144 9  23452944.655
 94  3 17 19 29 29.9990000  0  7 29 31 18 27  2 19 28
  22047754.659     4261003.459 7   3286549.807 9  22047758.280
  22361585.269    -5971829.036 6  -4543063.010 9  22361589.159
  20325468.761       13535.276 8     32512.892 9  20325471.538
  21692410.003    -6150733.908 7  -4694057.602 9  21692413.038
  23913967.292    -2148675.180 5  -1542227.251 9  23913975.546
  20661308.753    -2707804.878 8  -2068331.320 9  20661311.355
  23454228.698    -1616706.068 6  -1217126.886 9  23454232.132
 94  3 17 19 29 59.9990000  0  7 29 31 18 27  2 19 28
  22060844.815     4329791.871 7   3340151.093 9  22060848.437
  22352491.034    -6019618.551 6  -4580301.544 9  22352494.562
  20330050.394       37612.157 8     51274.080 9  20330053.183
  21680569.464    -6212953.689 7  -4742540.513 9  21680572.581
  23895166.261    -2247479.436 5  -1619217.473 9  23895173.460
  20657858.690    -2725933.257 8  -2082457.319 9  20657861.397
  23455633.315    -1609323.630 6  -1211374.320 9  23455636.515
 94  3 17 19 30 29.9990000  0  7 29 31 18 27  2 19 28
  22074014.456     4398996.348 7   3394076.580 9  22074018.136
  22343505.612    -6066838.819 6  -4617096.511 9  22343509.397
  20334734.425       62227.945 8     70455.196 9  20334737.272
  21668775.706    -6274932.545 7  -4790835.688 9  21668778.812
  23876415.847    -2346008.453 5  -1695993.232 9  23876424.933
  20654462.214    -2743783.439 8  -2096366.531 9  20654464.815
  23457154.011    -1601333.491 6  -1205148.217 9  23457157.690
 94  3 17 19 30 59.9990000  0  7 29 31 18 27  2 19 28
  22087261.995     4468612.329 7   3448322.705 9  22087265.804
  22334625.651    -6113501.853 6  -4653457.273 9  22334629.167
  20339519.050       87369.881 8     90046.300 9  20339521.897
  21657023.370    -6336689.246 7  -4838957.753 9  21657026.452
  23857718.347    -2444270.062 5  -1772560.587 9  23857726.835
  20651114.409    -2761375.621 8  -2110074.707 9  20651117.292
  23458785.894    -1592757.558 6  -1198465.642 9  23458789.222
 94  3 17 19 31 29.9990000  0  7 29 31 18 27  2 19 28
  22100588.776     4538647.489 6   3502895.472 9  22100592.644
  22325852.042    -6159609.687 6  -4689385.422 9  22325855.347
  20344405.229      113047.147 8    110054.536 9  20344407.937
  21645313.565    -6398224.094 7  -4886906.951 9  21645316.729
  23839065.417    -2542284.752 5  -1848935.565 9  23839074.269
  20647816.394    -2778706.690 8  -2123579.422 9  20647819.112
  23460530.901    -1583587.780 6  -1191320.326 9  23460534.417
 94  3 17 19 31 59.9990000  0  7 29 31 18 27  2 19 28
  22113995.542     4609100.142 6   3557793.547 9  22113999.304
  22317184.440    -6205158.551 6  -4724877.998 9  22317187.804
  20349394.792      139267.103 8    130485.667 9  20349397.569
  21633645.667    -6459539.053 7  -4934684.805 9  21633649.077
  23820462.386    -2640051.799 5  -1925117.579 9  23820470.499
  20644570.644    -2795763.556 8  -2136870.470 9  20644573.351
  23462392.073    -1573809.227 6  -1183700.666 9  23462395.120
 94  3 17 19 32 29.9990000  0  7 29 31 18 27  2 19 28
  22127481.612     4679968.346 6   3613015.428 9  22127485.315
  22308627.722    -6250121.786 6  -4759914.236 9  22308631.226
  20354491.948      166052.601 8    151357.467 9  20354494.655
  21622020.987    -6520626.201 7  -4982285.145 9  21622024.339
  23801909.808    -2737543.892 5  -2001085.283 9  23801917.792
  20641378.269    -2812540.387 8  -2149943.315 9  20641381.022
  23464370.917    -1563407.327 6  -1175595.269 9  23464374.222
 94  3 17 19 32 59.9990000  0  7 29 31 18 27  2 19 28
  22141044.933     4751242.395 6   3668553.543 9  22141048.753
  22300183.026    -6294498.798 6  -4794493.674 9  22300186.577
  20359696.206      193400.921 8    172667.829 9  20359698.796
  21610437.753    -6581495.428 7  -5029715.680 9  21610440.964
  23783407.175    -2834773.090 5  -2076848.173 9  23783414.526
  20638237.722    -2829044.209 8  -2162803.417 9  20638240.288
  23466468.909    -1552379.711 6  -1167002.307 9  23466472.155
 94  3 17 19 33 29.9990000  0  7 29 31 18 27  2 19 28
  22154684.620     4822920.601 6   3724406.601 9  22154688.323
  22291851.425    -6338279.475 6  -4828608.444 9  22291854.952
  20365008.151      221315.611 8    194419.520 9  20365010.905
  21598899.276    -6642131.298 7  -5076964.379 9  21598902.769
  23764955.862    -2931735.591 5  -2152403.227 9  23764964.175
  20635151.237    -2845263.496 8  -2175441.808 9  20635153.780
  23468690.386    -1540710.506 6  -1157909.396 9  23468693.585
 94  3 17 19 33 59.9990000  0  7 29 31 18 27  2 19 28
  22168400.737     4894997.142 6   3780570.032 9  22168404.464
  22283635.042    -6381460.392 6  -4862255.860 9  22283638.546
  20370425.878      249786.732 8    216604.788 9  20370428.702
  21587407.081    -6702525.600 7  -5124024.845 9  21587410.222
  23746557.956    -3028416.136 5  -2227738.568 9  23746566.069
  20632118.933    -2861198.206 8  -2187858.451 9  20632121.616
  23471031.120    -1528409.473 6  -1148324.157 9  23471034.460
 94  3 17 19 34 29.9990000  0  7 29 31 18 27  2 19 28
  22182197.190     4967499.301 6   3837065.122 9  22182201.116
  22275534.261    -6424027.809 6  -4895425.220 9  22275537.835
  20375949.886      278816.164 8    239225.106 9  20375952.745
  21575965.589    -6762652.936 7  -5170877.285 9  21575968.460
  23728216.440    -3124805.061 5  -2302846.682 9  23728224.343
  20629142.511    -2876838.611 7  -2200045.763 9  20629145.276
  23473494.214    -1515465.744 6  -1138238.121 9  23473497.460
 94  3 17 19 34 59.9990000  0  7 29 31 18 27  2 19 28
  22196073.964     5040419.716 7   3893886.124 9  22196077.843
  22267548.714    -6465993.398 6  -4928125.611 9  22267552.030
  20381578.151      308390.194 8    262269.793 9  20381580.647
  21564572.776    -6822518.164 7  -5217525.480 9  21564575.917
  23709924.167    -3220924.948 5  -2377745.144 9  23709933.077
  20626222.511    -2892183.904 8  -2212003.121 9  20626225.206
  23476078.120    -1501885.594 6  -1127656.181 9  23476081.366
 94  3 17 19 35 29.9990000  0  7 29 31 18 27  2 19 28
  22210027.198     5113744.801 6   3951022.460 9  22210030.761
  22259676.651    -6507363.901 6  -4960362.290 9  22259679.792
  20387308.878      338506.318 8    285736.898 9  20387311.339
  21553232.776    -6882111.885 7  -5263962.124 9  21553235.823
  23691686.683    -3316764.345 5  -2452425.081 9  23691695.417
  20623358.237    -2907235.070 8  -2223731.289 9  20623361.108
  23478785.394    -1487659.246 6  -1116570.687 9  23478788.511
 94  3 17 19 35 59.9990000  0  7 29 31 18 27  2 19 28
  22224059.347     5187483.798 6   4008481.326 9  22224063.190
  22251917.073    -6548139.710 6  -4992135.585 9  22251920.413
  20393145.495      369177.601 8    309636.585 9  20393147.839
  21541943.878    -6941436.694 7  -5310189.215 9  21541946.726
  23673504.433    -3412314.891 5  -2526879.899 9  23673512.265
  20620552.089    -2921981.853 8  -2235222.284 9  20620554.726
  23481616.487    -1472783.359 6  -1104979.087 9  23481619.698
 94  3 17 19 36 29.9990000  0  7 29 31 18 27  2 19 28
  22238170.183     5261635.033 6   4066261.441 9  22238174.144
  22244269.456    -6588327.372 6  -5023450.574 9  22244272.854
  20399091.183      400422.992 8    333983.630 9  20399093.550
  21530703.792    -7000501.722 7  -5356213.883 9  21530707.015
  23655377.300    -3507570.863 5  -2601105.171 9  23655385.507
  20617805.401    -2936415.943 8  -2246469.615 9  20617808.202
  23484574.448    -1457237.337 6  -1092865.289 9  23484577.659
 94  3 17 19 36 59.9990000  0  7 29 31 18 27  2 19 28
  22252356.995     5336191.357 6   4124357.189 9  22252361.132
  22236734.276    -6627920.471 6  -5054302.270 9  22236738.155
  20405151.440      432269.132 8    358798.793 9  20405153.890
  21519514.542    -7059301.576 7  -5402031.920 9  21519517.624
  23637309.698    -3602513.013 5  -2675085.965 9  23637317.741
  20615121.284    -2950521.265 8  -2257460.770 9  20615123.968
  23487663.534    -1441004.355 6  -1080216.203 9  23487667.003
 94  3 17 19 37 29.9990000  0  7 29 31 18 27  2 19 28
  22266624.190     5411161.108 6   4182775.095 9  22266628.163
  22229311.394    -6666929.519 6  -5084698.844 9  22229314.956
  20411324.097      464705.050 8    384073.521 9  20411326.663
  21508373.229    -7117848.914 7  -5447653.183 9  21508376.628
  23619303.878    -3697138.584 5  -2748820.030 9  23619311.616
  20612497.479    -2964309.570 8  -2268204.891 9  20612500.222
  23490878.269    -1424110.120 6  -1067051.856 9  23490881.749
 94  3 17 19 37 59.9990000  0  7 29 31 18 27  2 19 28
  22280970.894     5486552.070 7   4241521.220 9  22280974.679
  22222001.987    -6705342.881 6  -5114631.263 9  22222005.573
  20417606.292      497719.465 8    409799.027 9  20417608.940
  21497275.128    -7176169.181 7  -5493097.512 9  21497278.831
  23601354.190    -3791462.749 5  -2822319.256 9  23601362.222
  20609932.698    -2977787.684 8  -2278707.309 9  20609935.323
  23494213.456    -1406585.955 6  -1053396.658 9  23494216.749
 94  3 17 19 38 29.9990000  0  7 29 31 18 27  2 19 28
  22295399.870     5562378.789 6   4300606.896 9  22295403.632
  22214812.761    -6743120.492 6  -5144068.274 9  22214816.394
  20423998.105      531311.989 8    435975.006 9  20424000.917
  21486222.401    -7234252.482 7  -5538357.192 9  21486225.835
  23583463.378    -3885478.088 5  -2895577.822 9  23583470.659
  20607427.479    -2990952.736 7  -2288965.779 9  20607430.187
  23497668.261    -1388431.523 6  -1039250.337 9  23497671.401
 94  3 17 19 38 59.9990000  0  7 29 31 18 27  2 19 28
  22309914.034     5638650.016 6   4360038.933 9  22309917.937
  22207748.019    -6780247.220 7  -5172998.092 9  22207751.651
  20430496.644      565459.835 8    462583.708 9  20430499.362
  21475214.940    -7292097.664 7  -5583431.313 9  21475218.151
  23565628.823    -3979195.726 5  -2968604.437 9  23565636.315
  20604980.386    -3003812.242 7  -2298986.165 9  20604983.233
  23501235.597    -1369681.948 6  -1024640.283 9  23501238.444
 94  3 17 19 39 29.9990000  0  7 29 31 18 27  2 19 28
  22324512.964     5715368.159 6   4419819.236 9  22324516.960
  22200810.128    -6816705.245 7  -5201406.842 9  22200813.362
  20437099.675      600157.834 8    489621.101 9  20437102.499
  21464250.612    -7349714.689 7  -5628327.667 9  21464253.929
  23547851.292    -4072621.117 5  -3041403.322 9  23547859.007
  20602590.534    -3016370.820 8  -2308772.056 9  20602593.288
  23504913.706    -1350350.907 6  -1009577.131 9  23504917.151
 94  3 17 19 39 59.9990000  0  7 29 31 18 27  2 19 28
  22339193.034     5792513.134 6   4479932.126 9  22339197.522
  22194001.261    -6852485.604 7  -5229287.549 9  22194004.788
  20443809.073      635416.958 8    517095.741 9  20443811.605
  21453331.292    -7407097.243 7  -5673041.303 9  21453334.444
  23530127.347    -4165761.338 5  -3113979.973 9  23530135.308
  20600260.097    -3028616.483 7  -2318314.121 9  20600263.085
  23508706.831    -1330420.088 6   -994046.630 9  23508710.698
 94  3 17 19 40 29.9990000  0  7 29 31 18 27  2 19 28
  22353951.925     5870074.093 6   4540369.156 9  22353956.753
  22187320.386    -6887592.152 7  -5256643.213 9  22187323.937
  20450628.612      671253.682 8    545020.460 9  20450631.319
  21442459.097    -7464231.444 7  -5717561.410 9  21442462.354
  23512461.894    -4258591.640 5  -3186315.168 9  23512469.784
  20597991.253    -3040538.955 8  -2327604.342 9  20597993.878
  23512618.979    -1309858.691 6   -978024.768 9  23512622.987
 94  3 17 19 40 59.9990000  0  7 29 31 18 27  2 19 28
  22368787.503     5948033.750 6   4601116.857 9  22368791.874
  22180761.315    -6922058.122 7  -5283499.730 9  22180764.702
  20457560.175      707680.254 8    573404.778 9  20457562.929
  21431633.784    -7521118.302 7  -5761888.796 9  21431636.878
  23494856.925    -4351108.084 6  -3258405.764 9  23494865.085
  20595781.229    -3052153.738 7  -2336654.810 9  20595784.007
  23516654.370    -1288655.215 6   -961502.584 9  23516658.671
 94  3 17 19 41 29.9990000  0  7 29 31 18 27  2 19 28
  22383697.769     6026384.438 6   4662169.250 9  22383701.741
  22174324.917    -6955882.342 7  -5309856.182 9  22174328.433
  20464608.433      744717.752 8    602265.150 9  20464611.058
  21420857.675    -7577749.123 7  -5806016.669 9  21420860.312
  23477311.690    -4443307.703 5  -3330249.475 9  23477319.183
  20593629.479    -3063461.659 8  -2345466.164 9  20593632.198
  23520818.245    -1266773.636 6   -944452.010 9  23520821.726
 94  3 17 19 41 59.9990000  0  7 29 31 18 27  2 19 28
  22398681.347     6105122.920 6   4723523.838 9  22398685.460
  22168008.894    -6989073.556 7  -5335719.394 9  22168012.105
  20471771.097      782357.367 8    631594.704 9  20471773.710
  21410131.261    -7634112.691 7  -5849936.285 9  21410134.343
  23459828.628    -4535180.757 5  -3401838.722 9  23459837.022
  20591534.878    -3074468.583 8  -2354042.967 9  20591537.538
  23525112.222    -1244210.063 6   -926870.031 9  23525115.409
 94  3 17 19 42 29.9990000  0  7 29 31 18 27  2 19 28
  22413737.284     6184244.421 6   4785176.873 9  22413741.327
  22161808.894    -7021655.473 7  -5361107.837 9  22161812.198
  20479042.112      820567.532 8    661368.839 9  20479044.620
  21399454.370    -7690221.727 7  -5893657.572 9  21399457.487
  23442405.245    -4626740.741 5  -3473184.016 9  23442413.593
  20589489.995    -3085214.939 8  -2362416.740 9  20589492.726
  23529528.644    -1221001.773 6   -908785.667 9  23529531.901
 94  3 17 19 42 59.9990000  0  8 16 29 31 18 27  2 19 28
  24167346.409      -10405.68115
  22428870.589     6263768.336 6   4847143.459 9  22428875.206
  22155726.894    -7053613.736 7  -5386010.312 9  22155730.140
  20486419.542      859336.800 8    691578.636 9  20486422.272
  21388826.659    -7746068.945 7  -5937174.841 9  21388829.671
  23425037.565    -4718007.727 6  -3544301.010 9  23425044.858
  20587495.144    -3095698.761 8  -2370585.932 9  20587497.628
  23534063.823    -1197170.128 6   -890215.570 9  23534066.905
 94  3 17 19 43 29.9990000  0  8 16 29 31 18 27  2 19 28
  24155526.448      -72523.507 5
  22444079.706     6343691.250 6   4909420.977 9  22444084.241
  22149766.058    -7084940.099 7  -5410420.405 9  22149769.397
  20493898.081      898637.011 8    722202.162 9  20493900.894
  21378249.105    -7801655.531 7  -5980489.019 9  21378252.456
  23407724.542    -4808992.087 6  -3615197.744 9  23407731.601
  20585552.269    -3105907.618 8  -2378540.865 9  20585554.683
  23538714.472    -1172731.742 6   -871172.674 9  23538718.116
 94  3 17 19 43 59.9990000  0  8 16 29 31 18 27  2 19 28
  24143810.253     -134084.670 5    -25529.57319  24143816.089
  22459363.901     6424012.621 6   4972008.969 9  22459368.179
  22143924.339    -7115637.875 7  -5434340.696 9  22143927.515
  20501475.120      938452.371 8    753227.098 9  20501477.827
  21367720.487    -7856983.132 7  -6023601.390 9  21367723.464
  23390465.511    -4899685.428 6  -3685867.747 9  23390471.839
  20583663.784    -3115831.252 8  -2386273.543 9  20583666.011
  23543478.229    -1147697.616 6   -851665.573 9  23543481.476
 94  3 17 19 44 29.9990000  0  8 16 29 31 18 27  2 19 28
  24132200.237     -195100.207 5    -73074.115 9  24132205.780
  22474724.159     6504731.050 6   5034906.364 9  22474728.694
  22138201.183    -7145711.806 7  -5457774.885 9  22138204.651
  20509151.417      978792.693 8    784661.087 9  20509154.077
  21357240.112    -7912058.117 7  -6066516.917 9  21357243.183
  23373260.558    -4990094.996 6  -3756316.621 9  23373267.354
  20581830.503    -3125465.217 8  -2393780.501 9  20581832.905
  23548355.995    -1122061.282 6   -831689.208 9  23548358.960
 94  3 17 19 44 59.9990000  0  8 16 29 31 18 27  2 19 28
  24120699.276     -255541.484 5   -120171.175 9  24120706.097
  22490158.683     6585835.783 6   5098104.767 9  22490162.562
  22132599.425    -7175150.414 7  -5480714.006 9  22132602.589
  20516931.472     1019676.172 8    816518.320 9  20516934.108
  21346808.120    -7966877.296 7  -6109233.113 9  21346811.144
  23356113.644    -5080202.897 6  -3826530.398 9  23356120.562
  20580056.792    -3134785.369 8  -2401042.936 9  20580059.206
  23553356.761    -1095784.358 6   -811213.678 9  23553360.077
 94  3 17 19 45 29.9990000  0  8 16 29 31 18 27  2 19 28
  24109302.753     -315425.651 5   -166834.180 9  24109308.062
  22505659.847     6667297.545 6   5161581.380 9  22505664.370
  22127117.065    -7203960.730 7  -5503163.562 9  22127120.054
  20524813.394     1061095.962 8    848793.459 9  20524815.995
  21336423.948    -8021448.409 7  -6151756.014 9  21336426.819
  23339025.862    -5170000.801 6  -3896502.630 9  23339033.308
  20578340.050    -3143808.500 8  -2408073.926 9  20578342.604
  23558480.589    -1068859.819 6   -790233.519 9  23558483.917
 94  3 17 19 45 59.9990000  0  8 16 29 31 18 27  2 19 28
  24098011.136     -374762.636 5   -213070.803 9  24098015.647
  22521229.964     6749117.831 6   5225337.361 9  22521234.347
  22121753.980    -7232143.661 7  -5525124.252 9  22121757.167
  20532798.815     1103058.313 8    881491.375 9  20532801.159
  21326084.503    -8075780.655 7  -6194092.787 9  21326087.304
  23321998.284    -5259478.866 6  -3966225.645 9  23322005.601
  20576675.823    -3152552.485 8  -2414887.400 9  20576678.401
  23563727.948    -1041286.164 6   -768747.554 9  23563731.722
 94  3 17 19 46 29.9990000  0  8 16 29 31 18 27  2 19 28
  24086825.815     -433540.167 5   -258871.455 9  24086831.241
  22536870.128     6831307.026 6   5289380.791 9  22536874.522
  22116512.581    -7259688.310 7  -5546587.589 9  22116515.792
  20540890.581     1145579.895 8    914625.066 9  20540893.065
  21315791.151    -8129872.491 7  -6236242.222 9  21315793.917
  23305034.229    -5348627.799 6  -4035692.170 9  23305041.147
  20575066.026    -3161011.436 7  -2421478.771 9  20575068.569
  23569098.144    -1013063.299 6   -746755.710 9  23569101.800
 94  3 17 19 46 59.9990000  0  8 16 29 31 18 27  2 19 28
  24075745.448     -491766.030 5   -304242.226 9  24075751.952
  22552579.347     6913860.925 6   5353708.424 9  22552583.519
  22111392.948    -7286590.456 7  -5567550.274 9  22111396.581
  20549084.315     1188640.245 8    948178.558 9  20549086.999
  21305542.581    -8183728.587 7  -6278207.969 9  21305545.651
  23288132.206    -5437445.912 6  -4104900.908 9  23288139.991
  20573510.776    -3169183.964 7  -2427846.954 9  20573513.565
  23574588.386     -984210.289 6   -724272.832 9  23574592.159
 94  3 17 19 47 29.9990000  0  8 16 29 31 18 27  2 19 28
  24064768.855     -549456.744 5   -349195.996 9  24064774.690
  22568359.073     6996784.291 6   5418323.945 9  22568363.796
  22106395.901    -7312849.660 7  -5588011.972 9  22106399.206
  20557379.276     1232232.188 8    982146.289 9  20557381.866
  21295336.784    -8237362.238 7  -6320000.385 9  21295339.608
  23271290.878    -5525949.960 6  -4173864.923 9  23271297.925
  20572010.487    -3177068.125 7  -2433990.435 9  20572013.452
  23580191.870     -954763.985 6   -701327.663 9  23580195.198
 94  3 17 19 47 59.9990000  0  8 16 29 31 18 27  2 19 28
  24053894.448     -606604.360 5   -393726.615 9  24053899.394
  22584210.956     7080085.763 6   5483234.090 9  22584215.562
  22101518.190    -7338485.066 7  -5607987.597 9  22101520.979
  20565779.081     1276371.117 8   1016540.234 9  20565781.659
  21285169.894    -8290788.148 7  -6361630.924 9  21285172.659
  23254508.784    -5614140.714 6  -4242584.819 9  23254515.761
  20570568.401    -3184646.140 7  -2439895.359 9  20570571.272
  23585905.323     -924742.027 6   -677933.939 9  23585908.019
 94  3 17 19 48 29.9990000  0  8 16 29 31 18 27  2 19 28
  24043123.995     -663199.705 5   -437826.863 9  24043128.542
  22600135.034     7163764.203 6   5548437.975 9  22600139.698
  22096757.550    -7363500.253 7  -5627479.937 9  22096760.608
  20574282.644     1321057.317 8   1051360.624 9  20574285.222
  21275043.308    -8344004.186 7  -6403097.931 9  21275045.933
  23237784.292    -5702025.711 6  -4311066.460 9  23237791.573
  20569186.097    -3191911.001 7  -2445556.267 9  20569188.933
  23591724.847     -894158.583 6   -654102.674 9  23591727.929
 94  3 17 19 48 59.9990000  0  8 16 29 31 18 27  2 19 28
  24032458.472     -719246.615 5   -481499.773 9  24032462.726
  22616130.636     7247819.577 6   5613935.589 9  22616134.550
  22092119.034    -7387875.705 7  -5646473.779 9  22092122.269
  20582890.214     1366291.089 8   1086607.693 9  20582892.886
  21264958.683    -8396998.527 7  -6444392.184 9  21264961.659
  23221118.378    -5789603.738 6  -4379308.902 9  23221125.647
  20567861.136    -3198875.149 8  -2450982.859 9  20567863.843
  23597653.542     -863005.863 6   -629827.816 9  23597656.659
 94  3 17 19 49 29.9990000  0  8 16 29 31 18 27  2 19 28
  24021896.495     -774747.974 5   -524747.546 9  24021901.487
  22632198.097     7332259.614 6   5679732.930 9  22632202.960
  22087600.229    -7411622.968 7  -5664978.125 9  22087603.276
  20591603.300     1412078.330 8   1122286.032 9  20591605.901
  21254916.597    -8449771.443 7  -6485513.908 9  21254919.456
  23204510.503    -5876879.720 6  -4447315.972 9  23204517.312
  20566587.198    -3205569.180 8  -2456198.970 9  20566589.823
  23603691.104     -831279.713 6   -605106.121 9  23603694.292
 94  3 17 19 49 59.9990000  0  8 16 29 31 18 27  2 19 28
  24011438.300     -829703.015 5   -567569.620 9  24011443.808
  22648341.722     7417093.242 6   5745836.971 9  22648346.245
  22083201.776    -7434736.701 7  -5682988.805 9  22083204.765
  20600421.464     1458416.926 8   1158394.011 9  20600424.077
  21244920.737    -8502298.544 7  -6526444.075 9  21244923.433
  23187962.987    -5963833.223 6  -4515071.780 9  23187969.808
  20565359.284    -3212021.887 8  -2461227.043 9  20565361.780
  23609840.511     -798959.008 6   -579921.141 9  23609843.897
 94  3 17 19 50 29.9990000  0  8 16 29 31 18 27  2 19 28
  24001084.878     -884119.251 5   -609971.844 9  24001089.155
  22664557.651     7502307.943 6   5812237.934 9  22664562.198
  22078927.761    -7457196.866 7  -5700490.214 9  22078930.960
  20609339.050     1505277.878 8   1194909.028 9  20609341.558
  21234974.417    -8554566.778 7  -6567172.538 9  21234977.335
  23171472.659    -6050491.827 6  -4582597.783 9  23171479.479
  20564171.534    -3218263.384 8  -2466090.538 9  20564173.913
  23616105.222     -766036.662 6   -554267.371 9  23616109.206
 94  3 17 19 50 59.9990000  0  8 16 29 31 18 27  2 19 28
  23990831.605     -937999.346 5   -651956.320 9  23990836.550
  22680844.519     7587895.469 6   5878929.414 9  22680848.714
  22074778.370    -7479000.014 7  -5717479.653 9  22074781.452
  20618355.956     1552663.061 8   1231832.535 9  20618358.663
  21225078.003    -8606572.705 7  -6607696.605 9  21225080.757
  23155036.409    -6136865.006 6  -4649901.368 9  23155043.913
  20563026.269    -3224281.545 8  -2470780.000 9  20563028.612
  23622488.644     -732495.729 6   -528131.567 9  23622492.499
 94  3 17 19 51 29.9990000  0  8 16 29 31 18 27  2 19 28
  23980683.042     -991329.720 5   -693512.447 9  23980688.233
  22697202.339     7673855.371 6   5945911.060 9  22697206.733
  22070753.315    -7500151.124 7  -5733961.013 9  22070756.245
  20627475.690     1600589.655 8   1269177.918 9  20627478.526
  21215232.503    -8658310.311 7  -6648011.592 9  21215235.140
  23138655.245    -6222944.937 6  -4716976.466 9  23138661.737
  20561928.808    -3230050.861 8  -2475275.563 9  20561931.058
  23628990.722     -698326.658 6   -501506.333 9  23628994.120
 94  3 17 19 51 59.9990000  0  8 16 29 31 18 27  2 19 28
  23970640.159    -1044104.139 5   -734635.338 9  23970646.487
  22713624.979     7760156.875 6   6013158.873 9  22713629.058
  22066854.940    -7520637.908 7  -5749924.701 9  22066857.718
  20636696.714     1649044.141 8   1306934.652 9  20636699.562
  21205437.065    -8709787.608 7  -6688123.745 9  21205439.995
  23122328.831    -6308743.337 6  -4783832.195 9  23122336.429
  20560883.456    -3235544.721 8  -2479556.491 9  20560885.847
  23635610.003     -663541.975 6   -474401.372 9  23635612.827
 94  3 17 19 52 29.9990000  0  8 16 29 31 18 27  2 19 28
  23960704.058    -1096308.922 5   -775314.402 9  23960709.894
  22730110.245     7846785.241 6   6080661.395 9  22730114.581
  22063082.339    -7540466.561 7  -5765375.558 9  22063085.222
  20646018.722     1698030.303 8   1345105.674 9  20646021.358
  21195686.050    -8761028.682 7  -6728051.824 9  21195688.874
  23106052.347    -6394274.417 6  -4850479.617 9  23106059.038
  20559895.729    -3240732.472 8  -2483598.891 9  20559898.202
  23642345.933     -628147.107 6   -446820.963 9  23642349.097
 94  3 17 19 52 59.9990000  0  8 16 29 31 18 27  2 19 28
  23950880.933    -1147945.112 5   -815550.388 9  23950885.878
  22746656.659     7933736.308 6   6148415.363 9  22746661.065
  22059431.659    -7559650.825 7  -5780324.297 9  22059434.589
  20655443.058     1747557.166 8   1383698.011 9  20655445.741
  21185977.667    -8812045.552 7  -6767805.202 9  21185980.444
  23089833.651    -6479505.033 6  -4916892.922 9  23089840.616
  20558967.589    -3245611.084 8  -2487400.408 9  20558970.179
  23649195.519     -592155.504 6   -418775.560 9  23649198.319
 94  3 17 19 53 29.9990000  0  8 16 29 31 18 27  2 19 28
  23941164.784    -1199004.072 5   -855336.576 2  23941168.956
  22763263.050     8021002.586 6   6216414.966 9  22763267.046
  22055902.151    -7578199.297 7  -5794777.604 9  22055904.987
  20664968.003     1797612.567 7   1422702.203 9  20664970.722
  21176311.886    -8862841.127 7  -6807386.137 9  21176314.640
  23073673.823    -6564421.510 6  -4983061.426 9  23073680.905
  20558094.136    -3250202.427 8  -2490978.080 9  20558096.503
  23656154.456     -555581.501 6   -390276.355 9  23656157.069
 94  3 17 19 53 59.9990000  0  8 16 29 31 18 27  2 19 28
  23931559.269    -1249473.711 5   -894663.545 9  23931563.405
  22779930.847     8108592.465 6   6284666.707 9  22779935.288
  22052491.972    -7596115.650 7  -5808738.355 9  22052494.702
  20674590.128     1848177.243 7   1462103.241 9  20674592.905
  21166686.433    -8913423.346 7  -6846800.823 9  21166689.093
  23057574.894    -6649026.053 6  -5048986.868 9  23057581.644
  20557275.550    -3254503.944 8  -2494329.910 9  20557277.917
  23663223.472     -518435.299 6   -361331.252 9  23663226.495
 94  3 17 19 54 29.9990000  0  8 16 29 31 18 27  2 19 28
  23922064.894    -1299369.317 5   -933543.243 9  23922069.476
  22796659.948     8196504.991 6   6353169.886 9  22796664.647
  22049201.073    -7613410.845 7  -5822215.089 9  22049204.038
  20684308.917     1899247.161 8   1501897.952 9  20684311.565
  21157101.612    -8963790.597 7  -6886048.001 9  21157104.331
  23041533.815    -6733319.402 6  -5114669.832 9  23041540.624
  20556508.675    -3258534.103 8  -2497470.289 9  20556510.960
  23670399.409     -480722.463 6   -331944.635 9  23670402.397
 94  3 17 19 54 59.9990000  0  8 16 29 31 18 27  2 19 28
  23912679.581    -1348690.573 5   -971975.350 9  23912684.597
  22813450.276     8284742.274 6   6421926.088 9  22813454.659
  22046027.604    -7630086.950 7  -5835209.405 9  22046030.593
  20694121.276     1950813.007 8   1542079.099 9  20694124.054
  21147561.558    -9013925.141 7  -6925113.849 9  21147564.312
  23025554.667    -6817294.343 6  -5180104.667 9  23025561.136
  20555791.870    -3262301.090 8  -2500405.603 9  20555793.956
  23677684.300     -442441.823 6   -302115.561 9  23677688.132
 94  3 17 19 55 29.9990000  0  8 16 29 31 18 27  2 19 28
  23903406.550    -1397418.903 5  -1009945.422 9  23903411.144
  22830309.034     8373331.626 6   6490956.636 9  22830313.358
  22042975.901    -7646125.320 7  -5847706.790 9  22042979.007
  20704031.159     2002889.075 8   1582657.817 9  20704033.866
  21138067.245    -9063816.418 7  -6963990.143 9  21138070.151
  23009633.120    -6900959.403 6  -5245298.053 9  23009639.589
  20555130.987    -3265774.682 8  -2503112.287 9  20555133.249
  23685081.253     -403570.816 6   -271826.478 9  23685084.569
 94  3 17 19 55 59.9990000  0  8 16 29 31 18 27  2 19 28
  23894242.487    -1445577.438 5  -1047471.530 9  23894247.386
  22847235.073     8462278.790 6   6560265.984 9  22847239.503
  22040047.808    -7661511.783 7  -5859696.187 9  22040050.913
  20714036.784     2055470.201 8   1623630.096 9  20714039.491
  21128617.792    -9113473.762 7  -7002684.144 9  21128620.733
  22993769.214    -6984325.971 6  -5310258.856 9  22993775.917
  20554525.401    -3268957.280 8  -2505592.232 9  20554527.722
  23692590.183     -364106.868 6   -241075.363 9  23692593.663
 94  3 17 19 56 29.9990000  0  8 16 29 31 18 27  2 19 28
  23885181.995    -1493190.067 5  -1084572.265 9  23885186.601
  22864228.753     8551579.013 6   6629850.443 9  22864233.358
  22037245.159    -7676238.032 7  -5871171.126 9  22037248.112
  20724141.683     2108570.292 8   1665006.771 9  20724144.390
  21119215.769    -9162881.865 7  -7041183.925 9  21119218.405
  22977963.237    -7067383.995 6  -5374979.226 9  22977969.683
  20553971.995    -3271862.554 8  -2507856.075 9  20553974.151
  23700215.675     -324035.934 6   -209851.268 9  23700218.780
 94  3 17 19 56 59.9990000  0  8 16 29 31 18 27  2 19 28
  23876224.394    -1540260.596 5  -1121250.569 9  23876229.374
  22881290.245     8641238.573 6   6699714.903 9  22881294.921
  22034564.886    -7690321.927 7  -5882145.532 9  22034567.792
  20734343.956     2162183.618 7   1706783.373 9  20734346.851
  21109859.167    -9212050.678 7  -7079497.253 9  21109861.991
  22962215.761    -7150135.224 6  -5439460.548 9  22962222.101
  20553470.753    -3274500.125 8  -2509911.318 9  20553473.097
  23707955.667     -283363.703 6   -178158.624 9  23707959.065
 94  3 17 19 57 29.9990000  0  8 16 29 31 18 27  2 19 28
  23867369.894    -1586792.532 5  -1157509.176 9  23867375.073
  22898420.776     8731258.786 6   6769860.405 9  22898425.241
  22032012.729    -7703735.288 7  -5892597.444 9  22032015.800
  20744646.737     2216325.368 8   1748971.718 9  20744649.515
  21100548.292    -9260978.783 7  -7117623.009 9  21100550.870
  22946529.815    -7232567.620 6  -5503693.434 9  22946535.054
  20553018.714    -3276873.154 8  -2511760.424 9  20553021.093
  23715810.190     -242087.764 6   -145995.548 9  23715813.894
 94  3 17 19 57 59.9990000  0  8 16 29 31 18 27  2 19 28
  23858618.362    -1632782.990 5  -1193345.880 9  23858623.378
  22915614.698     8821610.206 6   6840263.947 9  22915619.198
  22029587.948    -7716477.939 7  -5902526.727 9  22029590.796
  20755049.651     2270993.113 8   1791569.941 9  20755052.112
  21091285.628    -9309656.242 7  -7155553.460 9  21091288.358
  22930904.769    -7314675.732 6  -5567673.621 9  22930910.464
  20552614.479    -3278997.612 8  -2513415.833 9  20552616.765
  23723776.854     -200221.648 5   -113372.605 9  23723780.394
 94  3 17 19 58 29.9990000  0  8 16 29 31 18 27  2 19 28
  23849975.776    -1678203.441 5  -1228738.409 9  23849980.757
  22932869.042     8912281.404 6   6910916.707 9  22932873.577
  22027288.581    -7728559.698 7  -5911941.026 9  22027291.581
  20765555.214     2326196.955 8   1834585.902 9  20765557.522
  21082072.659    -9358069.782 7  -7193278.259 9  21082075.519
  22915343.706    -7396449.751 6  -5631393.480 9  22915350.917
  20552260.464    -3280857.418 8  -2514865.015 9  20552262.937
  23731852.964     -157785.001 6    -80305.092 9  23731856.655
 94  3 17 19 58 59.9990000  0  8 16 29 31 18 27  2 19 28
  23841445.136    -1723032.339 5  -1263670.011 9  23841449.870
  22950179.386     9003250.202 6   6981801.338 9  22950184.073
  22025113.901    -7739986.034 7  -5920844.615 9  22025116.702
  20776159.198     2381921.547 8   1878007.639 9  20776161.683
  21072905.394    -9406243.143 7  -7230815.914 9  21072908.229
  22899843.472    -7477902.686 6  -5694863.143 9  22899849.823
  20551955.753    -3282456.763 7  -2516111.241 9  20551958.308
  23740031.745     -114803.734 6    -46813.197 9  23740034.839
 94  3 17 19 59 29.9990000  0  8 16 29 31 18 27  2 19 28
  23833031.089    -1767239.167 5  -1298116.867 9  23833036.456
  22967546.854     9094517.489 6   7052918.559 9  22967552.151
  22023068.519    -7750736.211 7  -5929221.323 9  22023071.108
  20786865.144     2438183.268 8   1921847.922 9  20786867.804
  21063785.347    -9454168.386 7  -7268160.228 9  21063788.476
  22884406.542    -7559024.695 6  -5758074.963 9  22884412.929
  20551705.440    -3283774.179 8  -2517137.781 9  20551707.925
  23748316.714      -71265.358 6    -12887.187 9  23748319.843
 94  3 17 19 59 59.9990000  0  8 16 29 31 18 27  2 19 28
  23824738.058    -1810821.016 5  -1332076.730 9  23824742.921
  22984973.909     9186097.864 6   7124279.745 9  22984979.394
  22021147.917    -7760827.897 7  -5937084.926 9  22021150.284
  20797673.604     2494982.806 8   1966107.279 9  20797676.604
  21054714.065    -9501839.250 7  -7305306.323 9  21054716.901
  22869032.409    -7639815.670 6  -5821028.814 9  22869039.042
  20551511.136    -3284794.711 8  -2517932.984 9  20551513.714
  23756709.714      -27164.374 6     21477.195 9  23756713.065
 94  3 17 20  0 29.9990000  0  8 16 29 31 18 27  2 19 28
  23816562.104    -1853787.690 5  -1365557.234 9  23816566.300
  23002466.136     9278015.738 6   7195903.899 9  23002470.964
  22019352.925    -7770262.925 7  -5944436.872 9  22019355.491
  20808585.511     2552324.265 8   2010788.902 9  20808588.452
  21045688.573    -9549268.977 7  -7342264.517 9  21045691.632
  22853723.245    -7720265.917 6  -5883717.184 9  22853730.077
  20551375.175    -3285510.944 8  -2518491.080 9  20551377.741
  23765210.706       17512.471 6     56290.305 9  23765214.081
 94  3 17 20  0 59.9990000  0  8 16 29 31 18 27  2 19 28
  23808501.519    -1896149.324 5  -1398566.267 9  23808506.651
  23020026.987     9370297.702 6   7267811.765 9  23020031.405
  22017684.628    -7779028.680 7  -5951267.291 9  22017687.265
  20819603.097     2610221.868 7   2055903.904 9  20819605.815
  21036708.394    -9596460.215 7  -7379036.881 9  21036711.194
  22838480.300    -7800365.999 6  -5946132.704 9  22838486.780
  20551296.862    -3285920.905 8  -2518810.513 9  20551299.171
  23773827.753       62795.060 6     91575.440 9  23773830.823
 94  3 17 20  1 29.9990000  0  8 16 29 31 18 27  2 19 28
  23800550.128    -1937932.248 5  -1431124.390 9  23800555.319
  23037661.550     9462964.997 6   7340019.891 9  23037665.733
  22016142.308    -7787132.208 7  -5957581.691 9  22016145.167
  20830726.597     2668676.396 8   2101452.867 9  20830729.374
  21027776.495    -9643396.960 7  -7415610.937 9  21027779.354
  22823305.636    -7880111.422 6  -6008271.858 9  22823311.003
  20551279.331    -3286014.556 8  -2518883.482 9  20551281.757
  23782560.901      108686.160 6    127334.714 9  23782563.937
 94  3 17 20  1 59.9990000  0  8 16 29 31 18 27  2 19 28
  23792706.800    -1979150.275 5  -1463242.323 9  23792711.335
  23055367.472     9556017.135 6   7412527.903 9  23055371.925
  22014728.675    -7794561.357 7  -5963370.611 9  22014731.300
  20841956.269     2727688.582 7   2147436.368 9  20841958.905
  21018894.659    -9690072.249 7  -7451981.256 9  21018897.366
  22808199.636    -7959491.196 6  -6070126.091 9  22808204.769
  20551320.987    -3285795.222 8  -2518712.563 9  20551323.354
  23791406.667      155174.810 6    163559.606 9  23791410.358
 94  3 17 20  2 29.9990000  0  8 16 29 31 18 27  2 19 28
  23784972.948    -2019788.670 5  -1494908.598 9  23784977.765
  23073146.776     9649443.245 6   7485327.287 9  23073152.507
  22013445.831    -7801303.441 7  -5968624.151 9  22013448.374
  20853289.776     2787246.778 8   2193845.323 9  20853292.296
  21010063.831    -9736477.954 7  -7488141.511 9  21010066.339
  22793163.761    -8038505.758 6  -6131695.752 9  22793169.327
  20551422.862    -3285259.828 8  -2518295.350 9  20551425.206
  23800366.956      202261.213 6    200250.291 9  23800370.519
 94  3 17 20  2 59.9990000  0  8 16 29 31 18 27  2 19 28
  23777352.034    -2059840.367 5  -1526117.681 9  23777358.128
  23090990.987     9743213.049 6   7558394.499 9  23090996.448
  22012292.706    -7807364.699 7  -5973347.183 9  22012295.472
  20864723.026     2847328.953 7   2240662.570 9  20864725.769
  21001286.839    -9782600.202 7  -7524080.897 9  21001289.546
  22778194.198    -8117170.706 6  -6192992.977 9  22778199.894
  20551583.198    -3284417.238 8  -2517638.770 9  20551585.577
  23809439.144      249935.553 5    237399.096 9  23809442.319
 94  3 17 20  3 29.9990000  0  8 16 29 31 18 27  2 19 28
  23769845.597    -2099287.625 5  -1556855.788 9  23769851.726
  23108895.784     9837307.042 6   7631714.341 9  23108900.319
  22011270.480    -7812735.588 7  -5977532.265 9  22011273.409
  20876252.183     2907915.312 8   2287872.698 9  20876255.030
  20992565.815    -9828430.563 7  -7559792.836 9  20992568.440
  22763290.245    -8195489.649 6  -6254020.598 9  22763295.589
  20551801.198    -3283270.976 8  -2516745.555 9  20551803.718
  23818622.284      298197.782 5    275006.006 9  23818625.741
 94  3 17 20  3 59.9990000  0  8 16 29 31 18 27  2 19 28
  23762457.354    -2138112.698 5  -1587109.100 9  23762462.077
  23126859.269     9931703.581 6   7705269.915 9  23126864.976
  22010381.276    -7817407.551 7  -5981172.744 9  22010384.147
  20887875.550     2968994.017 8   2335466.460 9  20887878.327
  20983899.370    -9873972.122 7  -7595279.737 9  20983902.101
  22748450.776    -8273470.008 6  -6314784.381 9  22748456.355
  20552076.136    -3281826.398 8  -2515619.891 9  20552078.749
  23827921.472      347062.185 5    313082.137 9  23827925.011
 94  3 17 20  4 29.9990000  0  8 16 29 31 18 27  2 19 28
  23755188.073    -2176313.471 5  -1616875.916 9  23755192.855
  23144880.987    10026403.227 6   7779061.682 9  23144885.440
  22009621.909    -7821398.780 7  -5984282.778 9  22009624.604
  20899588.815     3030549.541 8   2383431.767 9  20899591.605
  20975286.589    -9919233.039 7  -7630547.957 9  20975289.073
  22733672.870    -8351131.055 6  -6375299.350 9  22733678.015
  20552407.042    -3280088.091 8  -2514265.351 9  20552409.515
  23837335.862      396533.808 5    351631.438 9  23837339.870
 94  3 17 20  4 59.9990000  0  8 16 29 31 18 27  2 19 28
  23748034.550    -2213899.129 5  -1646163.414 9  23748039.964
  23162960.401    10121414.316 6   7853096.141 9  23162965.675
  22008991.972    -7824711.581 7  -5986864.167 9  22008994.585
  20911394.800     3092589.403 8   2431774.489 9  20911397.694
  20966723.229    -9964233.624 7  -7665613.318 9  20966725.878
  22718953.386    -8428478.604 6  -6435570.035 9  22718958.659
  20552792.636    -3278060.065 8  -2512685.059 9  20552795.296
  23846861.261      446592.990 5    390638.588 9  23846865.550
 94  3 17 20  5 29.9990000  0  8 16 29 31 18 27  2 19 28
  23741004.331    -2250843.441 5  -1674951.171 9  23741009.921
  23181107.683    10216779.544 5   7927406.541 9  23181113.073
  22008496.331    -7827313.106 7  -5988891.311 9  22008499.062
  20923301.425     3155159.941 7   2480530.723 9  20923304.296
  20958213.956   -10008950.598 7  -7700457.693 9  20958216.604
  22704301.339    -8505477.146 6  -6495568.768 9  22704306.729
  20553239.347    -3275713.102 8  -2510856.248 9  20553241.772
  23856502.206      497253.723 5    430114.462 9  23856506.378
 94  3 17 20  5 59.9990000  0  8 16 29 31 18 27  2 19 28
  23734093.167    -2287165.575 5  -1703254.120 9  23734098.640
  23199321.112    10312492.158 5   8001987.626 9  23199326.597
  22008133.651    -7829219.388 7  -5990376.714 9  22008136.394
  20935309.081     3218259.892 7   2529699.473 9  20935312.046
  20949754.886   -10053401.959 7  -7735095.087 9  20949757.440
  22689713.190    -8582136.442 6  -6555303.164 9  22689718.745
  20553743.409    -3273063.466 8  -2508791.586 9  20553745.812
  23866250.862      548484.930 6    470034.868 9  23866254.788
 94  3 17 20  6 29.9990000  0  8 16 29 31 18 27  2 19 28
  23727301.604    -2322853.211 5  -1731062.666 9  23727306.409
  23217604.550    10408571.784 5   8076854.699 9  23217610.468
  22007906.073    -7830414.507 7  -5991307.965 9  22007908.815
  20947420.354     3281905.470 7   2579293.403 9  20947423.073
  20941347.659   -10097582.224 7  -7769521.245 9  20941350.413
  22675194.675    -8658428.753 6  -6614751.597 9  22675200.101
  20554305.894    -3270107.323 8  -2506488.094 9  20554308.483
  23876107.995      600282.045 6    510396.243 9  23876111.886
 94  3 17 20  6 59.9990000  0  8 16 29 31 18 27  2 19 28
  23720629.667    -2357917.002 5  -1758385.089 9  23720633.921
  23235954.019    10504996.010 5   8151990.300 9  23235959.046
  22007813.565    -7830899.265 7  -5991685.689 9  22007816.507
  20959634.784     3346092.157 7   2629308.974 9  20959637.456
  20932991.456   -10141493.678 7  -7803737.940 9  20932994.093
  22660748.401    -8734346.623 6  -6673908.256 9  22660753.593
  20554924.347    -3266859.901 8  -2503957.626 9  20554926.503
  23886069.511      652630.229 6    551187.001 9  23886073.015
 94  3 17 20  7 29.9990000  0  8 16 29 31 18 27  2 19 28
  23714072.722    -2392367.166 5  -1785229.354 9  23714078.827
  23254364.776    10601747.934 5   8227381.234 9  23254369.944
  22007856.058    -7830680.293 7  -5991515.045 9  22007858.976
  20971949.706     3410807.763 7   2679736.682 9  20971952.343
  20924687.417   -10185132.163 7  -7837741.927 9  20924690.007
  22646374.706    -8809880.872 6  -6732765.982 9  22646379.933
  20555594.456    -3263336.650 8  -2501212.225 9  20555596.847
  23896136.417      705532.697 6    592409.698 9  23896139.581
 94  3 17 20  7 59.9990000  0  8 16 29 31 18 27  2 19 28
  23707634.245    -2426207.365 5  -1811598.337 9  23707639.519
  23272838.542    10698820.935 5   8303022.337 9  23272843.745
  22008030.675    -7829759.345 7  -5990797.416 9  22008033.417
  20984362.761     3476038.782 7   2730566.006 9  20984365.386
  20916433.479   -10228506.624 7  -7871540.185 9  20916436.046
  22632073.081    -8885035.033 6  -6791327.556 9  22632078.624
  20556317.737    -3259537.415 8  -2498251.771 9  20556320.022
  23906311.800      759002.475 5    634074.439 9  23906314.835
 94  3 17 20  8 29.9990000  0  8 16 29 31 18 27  2 19 28
  23701311.253    -2459431.512 5  -1837487.280 9  23701317.112
  23291370.651    10796209.897 5   8378909.669 9  23291377.249
  22008338.714    -7828140.299 7  -5989535.800 9  22008341.374
  20996874.878     3541790.075 7   2781800.753 9  20996877.620
  20908230.175   -10271617.576 7  -7905133.107 9  20908232.577
  22617844.011    -8959810.662 6  -6849594.169 9  22617849.155
  20557096.159    -3255444.816 8  -2495062.725 9  20557098.479
  23916595.604      813046.538 5    676186.681 9  23916599.097
 94  3 17 20  8 59.9990000  0  8 16 29 31 18 27  2 19 28
  23695105.714    -2492044.257 5  -1862899.803 9  23695110.976
  23309960.737    10893902.855 5   8455033.888 9  23309967.854
  22008777.058    -7825839.590 7  -5987743.028 9  22008779.542
  21009486.112     3608062.115 7   2833441.280 9  21009489.112
  20900075.753   -10314467.229 7  -7938522.423 9  20900078.331
  22603682.620    -9034227.946 6  -6907581.542 9  22603687.976
  20557932.292    -3251052.039 8  -2491639.775 9  20557934.800
  23926984.854      867646.830 5    718732.340 9  23926989.015
 94  3 17 20  9 29.9990000  0  8 16 29 31 18 27  2 19 28
  23689019.300    -2524026.453 5  -1887821.004 9  23689023.858
  23328608.714    10991901.236 5   8531396.093 9  23328615.335
  22009344.464    -7822855.644 7  -5985417.861 9  22009347.065
  21022197.565     3674862.502 7   2885493.499 9  21022200.554
  20891970.769   -10357059.297 7  -7971711.022 9  20891973.534
  22589588.409    -9108293.939 6  -6965295.185 9  22589593.683
  20558829.370    -3246336.502 8  -2487965.333 9  20558831.772
  23937485.370      922819.411 5    761723.943 9  23937488.640
 94  3 17 20  9 59.9990000  0  8 16 29 31 18 27  2 19 28
  23683058.386    -2555356.024 5  -1912233.650 9  23683063.530
  23347315.042    11090198.621 6   8607991.266 9  23347321.804
  22010041.878    -7819192.057 7  -5982563.104 9  22010044.468
  21035009.019     3742186.869 7   2937954.005 9  21035011.878
  20883915.245   -10399391.543 7  -8004697.168 9  20883917.940
  22575558.253    -9182022.638 6  -7022746.000 9  22575563.245
  20559790.636    -3241285.227 8  -2484029.273 9  20559793.190
  23948094.729      978570.549 6    805166.396 9  23948097.202
 94  3 17 20 10 29.9990000  0  8 16 29 31 18 27  2 19 28
  23677219.659    -2586036.245 5  -1936140.319 9  23677225.085
  23366076.597    11188791.766 6   8684816.950 9  23366083.737
  22010864.284    -7814867.631 7  -5979193.411 9  22010867.214
  21047917.855     3810023.578 7   2990813.743 9  21047920.808
  20875908.808   -10441464.966 7  -8037481.633 9  20875911.562
  22561591.065    -9255419.216 6  -7079938.025 9  22561596.128
  20560814.855    -3235902.441 8  -2479834.902 9  20560817.456
  23958809.565     1034880.637 5    849044.349 9  23958813.163
 94  3 17 20 10 59.9990000  0  8 16 29 31 18 27  2 19 28
  23671501.644    -2616081.210 5  -1959551.965 9  23671506.858
  23384895.472    11287680.760 6   8761873.119 9  23384901.835
  22011813.386    -7809880.350 7  -5975307.209 9  22011816.175
  21060923.378     3878366.851 7   3044068.203 9  21060926.390
  20867953.862   -10483268.083 7  -8070055.466 9  20867956.628
  22547688.714    -9328478.419 6  -7136867.148 9  22547693.706
  20561899.597    -3230202.303 8  -2475393.233 9  20561902.245
  23969632.925     1091758.747 5    893364.942 9  23969637.226
 94  3 17 20 11 29.9990000  0  8 16 29 31 18 27  2 19 28
  23665901.737    -2645514.495 5  -1982486.960 9  23665906.741
  23403767.245    11386857.605 5   8839153.614 9  23403773.644
  22012888.081    -7804234.770 7  -5970908.042 9  22012890.917
  21074022.097     3947200.832 7   3097705.032 9  21074025.179
  20860049.511   -10524805.873 7  -8102422.555 9  20860052.159
  22533849.823    -9401202.368 6  -7193535.045 9  22533854.616
  20563038.979    -3224213.431 8  -2470726.585 9  20563041.839
  23980565.823     1149209.514 6    938131.735 9  23980569.456
 94  3 17 20 11 59.9990000  0  8 16 29 31 18 27  2 19 28
  23660413.987    -2674352.942 5  -2004958.472 9  23660418.593
  23422700.792    11486347.706 6   8916678.197 9  23422707.663
  22014089.917    -7797918.235 7  -5965986.066 9  22014093.011
  21087216.261     4016537.484 7   3151733.544 9  21087219.214
  20852199.565   -10566059.073 7  -8134567.880 9  20852202.190
  22520079.573    -9473563.533 6  -7249920.251 9  22520084.425
  20564234.792    -3217932.488 8  -2465832.335 9  20564237.230
  23991604.519     1207218.790 6    983333.755 9  23991607.894
 94  3 17 20 12 29.9990000  0  8 16 29 31 18 27  2 19 28
  23655032.534    -2702633.142 5  -2026994.969 9  23655037.116
  23441690.261    11586138.601 5   8994437.152 9  23441696.894
  22015420.253    -7790926.045 7  -5960537.590 9  22015422.913
  21100506.167     4086375.995 7   3206153.111 9  21100509.296
  20844399.714   -10607045.110 7  -8166505.026 9  20844402.315
  22506376.089    -9545571.225 6  -7306030.031 9  22506381.269
  20565482.128    -3211376.704 8  -2460723.930 9  20565484.847
  24002742.839     1265753.880 5   1028945.494 9  24002747.550
 94  3 17 20 12 59.9990000  0  8 16 29 31 18 27  2 19 28
  23649757.347    -2730351.469 5  -2048593.645 9  23649761.495
  23460734.386    11686218.035 5   9072420.947 9  23460740.702
  22016885.573    -7783227.947 7  -5954539.062 9  22016888.257
  21113893.206     4156724.368 7   3260969.976 9  21113896.476
  20836654.081   -10647749.733 7  -8198222.882 9  20836656.741
  22492743.503    -9617213.114 6  -7361854.766 9  22492748.835
  20566783.300    -3204539.844 8  -2455396.497 9  20566785.714
  24013985.042     1324828.939 5   1074977.974 9  24013989.378
 94  3 17 20 13 29.9990000  0  8 16 29 31 18 27  2 19 28
  23644590.925    -2757500.125 5  -2069748.415 9  23644596.362
  23479835.573    11786590.364 5   9150632.948 9  23479842.370
  22018484.315    -7774825.667 7  -5947991.828 9  22018487.011
  21127376.308     4227578.550 7   3316180.972 9  21127379.460
  20828961.026   -10688176.421 7  -8229724.165 9  20828963.757
  22479179.542    -9688493.769 6  -7417398.036 9  22479184.405
  20568140.698    -3197405.813 8  -2449837.502 9  20568143.136
  24025327.776     1384436.196 5   1121425.153 9  24025331.198
 94  3 17 20 13 59.9990000  0  8 16 29 31 18 27  2 19 28
  23639538.948    -2784051.642 5  -2090437.902 9  23639544.034
  23498992.550    11887264.455 5   9229080.103 9  23498997.437
  22020220.237    -7765702.530 7  -5940882.881 9  22020223.272
  21140956.612     4298943.292 7   3371789.813 9  21140959.858
  20821322.831   -10728316.805 7  -8261002.349 9  20821325.503
  22465684.112    -9759411.410 6  -7472658.413 9  22465688.929
  20569559.323    -3189950.143 8  -2444027.882 9  20569561.960
  24036773.776     1444587.913 5   1168296.606 9  24036777.538
 94  3 17 20 14 29.9990000  0  8 16 29 31 18 27  2 19 28
  23634602.776    -2809993.023 5  -2110651.952 9  23634608.167
  23518204.034    11988222.124 5   9307748.233 9  23518210.854
  22022091.159    -7755870.556 7  -5933221.598 9  22022094.089
  21154630.026     4370796.669 7   3427779.401 9  21154632.991
  20813740.925   -10768161.780 7  -8292050.351 9  20813743.315
  22452254.675    -9829980.773 6  -7527647.419 9  22452259.749
  20571036.784    -3182186.998 8  -2437978.670 9  20571039.245
  24048327.659     1505298.281 5   1215603.347 9  24048330.636
 94  3 17 20 14 59.9990000  0  8 16 29 31 18 27  2 19 28
  23629784.683    -2835314.145 6  -2130382.681 9  23629788.491
  23537471.362    12089466.987 5   9386640.127 9  23537477.315
  22024091.769    -7745358.446 7  -5925030.326 9  22024094.722
  21168393.683     4443124.158 7   3484138.430 9  21168396.753
  20806216.690   -10807699.466 7  -8322858.906 9  20806218.905
  22438893.042    -9900198.376 6  -7582362.322 9  22438897.847
  20572571.370    -3174121.466 8  -2431693.829 9  20572574.030
  24059987.698     1566575.940 5   1263352.118 9  24059992.292
 94  3 17 20 15 29.9990000  0  8 16 29 31 18 27  2 19 28
  23625087.620    -2859995.329 5  -2149614.762 9  23625092.589
  23556797.347    12191023.458 5   9465774.836 9  23556803.112
  22026220.284    -7734172.920 7  -5916314.318 9  22026223.190
  21182248.386     4515931.345 7   3540871.261 9  21182251.468
  20798749.894   -10846937.151 7  -8353433.693 9  20798752.319
  22425597.933    -9970063.315 6  -7636802.414 9  22425602.526
  20574161.386    -3165766.462 8  -2425183.422 9  20574164.105
  24071755.659     1628416.524 5   1311539.543 9  24071759.479
 94  3 17 20 15 59.9990000  0  7 16 29 31 18 27  2 19
  23620512.073    -2884042.128 5  -2168352.514 9  23620516.081
  23576177.347    12292871.857 5   9545137.036 9  23576182.925
  22028475.456    -7722322.519 7  -5907080.226 9  22028477.987
  21196191.159     4589201.884 7   3597965.147 9  21196193.972
  20791337.354   -10885892.594 7  -8383788.552 9  20791339.792
  22412370.026   -10039576.261 6  -7690968.235 9  22412375.007
  20575801.690    -3157147.380 8  -2418467.242 9  20575804.351
 94  3 17 20 16 29.9990000  0  7 16 29 31 18 27  2 19
  23616054.175    -2907466.634 6  -2186605.352 9  23616057.983
  23595613.104    12394998.976 5   9624716.422 9  23595619.562
  22030856.464    -7709811.691 7  -5897331.511 9  22030858.948
  21210220.972     4662926.640 7   3655412.961 9  21210223.866
  20783975.401   -10924579.774 7  -8413934.370 9  20783977.569
  22399210.534   -10108728.080 6  -7744852.661 9  22399215.632
  20577490.933    -3148269.545 8  -2411549.430 9  20577493.569
 94  3 17 20 16 59.9990000  0  7 16 29 31 18 27  2 19
  23611712.573    -2930279.259 5  -2204381.421 9  23611717.272
  23615098.636    12497400.057 5   9704509.283 9  23615104.905
  22033362.331    -7696640.827 7  -5887068.477 9  22033364.909
  21224336.878     4737108.024 7   3713216.589 9  21224339.925
  20776657.378   -10963033.580 7  -8443898.347 9  20776659.792
  22386119.917   -10177523.631 7  -7798459.473 9  22386124.335
  20579228.862    -3139135.028 7  -2404431.612 9  20579231.698
 94  3 17 20 17 29.9990000  0  7 16 29 31 18 27  2 19
  23607487.839    -2952480.651 5  -2221681.172 9  23607492.620
  23634636.354    12600072.089 5   9784513.272 9  23634643.448
  22035997.253    -7682795.555 7  -5876279.939 9  22035999.995
  21238543.472     4811762.591 7   3771388.932 9  21238546.530
  20769382.097   -11001267.016 8  -8473690.607 9  20769384.218
  22373097.792   -10245953.440 7  -7851781.299 9  22373101.929
  20581019.487    -3129728.222 8  -2397101.615 9  20581022.241
 94  3 17 20 17 59.9990000  0  7 16 29 31 18 27  2 19
  23603376.854    -2974090.031 5  -2238519.642 9  23603381.296
  23654222.253    12702993.412 5   9864711.511 9  23654229.651
  22038760.909    -7668272.773 7  -5864963.471 9  22038763.687
  21252840.683     4886895.503 7   3829934.011 9  21252843.659
  20762149.472   -11039276.485 8  -8503308.348 9  20762151.581
  22360143.284   -10314024.420 7  -7904823.517 9  22360147.819
  20582865.604    -3120025.717 7  -2389541.208 9  20582868.429
 94  3 17 20 18 29.9990000  0  7 16 29 31 18 27  2 19
  23599378.347    -2995099.305 5  -2254890.489 9  23599382.718
  23673853.597    12806158.774 5   9945099.889 9  23673861.405
  22041652.862    -7653074.163 7  -5853120.372 9  22041655.780
  21267232.042     4962522.381 7   3888863.997 9  21267234.948
  20754961.542   -11077049.849 8  -8532742.113 9  20754963.405
  22347258.511   -10381737.748 7  -7957587.045 9  22347263.081
  20584769.151    -3110022.914 8  -2381746.800 9  20584771.812
 94  3 17 20 18 59.9990000  0  7 16 29 31 18 27  2 19
  23595495.909    -3015498.941 5  -2270786.313 9  23595500.140
  23693535.401    12909582.175 5  10025689.341 9  23693542.730
  22044674.104    -7637198.622 7  -5840749.795 9  22044676.940
  21281721.644     5038662.650 8   3948194.020 9  21281724.608
  20747821.792   -11114567.578 7  -8561976.678 9  20747823.831
  22334440.870   -10449094.845 7  -8010072.994 9  22334445.605
  20586730.511    -3099715.728 8  -2373715.209 9  20586733.136
 94  3 17 20 19 29.9990000  0  7 16 29 31 18 27  2 19
  23591733.979    -3035268.939 5  -2286191.504 9  23591738.620
  23713265.831    13013267.243 5  10106482.700 9  23713273.991
  22047826.073    -7620631.275 7  -5827840.157 9  22047828.804
  21296309.222     5115320.391 7   4007927.270 9  21296312.245
  20740736.823   -11151798.806 8  -8590988.000 9  20740738.909
  22321693.550   -10516084.598 7  -8062272.716 9  22321698.003
  20588752.276    -3089090.664 8  -2365435.926 9  20588754.948
 94  3 17 20 19 59.9990000  0  7 16 29 31 18 27  2 19
  23588092.245    -3054401.976 5  -2301100.338 9  23588097.132
  23733046.292    13117213.352 5  10187479.457 9  23733053.538
  22051112.495    -7603364.382 7  -5814385.416 9  22051115.132
  21310990.190     5192471.756 7   4068045.170 9  21310993.319
  20733711.394   -11188717.600 8  -8619755.869 9  20733713.503
  22309015.081   -10582709.841 7  -8114188.399 9  22309019.382
  20590831.964    -3078162.984 8  -2356920.837 9  20590834.448
 94  3 17 20 20 29.9990000  0  7 16 29 31 18 27  2 19
  23584573.839    -3072895.600 5  -2315510.934 9  23584578.163
  23752878.558    13221434.248 5  10268690.327 9  23752886.015
  22054529.644    -7585408.844 7  -5800394.070 9  22054532.304
  21325762.792     5270099.511 7   4128534.278 9  21325765.909
  20726746.386   -11225318.789 7  -8648276.261 9  20726748.554
  22296408.323   -10648958.457 7  -8165810.607 9  22296412.601
  20592967.026    -3066943.029 8  -2348178.004 9  20592969.452
 94  3 17 20 20 59.9990000  0  7 16 29 31 18 27  2 19
  23581174.792    -3090757.605 5  -2329429.370 9  23581179.433
  23772767.058    13325946.980 5  10350128.596 9  23772775.604
  22058077.175    -7566763.943 7  -5785865.566 9  22058079.858
  21340620.269     5348178.862 7   4189375.275 9  21340623.304
  20719840.183   -11261611.772 8  -8676556.479 9  20719842.327
  22283871.323   -10714838.261 7  -8217145.432 9  22283875.741
  20595159.604    -3055422.236 8  -2339200.752 9  20595162.054
 94  3 17 20 21 29.9990000  0  7 16 29 31 18 27  2 19
  23577896.112    -3107986.440 5  -2342854.423 9  23577900.167
  23792709.503    13430745.906 5  10431789.887 9  23792718.413
  22061757.206    -7547424.676 7  -5770795.992 9  22061759.726
  21355561.659     5426695.270 7   4250556.846 9  21355564.694
  20712991.308   -11297602.766 8  -8704601.396 9  20712993.464
  22271403.769   -10780356.079 7  -8268198.193 9  22271408.397
  20597408.495    -3043603.313 8  -2329991.192 9  20597410.944
 94  3 17 20 21 59.9990000  0  7 16 29 31 18 27  2 19
  23574736.362    -3124592.771 5  -2355794.414 9  23574740.780
  23812708.370    13535840.031 5  10513681.184 9  23812715.733
  22065567.597    -7527401.441 7  -5755193.459 9  22065570.362
  21370586.464     5505650.988 7   4312080.720 9  21370589.616
  20706197.167   -11333304.285 8  -8732420.737 9  20706198.995
  22259005.300   -10845511.842 7  -8318968.834 9  22259009.378
  20599713.472    -3031488.969 8  -2320551.433 9  20599715.909
 94  3 17 20 22 29.9990000  0  7 16 29 31 18 27  2 19
  23571694.261    -3140577.650 5  -2368250.160 9  23571699.476
  23832765.589    13641231.871 5  10595804.472 9  23832773.069
  22069506.823    -7506702.217 7  -5739064.178 9  22069509.636
  21385697.386     5585058.715 7   4373956.797 9  21385700.667
  20699453.823   -11368743.062 8  -8760035.353 9  20699455.933
  22246673.511   -10910313.843 7  -8369463.812 9  22246677.847
  20602077.245    -3019069.912 8  -2310874.241 9  20602079.694
 94  3 17 20 22 59.9990000  0  7 16 29 31 18 27  2 19
  23568771.714    -3155940.415 6  -2380221.143 9  23568775.886
  23852870.979    13746892.956 5  10678137.575 9  23852878.683
  22073574.487    -7485325.173 7  -5722406.730 9  22073577.124
  21400895.433     5664924.352 7   4436189.696 9  21400898.667
  20692759.026   -11403925.396 8  -8787450.140 9  20692761.054
  22234406.261   -10974778.146 7  -8419695.663 9  22234410.679
  20604496.909    -3006351.192 8  -2300963.537 9  20604499.300
 94  3 17 20 23 29.9990000  0  7 16 29 31 18 27  2 19
  23565966.323    -3170680.998 5  -2391707.297 9  23565970.776
  23873028.472    13852815.172 5  10760674.105 9  23873036.327
  22077773.612    -7463258.205 7  -5705211.689 9  22077776.226
  21416186.073     5745278.332 7   4498803.124 9  21416189.331
  20686116.550   -11438830.729 8  -8814649.078 9  20686118.718
  22222207.769   -11038884.182 7  -8469648.336 9  22222212.222
  20606975.808    -2993325.547 8  -2290813.679 9  20606978.421
 94  3 17 20 23 59.9990000  0  7 16 29 31 18 27  2 19
  23563278.253    -3184805.808 5  -2402713.659 9  23563282.366
  23893233.394    13958993.545 5  10843410.256 9  23893241.155
  22082103.276    -7440507.029 7  -5687483.507 9  22082105.937
  21431572.565     5826134.853 7   4561808.142 9  21431575.987
  20679528.081   -11473453.716 8  -8841628.011 9  20679530.308
  22210079.753   -11102614.112 7  -8519307.941 9  22210084.194
  20609515.331    -2979981.298 8  -2280415.562 9  20609517.780
 94  3 17 20 24 29.9990000  0  7 16 29 31 18 27  2 19
  23560709.370    -3198303.382 5  -2413231.236 9  23560714.913
  23913485.511    14065424.285 5  10926343.064 9  23913493.858
  22086564.237    -7417064.510 7  -5669216.608 9  22086566.769
  21447056.925     5907505.868 7   4625214.058 9  21447060.382
  20672999.823   -11507757.263 8  -8868358.024 9  20673002.120
  22198024.979   -11165963.257 7  -8568670.833 9  22198029.620
  20612119.409    -2966295.572 8  -2269751.351 9  20612121.882
 94  3 17 20 24 59.9990000  0  7 16 29 31 18 27  2 19
  23558261.206    -3211170.831 5  -2423257.847 9  23558266.280
  23933785.651    14172101.420 5  11009467.876 9  23933795.147
  22091157.573    -7392920.729 7  -5650403.273 9  22091160.456
  21462637.745     5989382.884 7   4689014.270 9  21462640.944
  20666536.925   -11541721.330 8  -8894823.502 9  20666539.022
  22186045.214   -11228919.664 7  -8617727.699 9  22186049.269
  20614791.339    -2952257.278 8  -2258812.424 9  20614793.976
 94  3 17 20 25 29.9990000  0  7 16 29 31 18 27  2 19
  23555931.042    -3223417.096 5  -2432800.391 9  23555935.905
  23954132.362    14279025.703 4  11092785.283 8  23954140.839
  22095884.167    -7368086.390 7  -5631051.831 9  22095887.085
  21478310.854     6071746.924 7   4753193.976 9  21478314.077
  20660137.214   -11575351.367 8  -8921028.701 9  20660139.476
  22174139.823   -11291479.120 7  -8666475.259 9  22174143.831
  20617527.472    -2937877.299 8  -2247607.238 9  20617529.886
 94  3 17 20 25 59.9990000  0  7 16 29 31 18 27  2 19
  23553722.901    -3235022.827 5  -2441843.840 9  23553727.554
  23974528.261    14386201.218 5  11176298.392 8  23974535.319
  22100741.722    -7342558.180 7  -5611159.707 9  22100744.733
  21494075.354     6154586.322 7   4817744.112 9  21494078.507
  20653802.222   -11608643.141 8  -8946970.319 9  20653804.179
  22162311.026   -11353641.535 7  -8714913.429 9  22162315.222
  20620330.378    -2923149.452 8  -2236130.991 9  20620332.663
 94  3 17 20 26 29.9990000  0  7 16 29 31 18 27  2 19
  23551637.464    -3245979.694 5  -2450381.649 9  23551641.976
  23994971.347    14493627.840 4  11260007.236 8  23994980.245
  22105732.495    -7316334.413 7  -5590725.598 9  22105735.460
  21509925.855     6237883.448 7   4882650.931 9  21509928.901
  20647529.042   -11641609.529 8  -8972658.389 9  20647530.952
  22150555.284   -11415415.352 7  -8763048.786 9  22150559.269
  20623198.339    -2908076.955 8  -2224386.187 9  20623200.659
 94  3 17 20 26 59.9990000  0  6 16 31 18 27  2 19
  23549676.519    -3256279.028 5  -2458407.109 9  23549681.476
  22110856.722    -7289406.426 7  -5569742.749 9  22110859.511
  21525865.128     6321641.586 7   4947916.972 9  21525868.175
  20641311.308   -11674283.358 8  -8998118.491 9  20641313.405
  22138876.956   -11476786.576 7  -8810870.444 9  22138880.905
  20626127.573    -2892683.346 8  -2212391.163 9  20626129.976
 94  3 17 20 27 29.9990000  0  6 16 31 18 27  2 19
  23547837.112    -3265946.552 5  -2465940.248 9  23547842.315
  22116110.300    -7261798.155 7  -5548229.799 9  22116112.937
  21541892.128     6405863.558 7   5013544.458 9  21541895.081
  20635146.464   -11706680.785 8  -9023363.219 9  20635148.374
  22127272.534   -11537766.753 7  -8858387.384 9  22127276.788
  20629113.612    -2876991.729 8  -2200163.928 9  20629116.085
 94  3 17 20 27 59.9990000  0  6 16 31 18 27  2 19
  23546117.995    -3274982.416 5  -2472981.186 9  23546123.245
  22121492.628    -7233515.107 7  -5526191.052 9  22121494.995
  21558008.136     6490554.174 7   5079537.112 9  21558011.124
  20629033.448   -11738804.013 8  -9048394.278 9  20629035.476
  22115742.347   -11598357.597 7  -8905600.949 9  22115746.530
  20632158.690    -2860989.250 8  -2187694.458 9  20632161.210
 94  3 17 20 28 29.9990000  0  6 16 31 18 27  2 19
  23544519.245    -3283384.804 5  -2479528.517 9  23544523.522
  22127004.214    -7204548.130 7  -5503619.368 9  22127006.944
  21574214.870     6575721.712 7   5145901.362 9  21574217.987
  20622973.675   -11770647.317 8  -9073207.227 9  20622975.749
  22104290.073   -11658542.908 7  -8952498.509 9  22104294.093
  20635261.448    -2844683.684 8  -2174988.818 9  20635264.015
 94  3 17 20 28 59.9990000  0  6 16 31 18 27  2 19
  23543040.964    -3291154.551 5  -2485582.872 9  23543046.167
  22132647.894    -7174892.926 7  -5480511.406 9  22132650.507
  21590513.519     6661368.719 7   5212639.222 9  21590516.437
  20616972.683   -11802183.506 8  -9097780.852 9  20616974.558
  22092914.565   -11718318.744 7  -8999077.006 9  22092918.667
  20638422.097    -2828074.291 8  -2162046.433 9  20638424.640
 94  3 17 20 29 29.9990000  0  6 16 31 18 27  2 19
  23541683.214    -3298290.203 5  -2491143.125 9  23541687.632
  22138420.956    -7144556.693 7  -5456872.775 9  22138423.347
  21606898.776     6747476.893 7   5279736.430 9  21606901.858
  20611033.206   -11833395.142 8  -9122101.584 9  20611035.386
  22081614.144   -11777702.396 7  -9045349.899 9  22081618.515
  20641644.394    -2811140.808 8  -2148851.510 9  20641647.077
 94  3 17 20 29 59.9990000  0  6 16 31 18 27  2 19
  23540450.190    -3304770.301 5  -2496192.573 9  23540455.323
  22144325.769    -7113524.600 7  -5432691.933 9  22144328.101
  21623368.870     6834028.561 7   5347179.225 9  21623371.870
  20605156.065   -11864279.951 8  -9146167.647 9  20605158.105
  22070386.636   -11836703.129 7  -9091324.411 9  22070390.901
  20644927.237    -2793888.816 8  -2135408.395 9  20644929.839
 94  3 17 20 30 29.9990000  0  6 16 31 18 27  2 19
  23539341.050    -3310597.457 5  -2500733.210 9  23539345.761
  22150365.933    -7081783.412 7  -5407958.545 9  22150368.253
  21639923.534     6921023.400 7   5414967.359 9  21639926.569
  20599341.433   -11894835.034 8  -9169976.781 9  20599343.554
  22059230.230   -11895331.413 7  -9137008.703 9  22059234.272
  20648267.948    -2776333.088 8  -2121728.609 9  20648270.573
 94  3 17 20 30 59.9990000  0  6 16 31 18 27  2 19
  23538353.933    -3315783.237 5  -2504774.090 9  23538359.476
  22156537.784    -7049349.591 7  -5382685.433 9  22156540.233
  21656561.464     7008455.742 7   5483096.384 9  21656564.522
  20593588.503   -11925069.236 8  -9193535.880 9  20593590.378
  22048139.917   -11953612.131 7  -9182422.172 9  22048143.737
  20651667.276    -2758468.935 8  -2107808.490 9  20651669.878
 94  3 17 20 31 29.9990000  0  6 16 31 18 27  2 19
  23537487.550    -3320339.583 5  -2508324.496 9  23537491.804
  22162840.479    -7016225.510 7  -5356874.464 9  22162843.433
  21673281.792     7096321.791 7   5551563.369 9  21673285.026
  20587890.542   -11955008.061 8  -9216864.811 9  20587892.440
  22037114.433   -12011551.556 7  -9227569.688 9  22037118.065
  20655122.855    -2740312.109 8  -2093660.307 9  20655125.351
 94  3 17 20 31 59.9990000  0  6 16 31 18 27  2 19
  23536734.284    -3324292.765 5  -2511404.922 9  23536738.585
  22169274.448    -6982417.307 7  -5330530.412 9  22169277.366
  21690085.847     7184625.352 7   5620371.280 9  21690088.800
  20582249.573   -11984653.831 8  -9239965.395 9  20582251.554
  22026155.284   -12069139.319 7  -9272443.180 9  22026159.479
  20658630.417    -2721878.834 8  -2079296.714 9  20658632.901
 94  3 17 20 32 29.9990000  0  6 16 31 18 27  2 19
  23536091.198    -3327669.306 5  -2514035.999 9  23536096.636
  22175833.456    -6947948.161 7  -5303671.337 9  22175836.386
  21706971.214     7273359.631 7   5689514.811 9  21706974.296
  20576661.800   -12014017.780 8  -9262846.377 9  20576663.687
  22015264.347   -12126370.434 7  -9317038.771 9  22015268.483
  20662191.792    -2703164.885 8  -2064714.416 9  20662194.077
 94  3 17 20 32 59.9990000  0  6 16 31 18 27  2 19
  23535558.222    -3330472.049 5  -2516219.975 9  23535563.448
  22182515.448    -6912835.740 7  -5276311.004 9  22182518.249
  21723935.253     7362504.720 7   5758978.467 9  21723938.604
  20571125.980   -12043109.426 8  -9285515.185 9  20571127.854
  22004441.425   -12183246.003 7  -9361357.305 9  22004445.339
  20665805.800    -2684174.008 8  -2049916.334 9  20665808.284
 94  3 17 20 33 29.9990000  0  6 16 31 18 27  2 19
  23535133.308    -3332711.332 5  -2517964.918 9  23535136.624
  22189315.854    -6877097.978 7  -5248463.397 9  22189318.491
  21740973.745     7452043.555 7   5828748.926 9  21740977.237
  20565640.448   -12071936.758 8  -9307978.030 9  20565642.405
  21993685.722   -12239768.311 7  -9405400.582 9  21993689.729
  20669470.214    -2664915.845 8  -2034909.976 9  20669472.804
 94  3 17 20 33 59.9990000  0  6 16 31 18 27  2 19
  23534815.425    -3334378.648 5  -2519264.122 9  23534819.562
  22196234.862    -6840742.402 7  -5220134.375 9  22196237.440
  21758089.487     7541984.508 7   5898832.710 9  21758092.839
  20560206.269   -12100492.875 8  -9330229.545 9  20560208.284
  21982998.214   -12295927.746 7  -9449161.107 9  21983001.940
  20673189.839    -2645367.421 7  -2019677.448 9  20673192.440
 94  3 17 20 34 29.9990000  0  6 16 31 18 27  2 19
  23534610.628    -3335459.512 5  -2520106.354 9  23534615.515
  22203268.011    -6803781.494 7  -5191333.668 9  22203270.319
  21775277.933     7632312.647 7   5969218.193 9  21775281.343
  20554821.534   -12128788.295 8  -9352277.918 9  20554823.573
  21972379.737   -12351731.120 7  -9492644.172 9  21972383.546
  20676963.901    -2625534.788 7  -2004223.455 9  20676966.831
 94  3 17 20 34 59.9990000  0  6 16 31 18 27  2 19
  23534517.378    -3335947.418 5  -2520486.560 9  23534522.300
  22210418.784    -6766204.655 7  -5162053.011 9  22210421.374
  21792541.487     7723034.793 7   6039910.724 9  21792544.933
  20549486.933   -12156821.830 8  -9374122.225 9  20549489.019
  21961829.456   -12407172.035 7  -9535844.815 9  21961833.206
  20680795.440    -2605401.042 8  -1988534.835 9  20680798.405
 94  3 17 20 35 29.9990000  0  6 16 31 18 27  2 19
  23534537.183    -3335847.314 5  -2520408.587 9  23534541.905
  22217688.409    -6728004.881 7  -5132286.940 9  22217690.894
  21809884.784     7814173.774 7   6110928.049 9  21809888.358
  20544203.339   -12184588.130 8  -9395758.291 9  20544205.272
  21951349.745   -12462243.810 7  -9578757.813 9  21951353.706
  20684688.245    -2584944.182 7  -1972594.436 9  20684691.011
 94  3 17 20 35 59.9990000  0  6 16 31 18 27  2 19
  23534667.862    -3335154.231 5  -2519868.550 9  23534671.905
  22225077.589    -6689170.806 7  -5102026.616 9  22225079.921
  21827306.940     7905729.084 7   6182269.784 9  21827310.362
  20538972.042   -12212078.413 8  -9417179.278 9  20538974.151
  21940942.206   -12516935.758 7  -9621374.843 9  21940946.483
  20688641.987    -2564165.631 7  -1956403.371 9  20688644.729
 94  3 17 20 36 29.9990000  0  6 16 31 18 27  2 19
  23534912.104    -3333871.886 5  -2518869.343 9  23534916.464
  22232590.761    -6649688.877 7  -5071261.464 9  22232593.257
  21844806.315     7997688.076 7   6253926.075 9  21844809.890
  20533796.683   -12239275.230 8  -9438371.587 9  20533798.558
  21930604.464   -12571260.009 7  -9663705.362 9  21930608.331
  20692656.558    -2543069.013 7  -1939964.450 9  20692659.312
 94  3 17 20 36 59.9990000  0  6 16 31 18 27  2 19
  23535266.112    -3332009.132 5  -2517417.877 9  23535271.058
  22240227.698    -6609556.588 7  -5039989.543 9  22240230.218
  21862383.565     8090054.711 7   6325900.011 9  21862386.976
  20528679.409   -12266166.643 8  -9459325.916 9  20528681.483
  21920333.300   -12625234.550 7  -9705763.377 9  21920337.354
  20696731.901    -2521656.061 8  -1923279.038 9  20696734.444
 94  3 17 20 37 29.9990000  0  6 16 31 18 27  2 19
  23535731.425    -3329564.884 5  -2515513.267 9  23535736.124
  22247986.448    -6568784.128 7  -5008218.784 9  22247988.722
  21880035.050     8182814.586 7   6398180.374 9  21880038.308
  20523622.753   -12292739.701 8  -9480032.177 9  20523624.593
  21910125.479   -12678877.850 7  -9747563.286 9  21910129.347
  20700860.190    -2499961.597 8  -1906374.257 9  20700862.628
 94  3 17 20 37 59.9990000  0  6 16 31 18 27  2 19
  23536312.550    -3326511.115 5  -2513133.755 9  23536316.710
  22255871.815    -6527346.583 7  -4975929.784 9  22255874.229
  21897759.487     8275955.989 7   6470758.031 9  21897763.003
  20518628.964   -12318980.579 7  -9500479.591 9  20518630.968
  21899984.886   -12732166.497 7  -9789086.847 9  21899988.507
  20705040.479    -2477991.162 8  -1889254.426 9  20705043.280
 94  3 17 20 38 29.9990000  0  6 16 31 18 27  2 19
  23537007.933    -3322856.149 5  -2510285.739 9  23537012.573
  22263881.479    -6485253.741 7  -4943130.157 9  22263883.847
  21915554.894     8369471.855 7   6543627.468 9  21915558.362
  20513694.667   -12344913.646 8  -9520687.152 9  20513696.565
  21889907.878   -12785121.067 7  -9830350.085 9  21889911.698
  20709273.933    -2455744.944 8  -1871919.702 9  20709276.745
 94  3 17 20 38 59.9990000  0  6 16 31 18 27  2 19
  23537818.917    -3318598.010 5  -2506967.721 9  23537823.534
  22272014.019    -6442516.574 7  -4909828.450 9  22272016.503
  21933422.237     8463362.992 7   6616789.310 9  21933425.917
  20508812.433   -12370568.890 8  -9540678.228 9  20508814.472
  21879894.917   -12837738.128 7  -9871350.320 9  21879898.843
  20713558.722    -2433228.383 8  -1854374.314 9  20713561.323
 94  3 17 20 39 29.9990000  0  6 16 31 18 27  2 19
  23538742.737    -3313740.293 5  -2503182.493 9  23538747.788
  22280269.120    -6399138.628 7  -4876027.442 9  22280271.710
  21951358.120     8557617.499 7   6690234.305 9  21951361.823
  20503977.026   -12395977.681 8  -9560477.266 9  20503978.831
  21869948.800   -12890006.432 7  -9912078.814 9  21869952.585
  20717894.901    -2410441.374 8  -1836618.192 9  20717897.456
 94  3 17 20 39 59.9990000  0  6 16 31 18 27  2 19
  23539778.729    -3308295.714 5  -2498939.985 9  23539783.651
  22288641.784    -6355138.350 7  -4841741.504 9  22288644.468
  21969361.284     8652224.509 7   6763953.977 9  21969364.894
  20499184.542   -12421160.779 7  -9580100.433 9  20499186.780
  21860066.644   -12941936.264 7  -9952543.553 9  21860070.675
  20722283.159    -2387380.929 8  -1818649.004 9  20722285.843
 94  3 17 20 40 29.9990000  0  6 16 31 18 27  2 19
  23540928.355    -3302259.150 5  -2494236.188 9  23540932.772
  22297129.956    -6310534.689 7  -4806985.390 9  22297132.417
  21987433.347     8747197.055 7   6837958.488 9  21987437.226
  20494440.886   -12446092.443 8  -9599527.686 9  20494442.761
  21850247.206   -12993535.734 7  -9992750.873 9  21850251.108
  20726726.847    -2364030.838 8  -1800454.120 9  20726729.378
 94  3 17 20 40 59.9990000  0  6 16 31 18 27  2 19
  23542187.495    -3295640.728 5  -2489078.986 9  23542192.909
  22305728.722    -6265344.256 7  -4771772.059 9  22305731.136
  22005573.269     8842520.052 7   6912236.070 9  22005577.206
  20489745.690   -12470762.691 7  -9618751.235 9  20489747.730
  21840491.823   -13044801.567 7 -10032698.203 9  21840495.761
  20731220.198    -2340416.463 8  -1782053.298 9  20731222.694
 94  3 17 20 41 29.9990000  0  6 16 31 18 27  2 19
  23543555.690    -3288452.395 5  -2483477.731 9  23543560.659
  22314440.417    -6219565.108 7  -4736099.990 9  22314442.667
  22023778.581     8938188.300 7   6986782.683 9  22023782.448
  20485106.433   -12495141.489 7  -9637747.686 9  20485108.647
  21830801.581   -13095723.866 7 -10072377.852 9  21830805.589
  20735764.933    -2316534.679 8  -1763444.118 9  20735767.358
 94  3 17 20 41 59.9990000  0  6 16 31 18 27  2 19
  23545030.112    -3280702.260 5  -2477438.698 9  23545035.421
  22323263.909    -6173196.801 7  -4699968.826 9  22323266.417
  22042049.901     9034206.191 7   7061601.742 9  22042053.839
  20480527.886   -12519203.731 7  -9656497.475 9  20480529.808
  21821176.198   -13146305.794 7 -10111792.273 9  21821180.101
  20740360.667    -2292384.369 8  -1744625.695 9  20740363.093
 94  3 17 20 42 29.9990000  0  6 16 31 18 27  2 19
  23546607.753    -3272412.273 5  -2470978.993 9  23546612.933
  22332203.120    -6126221.838 7  -4663364.956 9  22332205.593
  22060389.745     9130582.356 7   7136699.965 9  22060393.706
  20476006.511   -12542963.818 7  -9675011.817 9  20476008.585
  21811616.370   -13196544.332 7 -10150939.118 9  21811619.991
  20745006.628    -2267969.559 8  -1725601.164 9  20745009.229
 94  3 17 20 42 59.9990000  0  6 16 31 18 27  2 19
  23548284.042    -3263601.515 5  -2464113.521 9  23548288.472
  22341259.245    -6078631.069 7  -4626281.234 9  22341261.542
  22078799.128     9227323.978 7   7212082.955 9  22078803.136
  20471537.573   -12566446.777 7  -9693310.223 9  20471539.554
  21802121.456   -13246439.456 7 -10189818.371 9  21802125.077
  20749701.284    -2243297.276 8  -1706376.014 9  20749704.062
 94  3 17 20 43 29.9990000  0  6 16 31 18 27  2 19
  23550057.511    -3254286.565 5  -2456855.127 9  23550061.718
  22350429.409    -6030438.938 7  -4588728.915 9  22350432.058
  22097276.276     9324420.801 7   7287742.735 9  22097280.448
  20467117.589   -12589675.233 7  -9711410.315 9  20467119.558
  21792687.159   -13296017.035 7 -10228450.186 9  21792690.581
  20754444.776    -2218369.333 8  -1686951.643 9  20754447.519
 94  3 17 20 43 59.9990000  0  6 16 31 18 27  2 19
  23551929.534    -3244441.682 5  -2449183.825 9  23551934.104
  22359712.245    -5981659.964 7  -4550719.324 9  22359714.847
  22115823.104     9421886.285 7   7363689.793 9  22115827.253
  20462743.237   -12612662.879 7  -9729322.760 9  20462745.218
  21783311.815   -13345284.040 7 -10266839.996 9  21783315.565
  20759237.284    -2193184.277 8  -1667326.925 9  20759240.085
 94  3 17 20 44 29.9990000  0  6 16 31 18 27  2 19
  23553904.315    -3234063.596 5  -2441097.022 9  23553909.354
  22369101.300    -5932319.475 7  -4512272.198 9  22369103.655
  22134439.409     9519713.241 7   7439918.517 9  22134443.276
  20458411.534   -12635425.626 7  -9747059.964 9  20458413.620
  21773992.339   -13394260.389 7 -10305003.318 9  21773995.983
  20764078.089    -2167746.008 7  -1647504.908 9  20764080.972
 94  3 17 20 44 59.9990000  0  6 16 31 18 27  2 19
  23555983.745    -3223138.839 5  -2432584.254 9  23555990.675
  22378592.792    -5882442.644 7  -4473407.138 9  22378595.065
  22153120.433     9617881.149 7   7516412.912 9  22153124.241
  20454124.972   -12657951.294 7  -9764612.423 9  20454126.870
  21764726.190   -13442950.199 7 -10342943.369 9  21764730.011
  20768967.542    -2142053.811 8  -1627485.028 9  20768970.390
 94  3 17 20 45 29.9990000  0  6 16 31 18 27  2 19
  23558169.269    -3211655.398 5  -2423636.159 9  23558175.655
  22388185.901    -5832030.916 7  -4434125.284 9  22388188.280
  22171865.011     9716383.987 7   7593168.288 9  22171868.866
  20449886.542   -12680223.439 7  -9781967.335 9  20449888.604
  21755517.183   -13491343.896 7 -10380652.686 9  21755521.003
  20773907.323    -2116095.322 8  -1607257.642 9  20773909.925
 94  3 17 20 45 59.9990000  0  6 16 31 18 27  2 19
  23560461.417    -3199609.095 5  -2414249.475 9  23560466.679
  22397884.769    -5781064.110 7  -4394410.904 9  22397887.358
  22190672.503     9815220.764 7   7670183.875 9  22190676.253
  20445700.269   -12702224.752 8  -9799111.206 9  20445702.214
  21746367.761   -13539424.824 7 -10418118.294 9  21746371.604
  20778899.479    -2089860.815 8  -1586815.170 9  20778902.198
 94  3 17 20 46 29.9990000  0  6 16 31 18 27  2 19
  23562853.503    -3187040.080 5  -2404455.449 9  23562858.858
  22407690.386    -5729532.432 7  -4354256.361 9  22407692.987
  22209535.761     9914343.507 7   7747422.297 9  22209539.511
  20441563.933   -12723960.883 8  -9816048.444 9  20441565.890
  21737275.628   -13587202.389 7 -10455347.512 9  21737279.507
  20783939.948    -2063370.968 7  -1566173.741 9  20783942.761
 94  3 17 20 46 59.9990000  0  6 16 31 18 27  2 19
  23565345.284    -3173949.565 5  -2394255.089 9  23565349.562
  22417608.308    -5677412.675 7  -4313643.580 9  22417611.144
  22228448.956    10013736.485 7   7824871.292 9  22228452.612
  20437478.667   -12745430.354 8  -9832777.887 9  20437480.331
  21728246.620   -13634650.714 7 -10492320.182 9  21728250.534
  20789028.409    -2036634.140 8  -1545339.861 9  20789031.222
 94  3 17 20 47 29.9990000  0  6 16 31 18 27  2 19
  23567932.753    -3160349.724 5  -2383657.828 9  23567937.253
  22427638.425    -5624704.945 7  -4272572.643 9  22427641.144
  22247412.472    10113386.363 7   7902520.461 9  22247416.116
  20433442.261   -12766640.235 8  -9849305.049 9  20433444.124
  21719278.190   -13681778.273 7 -10529042.912 9  21719281.823
  20794160.558    -2009662.429 8  -1524322.957 9  20794163.206
 94  3 17 20 47 59.9990000  0  6 16 31 18 27  2 19
  23570617.026    -3146242.709 5  -2372665.410 9  23570621.913
  22437779.284    -5571417.467 7  -4231049.942 9  22437781.933
  22266421.987    10213285.818 7   7980364.114 9  22266425.737
  20429455.026   -12787592.661 8  -9865631.602 9  20429456.749
  21710370.917   -13728588.618 7 -10565518.461 9  21710374.433
  20799335.784    -1982466.290 8  -1503131.166 9  20799338.538
 94  3 17 20 48 29.9990000  0  6 16 31 18 27  2 19
  23573399.948    -3131617.848 5  -2361269.443 9  23573404.296
  22448025.901    -5517566.640 7  -4189088.274 9  22448028.304
  22285482.198    10313446.362 7   8058411.215 9  22285485.690
  20425515.378   -12808297.190 8  -9881764.981 9  20425517.007
  21701522.112   -13775090.679 7 -10601753.783 9  21701525.616
  20804553.019    -1955048.549 7  -1481766.696 9  20804555.831
 94  3 17 20 48 59.9990000  0  6 16 31 18 27  2 19
  23576283.589    -3116465.422 5  -2349462.406 9  23576289.413
  22458375.386    -5463180.539 7  -4146709.521 9  22458377.905
  22304597.214    10413894.586 7   8136682.475 9  22304600.776
  20421622.995   -12828751.951 8  -9897703.743 9  20421624.765
  21692732.425   -13821279.296 7 -10637744.867 9  21692735.776
  20809815.206    -1927397.316 8  -1460220.287 9  20809818.077
 94  3 17 20 49 29.9990000  0  6 16 31 18 27  2 19
  23579266.042    -3100793.211 5  -2337250.327 9  23579271.292
  22468825.058    -5408269.935 7  -4103922.050 9  22468827.460
  22323767.784    10514636.693 7   8215182.750 9  22323771.464
  20417779.050   -12848950.081 7  -9913442.523 9  20417780.866
  21683999.659   -13867171.299 7 -10673504.819 9  21684003.104
  20815123.690    -1899502.007 8  -1438483.676 9  20815126.538
 94  3 17 20 49 59.9990000  0  6 16 31 18 27  2 19
  23582347.308    -3084599.232 5  -2324631.676 9  23582353.050
  22479375.089    -5352827.807 7  -4060720.409 9  22479377.854
  22342997.479    10615686.890 7   8293923.072 9  22343001.042
  20413983.675   -12868895.786 7  -9928984.613 9  20413985.550
  21675323.894   -13912761.882 7 -10709029.906 9  21675327.491
  20820479.620    -1871356.720 8  -1416552.269 9  20820482.257
 94  3 17 20 50 29.9990000  0  6 16 31 18 27  2 19
  23585531.394    -3067869.386 5  -2311595.483 9  23585536.726
  22490032.753    -5296822.809 7  -4017080.162 9  22490035.272
  22362289.276    10717068.704 7   8372921.804 9  22362293.050
  20410241.253   -12888564.238 8  -9944310.655 9  20410243.128
  21666708.839   -13958033.691 7 -10744306.596 9  21666712.261
  20825887.589    -1842937.108 8  -1394407.111 9  20825890.132
 94  3 17 20 50 59.9990000  0  6 16 31 18 27  2 19
  23588817.167    -3050605.953 5  -2298143.488 9  23588821.983
  22500799.229    -5240243.835 7  -3972992.662 9  22500801.632
  22381644.284    10818778.652 7   8452176.235 9  22381647.847
  20406553.417   -12907941.118 7  -9959409.497 9  20406555.327
  21658158.480   -14002967.429 7 -10779319.852 9  21658161.843
  20831350.565    -1814229.833 8  -1372037.797 9  20831353.132
 94  3 17 20 51 29.9990000  0  6 16 31 18 27  2 19
  23592204.222    -3032806.847 5  -2284274.062 9  23592208.628
  22511678.706    -5183071.041 7  -3928442.451 9  22511680.991
  22401059.690    10920807.588 7   8531679.219 9  22401063.312
  20402922.800   -12927021.343 8  -9974277.187 9  20402924.429
  21649672.245   -14047561.835 7 -10814068.694 9  21649675.749
  20836867.065    -1785240.633 8  -1349448.800 9  20836869.573
 94  3 17 20 51 59.9990000  0  6 16 31 18 27  2 19
  23595691.612    -3014475.974 5  -2269990.297 9  23595696.147
  22522670.472    -5125310.842 7  -3883434.513 9  22522672.886
  22420535.862    11023156.822 6   8611431.782 9  22420539.706
  20399346.878   -12945811.651 8  -9988918.963 9  20399348.647
  21641251.308   -14091814.135 7 -10848550.960 9  21641254.905
  20842434.597    -1755981.389 8  -1326649.379 9  20842437.175
 94  3 17 20 52 29.9990000  0  6 16 31 18 27  2 19
  23599280.026    -2995619.319 5  -2255296.831 9  23599284.948
  22533771.394    -5066976.465 7  -3837979.163 9  22533773.808
  22440069.511    11125809.552 6   8691420.838 9  22440073.601
  20395827.987   -12964304.712 8 -10003329.130 9  20395829.675
  21632894.159   -14135731.541 7 -10882772.264 9  21632897.792
  20848054.519    -1726448.953 8  -1303637.085 9  20848057.179
 94  3 17 20 52 59.9990000  0  6 16 31 18 27  2 19
  23602969.917    -2976233.863 5  -2240191.321 9  23602974.312
  22544978.800    -5008078.092 7  -3792084.326 9  22544981.237
  22459659.894    11228753.336 6   8771636.673 9  22459664.054
  20392364.229   -12982507.961 8 -10017513.465 9  20392365.776
  21624600.433   -14179311.407 7 -10916730.551 9  21624604.206
  20853726.019    -1696644.453 8  -1280412.799 9  20853728.573
 94  3 17 20 53 29.9990000  0  6 16 31 18 27  2 19
  23606757.034    -2956322.915 5  -2224676.329 9  23606761.534
  22556293.417    -4948618.171 7  -3745751.929 9  22556296.241
  22479305.487    11331991.094 7   8852081.597 9  22479309.565
  20388952.597   -13000433.351 8 -10031481.298 9  20388954.437
  21616368.581   -14222571.002 7 -10950439.285 9  21616372.425
  20859447.690    -1666576.605 8  -1256983.315 9  20859450.538
 94  3 17 20 53 59.9990000  0  6 16 31 18 27  2 19
  23610650.956    -2935872.262 5  -2208740.826 9  23610655.562
  22567715.073    -4888598.150 7  -3698983.087 9  22567717.757
  22499009.894    11435539.734 6   8932768.764 9  22499014.124
  20385597.433   -13018066.811 8 -10045221.650 9  20385599.202
  21608198.339   -14265508.842 7 -10983897.294 9  21608201.901
  20865224.417    -1636220.699 8  -1233329.368 9  20865227.335
 94  3 17 20 54 29.9990000  0  6 16 31 18 27  2 19
  23614643.823    -2914883.912 5  -2192386.328 9  23614648.909
  22579240.144    -4828032.793 6  -3651789.307 9  22579242.675
  22518772.151    11539389.572 7   9013690.621 9  22518776.698
  20382296.565   -13035411.677 7 -10058737.124 9  20382298.370
  21600087.698   -14308128.327 7 -11017107.232 9  21600091.214
  20871057.714    -1605568.051 8  -1209444.193 9  20871060.491
 94  3 17 20 54 59.9990000  0  6 16 31 18 27  2 19
  23618741.745    -2893351.707 5  -2175608.024 9  23618746.409
  22590868.190    -4766929.642 7  -3604176.471 9  22590870.687
  22538593.222    11643548.920 6   9094853.654 9  22538597.769
  20379050.784   -13052468.428 7 -10072028.095 9  20379052.788
  21592040.894   -14350415.441 7 -11050058.178 9  21592044.374
  20876945.019    -1574626.303 7  -1185333.753 9  20876947.772
 94  3 17 20 55 29.9990000  0  6 16 31 18 27  2 19
  23622939.667    -2871290.124 5  -2158417.219 9  23622944.226
  22602597.019    -4705293.946 7  -3556148.659 9  22602599.433
  22558470.175    11748007.607 6   9176249.922 9  22558474.675
  20375861.589   -13069228.743 7 -10085088.080 9  20375863.487
  21584055.644   -14392377.743 7 -11082756.025 9  21584059.112
  20882887.745    -1543400.499 8  -1161001.969 9  20882890.382
 94  3 17 20 55 59.9990000  0  7 16  7 31 18 27  2 19
  23627234.519    -2848720.607 5  -2140830.605 9  23627239.394
  24145410.222      -37395.21115
  22614425.120    -4643136.850 6  -3507714.566 9  22614427.604
  22578400.573    11852738.588 6   9257858.371 9  22578405.038
  20372728.104   -13085693.182 7 -10097917.507 9  20372730.085
  21576131.237   -14434020.884 7 -11115205.175 9  21576134.870
  20888880.940    -1511904.438 8  -1136459.593 9  20888883.624
 94  3 17 20 56 29.9990000  0  7 16  7 31 18 27  2 19
  23631625.714    -2825643.732 5  -2122848.639 9  23631631.151
  24126007.823     -139354.958 5
  22626353.948    -4580449.623 6  -3458867.379 9  22626356.093
  22598380.808    11957735.756 6   9339674.241 9  22598385.132
  20369651.651   -13101861.558 7 -10110516.234 9  20369653.690
  21568269.815   -14475333.004 7 -11147396.384 9  21568273.390
  20894924.581    -1480145.715 8  -1111712.549 9  20894927.276
 94  3 17 20 56 59.9990000  0  7 16  7 31 18 27  2 19
  23636114.558    -2802055.769 5  -2104468.420 9  23636119.913
  24106615.425     -241260.958 5    -66166.52519  24106623.069
  22638387.339    -4517213.150 6  -3409592.212 9  22638389.800
  22618412.089    12062997.414 6   9421696.208 9  22618416.261
  20366632.659   -13117726.354 7 -10122878.403 9  20366634.687
  21560470.237   -14516317.400 7 -11179332.221 9  21560474.058
  20901017.519    -1448125.409 8  -1086761.672 9  20901020.343
 94  3 17 20 57 29.9990000  0  7 16  7 31 18 27  2 19
  23640697.198    -2777971.294 5  -2085701.339 9  23640702.460
  24087236.706     -343096.513 5   -145518.622 9  24087244.843
  22650528.276    -4453412.101 6  -3359877.126 9  22650530.737
  22638492.425    12168521.508 6   9503922.663 9  22638496.702
  20363668.683   -13133300.377 7 -10135013.993 9  20363670.558
  21552729.815   -14556992.408 7 -11211026.976 9  21552733.495
  20907162.479    -1415833.474 8  -1061599.131 9  20907165.233
 94  3 17 20 57 59.9990000  0  7 16  7 31 18 27  2 19
  23645375.479    -2753388.423 5  -2066545.874 9  23645380.683
  24067869.651     -444866.136 5   -224819.325 9  24067879.054
  22662772.972    -4389066.980 6  -3309738.071 9  22662775.480
  22658623.933    12274314.021 6   9586358.286 9  22658628.444
  20360756.464   -13148605.351 8 -10146939.936 9  20360758.397
  21545047.565   -14597361.923 7 -11242483.686 9  21545051.433
  20913359.230    -1383270.090 8  -1036225.069 9  20913361.855
 94  3 17 20 58 29.9990000  0  7 16  7 31 18 27  2 19
  23650151.651    -2728291.850 5  -2046990.150 9  23650156.280
  24048514.870     -546573.084 5   -304071.161 9  24048524.964
  22675120.097    -4324183.858 6  -3259179.799 9  22675122.628
  22678806.698    12380373.016 6   9669001.556 9  22678811.479
  20357895.354   -13163640.320 8 -10158655.479 9  20357897.159
  21537425.128   -14637420.590 7 -11273698.185 9  21537428.925
  20919610.058    -1350421.341 8  -1010628.648 9  20919612.683
 94  3 17 20 58 59.9990000  0  7 16  7 31 18 27  2 19
  23655023.792    -2702686.883 5  -2027038.271 9  23655028.374
  24029177.339     -648196.274 5   -383257.768 9  24029185.394
  22687570.464    -4258753.485 6  -3208195.094 9  22687573.171
  22699040.987    12486703.720 6   9751856.531 9  22699045.569
  20355087.261   -13178397.743 8 -10170154.748 9  20355088.890
  21529861.378   -14677167.833 7 -11304670.012 9  21529864.800
  20925916.964    -1317279.926 8   -984804.175 9  20925919.706
 94  3 17 20 59 29.9990000  0  7 16  7 31 18 27  2 19
  23659990.089    -2676588.674 5  -2006702.030 9  23659994.647
  24009855.644     -749734.279 5   -462377.948 9  24009865.093
  22700121.464    -4192797.730 6  -3156801.013 9  22700123.983
  22719325.573    12593300.327 6   9834918.710 9  22719330.132
  20352329.870   -13192888.004 8 -10181445.844 9  20352331.616
  21522356.917   -14716603.608 7 -11335399.145 9  21522360.304
  20932275.354    -1283865.722 8   -958767.140 9  20932278.015
 94  3 17 20 59 59.9990000  0  7 16  7 31 18 27  2 19
  23665051.300    -2649993.282 5  -1985978.390 9  23665055.765
  23990544.815     -851201.291 5   -541442.877 9  23990553.585
  22712769.339    -4126336.154 6  -3105012.786 9  22712771.894
  22739658.378    12700148.591 6   9918176.980 9  22739662.655
  20349626.948   -13207093.425 8 -10192514.988 9  20349628.636
  21514912.901   -14755723.013 7 -11365881.754 9  21514916.382
  20938682.479    -1250196.450 8   -932531.345 9  20938685.257
 94  3 17 21  0 29.9990000  0  7 16  7 31 18 27  2 19
  23670207.612    -2622895.764 5  -1964863.471 9  23670211.362
  23971254.526     -952578.360 5   -620437.684 9  23971263.108
  22725517.167    -4059343.063 6  -3052810.381 9  22725519.815
  22760038.292    12807245.364 6  10001628.900 9  22760042.722
  20346981.604   -13220994.210 8 -10203346.751 9  20346983.245
  21507530.573   -14794516.048 7 -11396110.050 9  21507533.913
  20945138.065    -1216273.697 8   -906098.033 9  20945140.761
 94  3 17 21  0 59.9990000  0  7 16  7 31 18 27  2 19
  23675458.144    -2595301.681 5  -1943361.606 9  23675463.358
  23951979.308    -1053868.535 5   -699364.797 9  23951987.702
  22738364.815    -3991829.989 6  -3000202.792 9  22738367.136
  22780464.917    12914590.511 6  10085274.361 9  22780469.558
  20344390.745   -13234607.556 8 -10213954.540 9  20344392.491
  21500209.604   -14832989.227 7 -11426089.110 9  21500213.015
  20951636.589    -1182122.642 8   -879486.819 9  20951639.272
 94  3 17 21  1 29.9990000  0  7 16  7 31 18 27  2 19
  23680806.917    -2567193.031 5  -1921458.811 9  23680811.745
  23932716.784    -1155088.494 5   -778237.220 9  23932725.612
  22751308.409    -3923808.567 6  -2947199.084 9  22751311.292
  22800938.128    13022177.823 6  10169108.530 9  22800942.675
  20341856.378   -13247926.458 8 -10224332.896 9  20341858.054
  21492952.034   -14871126.863 7 -11455806.716 9  21492955.315
  20958179.925    -1147736.846 8   -852692.684 9  20958182.456
 94  3 17 21  1 59.9990000  0  7 16  7 31 18 27  2 19
  23686254.479    -2538568.306 5  -1899153.859 9  23686259.015
  23913468.269    -1256239.800 5   -857056.146 9  23913476.804
  22764349.479    -3855278.804 6  -2893799.265 9  22764351.847
  22821455.917    13129997.221 6  10253123.540 9  22821460.417
  20339378.581   -13260946.904 7 -10234478.686 9  20339380.245
  21485757.269   -14908935.261 7 -11485267.765 9  21485760.538
  20964770.815    -1113101.900 8   -825704.398 9  20964773.429
 94  3 17 21  2 29.9990000  0  7 16  7 31 18 27  2 19
  23691798.456    -2509434.320 5  -1876452.109 9  23691803.765
  23894234.315    -1357316.804 5   -935817.171 9  23894241.972
  22777486.815    -3786242.164 6  -2840004.488 9  22777488.901
  22842019.323    13238056.360 6  10337325.363 9  22842024.269
  20336953.948   -13273688.384 7 -10244407.097 9  20336955.741
  21478623.409   -14946424.956 7 -11514480.478 9  21478626.538
  20971409.847    -1078213.860 8   -798518.892 9  20971412.612
 94  3 17 21  3  0.0000000  0  7 16  7 31 18 27  2 19
  23697437.625    -2479802.995 5  -1853362.818 9  23697442.699
  23875011.922    -1458331.822 5  -1014529.889 9  23875020.656
  22790718.938    -3716709.575 7  -2785823.249 9  22790721.117
  22862629.578    13346363.461 6  10421720.398 9  22862633.891
  20334582.859   -13286148.944 8 -10254116.610 9  20334584.605
  21471547.273   -14983610.739 7 -11543456.365 9  21471550.367
  20978098.969    -1043060.933 8   -771126.979 9  20978101.770
 94  3 17 21  3 30.0000000  0  7 16  7 31 18 27  2 19
  23703164.914    -2449705.689 5  -1829910.390 9  23703170.059
  23855803.484    -1559271.428 5  -1093183.860 9  23855811.316
  22804043.234    -3646687.429 6  -2731260.548 9  22804045.191
  22883286.445    13454914.631 6  10506305.615 9  22883291.320
  20332268.023   -13298314.702 8 -10263596.409 9  20332269.711
  21464525.656   -15020507.929 7 -11572207.383 9  21464528.891
  20984840.812    -1007631.246 8   -743519.410 9  20984843.496
 94  3 17 21  4  0.0000000  0  7 16  7 31 18 27  2 19
  23708978.703    -2419153.899 5  -1806103.830 9  23708983.895
  23836612.594    -1660117.853 5  -1171765.266 9  23836620.555
  22817461.930    -3576171.143 6  -2676312.800 9  22817463.781
  22903992.688    13563729.491 6  10591096.312 9  22903997.223
  20330008.625   -13310187.670 8 -10272848.053 9  20330010.371
  21457556.969   -15057129.369 7 -11600743.524 9  21457560.238
  20991637.023     -971916.318 8   -715689.573 9  20991639.777
 94  3 17 21  4 30.0000000  0  7 16  7 31 18 27  2 19
  23714880.195    -2388145.714 5  -1781941.647 9  23714885.105
  23817440.984    -1760866.314 5  -1250270.342 9  23817449.555
  22830974.023    -3505164.174 6  -2620982.704 9  22830976.379
  22924749.602    13672806.276 6  10676091.103 9  22924754.418
  20327805.781   -13321763.526 8 -10281868.183 9  20327807.598
  21450643.531   -15093461.379 7 -11629054.136 9  21450646.824
  20998487.414     -935917.284 8   -687638.360 9  20998490.180
 94  3 17 21  5  0.0000000  0  7 16  7 31 18 27  2 19
  23720868.383    -2356675.260 5  -1757419.253 9  23720873.609
  23798289.203    -1861507.457 5  -1328691.763 9  23798297.293
  22844580.273    -3433663.759 6  -2565268.087 9  22844582.699
  22945553.148    13782128.868 6  10761277.430 9  22945557.707
  20325663.063   -13333023.289 8 -10290642.009 9  20325664.680
  21443787.242   -15129488.810 7 -11657127.412 9  21443790.512
  21005393.000     -899628.491 7   -659361.369 9  21005395.672
 94  3 17 21  5 30.0000000  0  7 16  7 31 18 27  2 19
  23726949.008    -2324720.044 5  -1732519.130 9  23726953.754
  23779159.922    -1962030.286 5  -1407021.030 9  23779167.309
  22858283.117    -3361653.507 6  -2509156.212 9  22858285.848
  22966403.141    13891696.968 6  10846655.061 9  22966408.086
  20323581.055   -13343963.403 8 -10299166.750 9  20323582.813
  21436994.836   -15165181.703 7 -11684940.004 9  21436998.070
  21012352.844     -863054.642 7   -630862.259 9  21012355.480
 94  3 17 21  6  0.0000000  0  7 16  7 31 18 27  2 19
  23733125.766    -2292258.370 5  -1707224.363 9  23733130.934
  23760053.602    -2062440.236 5  -1485262.290 9  23760061.586
  22872084.250    -3289127.483 6  -2452642.416 9  22872086.934
  22987297.055    14001496.039 6  10932212.663 9  22987301.813
  20321560.742   -13354579.280 8 -10307438.844 9  20321562.629
  21430270.813   -15200516.874 7 -11712473.853 9  21430274.188
  21019366.195     -826200.658 8   -602144.875 9  21019368.820
 94  3 17 21  6 30.0000000  0  7 16  7 31 18 27  2 19
  23739400.188    -2259291.000 5  -1681535.530 9  23739405.016
  23740964.852    -2162744.190 5  -1563420.972 9  23740973.738
  22885985.375    -3216078.814 6  -2395721.395 9  22885988.012
  23008232.094    14111511.758 6  11017939.088 9  23008236.746
  20319604.688   -13364860.511 8 -10315450.169 9  20319606.504
  21423614.711   -15235495.231 7 -11739729.669 9  21423618.016
  21026431.047     -789073.777 8   -573214.838 9  21026433.766
 94  3 17 21  7  0.0000000  0  7 16  7 31 18 27  2 19
  23745766.563    -2225833.659 5  -1655464.956 9  23745771.285
  23721897.000    -2262948.498 5  -1641501.996 9  23721905.734
  22899985.359    -3142508.485 6  -2338393.867 9  22899988.324
  23029208.953    14221743.466 6  11103833.790 9  23029214.168
  20317710.891   -13374811.996 8 -10323204.557 9  20317712.824
  21417022.820   -15270137.562 7 -11766723.644 9  21417025.621
  21033547.078     -751677.327 8   -544074.748 9  21033549.727
 94  3 17 21  7 30.0000000  0  7 16  7 31 18 27  2 19
  23752224.016    -2191900.010 5  -1629023.196 9  23752228.902
  23702847.398    -2363050.834 5  -1719503.550 9  23702855.137
  22914080.789    -3068433.207 6  -2280672.883 9  22914083.719
  23050227.586    14332193.923 6  11189898.957 9  23050232.496
  20315877.320   -13384445.020 7 -10330710.787 9  20315879.313
  21410489.984   -15304466.026 7 -11793473.047 9  21410492.996
  21040714.719     -714011.631 7   -514724.865 9  21040717.531
 94  3 17 21  8  0.0000000  0  7 16  7 31 18 27  2 19
  23758767.070    -2157517.363 5  -1602231.564 9  23758772.133
  23683818.203    -2463051.214 5  -1797425.644 9  23683826.398
  22928267.234    -2993883.977 6  -2222582.576 9  22928270.270
  23071284.164    14442847.203 6  11276122.162 9  23071289.016
  20314102.734   -13393771.702 7 -10337978.314 9  20314104.715
  21404010.602   -15338515.567 7 -11820005.114 9  21404013.695
  21047934.141     -676074.597 8   -485163.551 9  21047936.941
 94  3 17 21  8 30.0000000  0  7 16  7 31 18 27  2 19
  23765396.469    -2122680.660 5  -1575086.124 9  23765401.520
  23664810.055    -2562938.534 5  -1875259.618 9  23664817.113
  22942544.570    -2918856.706 6  -2164119.780 9  22942547.477
  23092381.273    14553713.324 6  11362511.220 9  23092386.500
  20312383.859   -13402803.778 7 -10345016.287 9  20312385.875
  21397581.516   -15372300.259 7 -11846330.805 9  21397584.750
  21055205.969     -637858.847 7   -455385.054 9  21055208.746
 94  3 17 21  9  0.0000000  0  7 16  7 31 18 27  2 19
  23772113.531    -2087378.777 5  -1547578.220 9  23772118.746
  23645825.898    -2662699.223 5  -1952994.919 9  23645834.703
  22956911.031    -2843358.979 6  -2105290.394 9  22956913.750
  23113520.961    14664801.809 6  11449073.544 9  23113525.906
  20310719.422   -13411550.199 7 -10351831.673 9  20310721.426
  21391203.656   -15405816.291 7 -11872447.149 9  21391206.949
  21062533.453     -599354.047 7   -425381.315 9  21062536.324
 94  3 17 21  9 30.0000000  0  7 16  7 31 18 27  2 19
  23778922.648    -2051599.268 5  -1519698.121 9  23778927.441
  23626870.547    -2762309.993 5  -2030613.394 9  23626878.824
  22971368.117    -2767389.490 6  -2046093.405 9  22971370.930
  23134703.727    14776120.740 6  11535815.422 9  23134708.344
  20309110.203   -13420007.179 7 -10358421.519 9  20309112.313
  21384880.242   -15439046.114 7 -11898340.472 9  21384883.559
  21069915.797     -560558.604 7   -395151.097 9  21069918.762
 94  3 17 21 10  0.0000000  0  7 16  7 31 18 27  2 19
  23785819.961    -2015354.440 5  -1491455.480 9  23785824.379
  23607940.219    -2861787.356 5  -2108127.905 9  23607947.746
  22985914.109    -2690946.002 6  -1986527.064 9  22985916.699
  23155928.383    14887651.744 6  11622722.561 9  23155932.941
  20307552.789   -13428190.652 7 -10364798.242 9  20307554.910
  21378612.852   -15471979.365 7 -11924002.700 9  21378616.297
  21077350.867     -521487.481 7   -364706.062 9  21077353.820
 94  3 17 21 10 30.0000000  0  7 16  7 31 18 27  2 19
  23792805.883    -1978636.884 5  -1462844.450 9  23792811.098
  23589036.344    -2961127.819 5  -2185535.770 9  23589043.859
  23000555.469    -2614003.461 6  -1926571.843 9  23000557.977
  23177194.273    14999405.473 6  11709803.255 9  23177198.809
  20306050.500   -13436086.153 7 -10370950.574 9  20306052.445
  21372407.031   -15504591.778 7 -11949414.928 9  21372410.313
  21084839.055     -482135.908 7   -334042.497 9  21084841.867
 94  3 17 21 11  0.0000000  0  7 16  7 31 18 27  2 19
  23799879.867    -1941461.346 5  -1433876.556 9  23799884.695
  23570159.141    -3060331.055 6  -2262836.683 9  23570166.645
  23015290.227    -2536574.573 6  -1866237.648 9  23015293.086
  23198500.234    15111371.691 6  11797049.530 9  23198504.852
  20304606.414   -13443674.345 7 -10376863.445 9  20304608.195
  21366264.328   -15536871.404 7 -11974567.842 9  21366267.633
  21092380.133     -442507.519 7   -303163.232 9  21092383.156
 94  3 17 21 11 30.0000000  0  7 16  7 31 18 27  2 19
  23807039.586    -1903844.466 5  -1404564.759 9  23807045.563
  23551303.922    -3159408.836 5  -2340039.842 9  23551311.496
  23030115.648    -2458665.534 6  -1805529.319 9  23030118.203
  23219844.883    15223535.096 6  11884449.461 9  23219850.016
  20303222.125   -13450948.937 7 -10382531.951 9  20303224.141
  21360185.383   -15568816.457 7 -11999460.052 9  21360188.641
  21099971.344     -402617.036 7   -272079.737 9  21099974.402
 94  3 17 21 12  0.0000000  0  7 16  7 31 18 27  2 19
  23814281.602    -1865787.540 5  -1374910.045 9  23814286.078
  23532469.906    -3258380.077 5  -2417159.999 9  23532477.398
  23045032.273    -2380276.950 6  -1744447.316 9  23045034.922
  23241223.586    15335881.779 6  11971992.189 9  23241229.176
  20301897.977   -13457907.937 7 -10387954.540 9  20301899.734
  21354168.906   -15600433.357 7 -12024096.559 9  21354172.117
  21107612.266     -362462.342 7   -240790.366 9  21107615.160
 94  3 17 21 12 30.0000000  0  7 16  7 31 18 27  2 19
  23821612.250    -1827260.793 5  -1344889.234 9  23821617.957
  23513661.438    -3357221.752 6  -2494179.195 9  23513668.684
  23060042.789    -2301400.955 6  -1682985.512 9  23060045.520
  23262642.313    15448436.842 6  12059697.294 9  23262646.883
  20300642.070   -13464507.229 7 -10393096.827 9  20300643.898
  21348216.805   -15631710.963 7 -12048468.681 9  21348220.051
  21115306.766     -322027.800 7   -209282.928 9  21115309.555
 94  3 17 21 13  0.0000000  0  7 16  7 31 18 27  2 19
  23829034.414    -1788259.347 5  -1314498.536 9  23829039.488
  23494876.508    -3455930.348 5  -2571094.725 9  23494884.352
  23075142.305    -2222053.160 6  -1621156.066 9  23075144.367
  23284100.773    15561200.904 6  12147565.252 9  23284105.895
  20299455.961   -13470739.874 7 -10397953.422 9  20299458.094
  21342329.297   -15662650.814 7 -12072577.623 9  21342332.355
  21123054.969     -281311.062 7   -177555.599 9  21123057.852
 94  3 17 21 13 30.0000000  0  7 16  7 31 18 27  2 19
  23836546.000    -1748783.089 5  -1283737.896 9  23836552.516
  23476119.789    -3554499.298 5  -2647901.467 9  23476126.695
  23090334.797    -2142219.292 6  -1558947.878 9  23090336.988
  23305601.094    15674186.464 6  12235605.810 9  23305606.262
  20298337.703   -13476617.147 7 -10402533.095 9  20298339.660
  21336504.789   -15693259.266 7 -12096428.325 9  21336507.848
  21130860.070     -240295.609 7   -145595.510 9  21130862.848
 94  3 17 21 14  0.0000000  0  7 16  7 31 18 27  2 19
  23844148.172    -1708833.759 5  -1252608.576 9  23844153.762
  23457390.000    -3652922.782 5  -2724594.831 9  23457397.598
  23105615.742    -2061912.465 6  -1496371.135 9  23105618.438
  23327143.242    15787386.690 6  12323813.625 9  23327148.164
  20297285.602   -13482144.289 7 -10406839.939 9  20297287.781
  21330740.234   -15723552.845 7 -12120033.677 9  21330743.469
  21138723.969     -198969.730 7   -113393.535 9  21138726.781
 94  3 17 21 14 30.0000000  0  7 16  7 31 18 27  2 19
  23851837.195    -1668430.512 5  -1221125.564 9  23851843.371
  23438688.508    -3751196.759 5  -2801171.730 9  23438696.047
  23120983.656    -1981150.069 6  -1433439.398 9  23120986.270
  23348723.281    15900788.395 6  12412178.456 9  23348728.520
  20296298.273   -13487333.663 7 -10410883.589 9  20296300.465
  21325031.648   -15753548.139 7 -12143406.596 9  21325034.977
  21146646.906     -157336.371 7    -80951.968 9  21146649.578
 94  3 17 21 15  0.0000000  0  7 16  7 31 18 27  2 19
  23859610.188    -1627581.620 5  -1189295.322 9  23859615.402
  23420018.617    -3849308.180 5  -2877621.963 9  23420025.805
  23136439.609    -1899930.088 6  -1370151.117 9  23136442.164
  23370338.234    16014377.752 6  12500689.504 9  23370343.707
  20295370.016   -13492211.362 7 -10414684.380 9  20295372.160
  21319379.297   -15783255.056 8 -12166554.809 9  21319382.484
  21154628.914     -115390.405 7    -48266.806 9  21154631.668
 94  3 17 21 15 30.0000000  0  7 16  7 31 18 27  2 19
  23867469.297    -1586285.563 5  -1157116.609 9  23867473.762
  23401382.539    -3947239.395 5  -2953931.789 9  23401389.656
  23151981.523    -1818259.742 6  -1306511.903 9  23151984.266
  23391988.063    16128149.517 6  12589342.685 9  23391993.523
  20294499.820   -13496785.797 7 -10418248.865 9  20294501.801
  21313780.781   -15812675.867 8 -12189480.082 9  21313783.688
  21162667.625      -73145.577 7    -15348.756 9  21162670.379
 94  3 17 21 16  0.0000000  0  7 16  7 31 18 27  2 19
  23875416.359    -1544527.603 5  -1124577.994 9  23875420.613
  23382784.469    -4044974.338 6  -3030088.679 9  23382791.668
  23167607.977    -1736142.092 6  -1242524.161 9  23167610.191
  23413672.383    16242102.152 6  12678136.788 9  23413677.938
  20293690.563   -13501037.428 7 -10421561.811 9  20293692.508
  21308241.188   -15841786.311 8 -12212163.512 9  21308244.047
  21170760.602      -30616.338 7     17790.915 9  21170763.309
 94  3 17 21 16 30.0000000  0  7 16  7 31 18 27  2 19
  23883446.852    -1502321.408 5  -1091690.101 9  23883452.289
  23364222.734    -4142516.591 6  -3106095.435 9  23364230.320
  23183319.430    -1653578.957 6  -1178189.266 9  23183321.680
  23435391.336    16356236.595 6  12767072.574 9  23435396.973
  20292941.875   -13504972.475 7 -10424628.069 9  20292943.961
  21302762.688   -15870574.975 8 -12234596.205 9  21302765.641
  21178903.773       12175.694 7     51135.361 9  21178906.410
 94  3 17 21 17  0.0000000  0  7 16  7 31 18 27  2 19
  23891567.578    -1459647.678 5  -1058437.906 9  23891574.695
  23345698.469    -4239860.285 6  -3181947.462 9  23345705.797
  23199117.375    -1570558.868 6  -1113498.311 9  23199120.035
  23457150.617    16470580.375 6  12856171.461 9  23457157.391
  20292259.836   -13508556.116 7 -10427420.504 9  20292261.758
  21297348.711   -15899025.425 8 -12256765.360 9  21297351.547
  21187097.891       55236.522 7     84689.261 9  21187100.598
 94  3 17 21 17 30.0000000  0  7 16  7 31 18 27  2 19
  23899776.680    -1416505.242 5  -1024820.449 6  23899788.461
  23327209.648    -4337020.900 6  -3257656.822 9  23327217.340
  23215001.477    -1487088.594 6  -1048456.555 9  23215003.996
  23478951.438    16585143.320 6  12945441.102 9  23478957.918
  20291647.359   -13511774.034 7 -10429927.949 9  20291649.281
  21292000.648   -15927129.041 8 -12278664.248 9  21292003.520
  21195344.195       98571.611 7    118456.870 9  21195346.891
 94  3 17 21 18  0.0000000  0  7 16  7 31 18 27  2 19
  23908074.781    -1372900.737 5   -990842.736 2  23908079.176
  23308752.258    -4434011.840 6  -3333233.974 9  23308760.113
  23230975.563    -1403148.634 6   -983048.832 9  23230978.000
  23500792.070    16699915.703 6  13034873.956 9  23500798.867
  20291105.016   -13514622.208 7 -10432147.297 9  20291107.207
  21286717.656   -15954891.274 8 -12300297.122 9  21286720.633
  21203646.539      142201.267 7    152454.008 9  21203649.305
 94  3 17 21 18 30.0000000  0  7 16  7 31 18 27  2 19
  23916460.617    -1328832.790 5   -956504.412 9  23916465.855
  23290328.625    -4530831.163 6  -3408677.411 9  23290335.977
  23247038.180    -1318732.884 6   -917270.346 9  23247040.945
  23522672.406    16814899.514 6  13124471.555 9  23522679.098
  20290633.438   -13517102.210 7 -10434079.759 9  20290635.430
  21281497.758   -15982321.359 7 -12321671.183 9  21281500.898
  21212009.359      186147.046 7    186697.481 9  21212011.996
 94  3 17 21 19  0.0000000  0  7 16  7 31 18 27  2 19
  23924936.148    -1284297.453 5   -921801.606 9  23924941.961
  23271937.086    -4627478.779 6  -3483987.030 9  23271944.121
  23263192.000    -1233842.665 6   -851122.139 9  23263195.152
  23544590.141    16930079.607 5  13214222.106 9  23544597.199
  20290230.367   -13519217.995 7 -10435728.416 9  20290232.465
  21276338.211   -16009434.305 7 -12342798.118 9  21276341.352
  21220433.633      230417.074 7    221193.611 9  21220436.340
 94  3 17 21 19 30.0000000  0  7 16  7 31 18 27  2 19
  23933494.156    -1239324.022 5   -886757.457 9  23933500.660
  23253579.625    -4723946.319 6  -3559156.346 9  23253586.164
  23279435.813    -1148483.463 6   -784608.505 9  23279438.637
  23566541.734    17045432.722 5  13304107.485 9  23566548.863
  20289891.125   -13521003.753 7 -10437119.912 9  20289893.141
  21271238.914   -16036229.839 7 -12363677.720 9  21271242.242
  21228919.344      275011.231 7    255942.308 9  21228922.039
 94  3 17 21 20  0.0000000  0  7 16  7 31 18 27  2 19
  23942131.508    -1193931.467 5   -851386.691 9  23942137.859
  23235257.992    -4820221.988 6  -3634176.143 9  23235264.695
  23295766.648    -1062661.524 6   -717734.283 9  23295769.707
  23588524.125    17160950.266 5  13394120.955 9  23588530.605
  20289613.352   -13522462.347 7 -10438256.475 9  20289615.379
  21266199.719   -16062710.737 7 -12384312.152 9  21266203.152
  21237465.961      319922.639 7    290938.208 9  21237468.680
 94  3 17 21 20 30.0000000  0  7 16  7 31 18 27  2 19
  23950848.156    -1148128.914 5   -815696.440 9  23950854.227
  23216973.523    -4916307.703 6  -3709047.912 9  23216980.297
  23312179.898     -976407.903 6   -650523.699 9  23312183.672
  23610540.211    17276642.757 6  13484270.781 9  23610546.656
  20289400.148   -13523582.815 7 -10439129.566 9  20289402.199
  21261220.297   -16088877.253 7 -12404701.610 9  21261223.625
  21246070.281      365139.345 7    326171.999 9  21246073.117
 94  3 17 21 21  0.0000000  0  7 16  7 31 18 27  2 19
  23959637.109    -1101943.078 5   -779707.543 9  23959642.219
  23198722.992    -5012214.946 6  -3783780.617 9  23198729.957
  23328672.867     -889739.055 6   -582989.544 9  23328675.211
  23632586.414    17392499.038 5  13574548.229 9  23632593.105
  20289250.094   -13524370.397 7 -10439743.262 9  20289251.852
  21256299.055   -16114740.620 7 -12424854.844 9  21256302.254
  21254729.719      410644.891 7    361630.861 9  21254732.590
 94  3 17 21 21 30.0000000  0  7 16  7 31 18 27  2 19
  23968495.125    -1055395.283 5   -743436.586 9  23968500.176
  23180505.555    -5107946.920 6  -3858376.737 9  23180512.152
  23345240.945     -802674.823 6   -515147.322 9  23345243.676
  23654663.234    17508511.224 5  13664947.138 9  23654670.211
  20289162.539   -13524831.817 7 -10440102.803 9  20289164.426
  21251433.008   -16140309.959 7 -12444778.965 9  21251436.195
  21263440.461      456420.494 7    397300.150 9  21263443.309
 94  3 17 21 22  0.0000000  0  7 16  7 31 18 27  2 19
  23977424.445    -1008468.086 5   -706869.973 9  23977430.480
  23162321.422    -5203503.110 6  -3932835.855 9  23162328.266
  23361881.672     -715227.772 6   -447006.786 9  23361884.355
  23676768.961    17624674.505 5  13755463.817 9  23676776.500
  20289138.625   -13524956.067 7 -10440199.616 9  20289140.664
  21246621.211   -16165596.830 7 -12464482.981 9  21246624.328
  21272200.086      502452.383 7    433169.149 9  21272202.875
 94  3 17 21 22 30.0000000  0  7 16  7 31 18 27  2 19
  23986428.430     -961151.701 5   -670000.142 9  23986434.770
  23144172.242    -5298877.439 6  -4007153.295 9  23144178.406
  23378595.312     -627393.430 6   -378564.463 9  23378598.020
  23698900.859    17740980.212 5  13846091.441 9  23698907.563
  20289179.008   -13524745.682 7 -10440035.666 9  20289180.813
  21241862.375   -16190603.840 7 -12483968.923 9  21241865.539
  21281008.258      548739.182 7    469236.781 9  21281011.152
 94  3 17 21 23  0.0000000  0  7 16  7 31 18 27  2 19
  23995505.109     -913451.037 5   -632830.828 9  23995511.859
  23126059.789    -5394055.990 6  -4081318.190 9  23126065.977
  23395382.680     -539176.218 6   -309823.807 9  23395385.398
  23721056.570    17857406.819 5  13936813.291 9  23721063.215
  20289279.219   -13524218.117 7 -10439624.563 9  20289281.141
  21237155.703   -16215337.117 7 -12503241.567 9  21237158.867
  21289864.133      595279.021 7    505501.585 9  21289867.121
 94  3 17 21 23 30.0000000  0  7 16  7 31 18 27  2 19
  24004666.062     -865309.464 5   -595317.995 9  24004673.496
  23107994.148    -5488992.515 6  -4155294.475 9  23108000.383
  23412249.352     -450543.182 6   -240759.132 9  23412251.965
  23743241.133    17973988.282 5  14027655.831 9  23743248.074
  20289446.656   -13523336.986 7 -10438937.958 9  20289448.883
  21232509.383   -16239753.252 7 -12522267.099 9  21232512.488
  21298776.586      642110.051 7    541993.285 9  21298779.434
 94  3 17 21 24  0.0000000  0  7 16  7 31 18 27  2 19
  24013912.844     -816721.479 5   -557457.294 9  24013919.301
  23089972.211    -5583699.660 6  -4229092.005 9  23089978.188
  23429195.227     -361494.300 6   -171370.404 9  23429197.664
  23765454.500    18090720.406 5  14118615.755 9  23765461.051
  20289681.422   -13522103.733 7 -10437976.976 9  20289683.520
  21227924.586   -16263846.690 7 -12541041.184 9  21227927.609
  21307744.547      689238.750 7    578716.932 9  21307747.453
 94  3 17 21 24 30.0000000  0  7 16  7 31 18 27  2 19
  24023239.156     -767713.701 5   -519269.488 9  24023245.344
  23071987.219    -5678211.307 6  -4302737.236 9  23071992.773
  23446214.961     -272050.421 6   -101673.898 9  23446217.563
  23787693.367    18207580.016 5  14209675.020 9  23787700.188
  20289978.406   -13520544.470 7 -10436761.958 9  20289980.457
  21223398.211   -16287633.523 8 -12559576.355 9  21223401.164
  21316766.000      736646.439 7    615657.978 9  21316768.719
 94  3 17 21 25  0.0000000  0  7 16  7 31 18 27  2 19
  24032640.305     -718310.655 5   -480773.672 9  24032645.332
  23054034.000    -5772553.116 6  -4376250.137 9  23054039.707
  23463308.609     -182229.193 6    -31683.353 9  23463310.531
  23809952.305    18324553.228 5  14300822.790 9  23809958.586
  20290332.633   -13518680.994 7 -10435309.897 9  20290334.824
  21218927.148   -16311129.497 8 -12577884.882 9  21218930.102
  21325837.508      784318.496 7    652805.019 9  21325840.203
 94  3 17 21 25 30.0000000  0  7 16  7 31 18 27  2 19
  24042113.883     -668530.055 5   -441983.671 9  24042118.863
  23036109.125    -5866747.482 6  -4449648.141 9  23036114.504
  23480472.797      -92026.684 6     38604.292 9  23480475.539
  23832234.352    18441646.555 5  14392064.165 9  23832240.797
  20290742.898   -13516526.633 7 -10433631.171 9  20290745.031
  21214508.992   -16334347.448 8 -12595976.765 9  21214511.945
  21334958.805      832251.417 7    690155.334 9  21334961.676
 94  3 17 21 26  0.0000000  0  7 16  7 31 18 27  2 19
  24051654.336     -618391.468 5   -402914.703 9  24051661.453
  23018212.305    -5960795.452 6  -4522932.074 9  23018217.988
  23497709.398       -1443.339 6    109188.686 9  23497712.434
  23854538.180    18558856.429 5  14483396.375 9  23854545.238
  20291208.172   -13514080.728 7 -10431725.266 9  20291210.270
  21210141.422   -16357298.447 8 -12613860.640 9  21210144.434
  21344131.766      880456.291 7    727717.561 9  21344134.555
 94  3 17 21 26 30.0000000  0  7 16  7 31 18 27  2 19
  24061259.102     -567915.016 5   -363582.461 9  24061265.973
  23000346.031    -6054682.763 6  -4596090.820 9  23000351.281
  23515018.227       89513.123 6    180063.830 9  23515021.438
  23876865.375    18676180.083 5  14574817.234 9  23876872.656
  20291731.781   -13511329.121 7 -10429581.146 9  20291733.938
  21205822.500   -16379994.389 7 -12631545.765 9  21205825.617
  21353356.781      928931.542 7    765490.464 9  21353359.523
 94  3 17 21 27  0.0000000  0  7 16  7 31 18 27  2 19
  24070928.016     -517102.568 5   -323988.400 9  24070934.980
  22982513.531    -6148393.734 6  -4669112.154 9  22982518.898
  23532399.320      180850.550 6    251235.827 9  23532402.098
  23899213.039    18793619.396 5  14666328.166 9  23899219.754
  20292317.719   -13508250.223 7 -10427181.998 9  20292319.793
  21201551.430   -16402437.190 7 -12649033.637 9  21201554.582
  21362634.531      977687.348 7    803481.979 9  21362637.203
 94  3 17 21 27 30.0000000  0  7 16  7 31 18 27  2 19
  24080665.781     -465931.981 5   -284115.312 9  24080672.051
  22964716.523    -6241916.628 6  -4741986.938 9  22964721.469
  23549852.625      272568.195 6    322704.108 9  23549855.555
  23921583.750    18911176.189 5  14757930.663 9  23921590.750
  20292971.492   -13504815.883 7 -10424505.882 9  20292973.590
  21197330.242   -16424621.220 8 -12666319.871 9  21197333.160
  21371965.914     1026724.279 7    841692.541 9  21371968.949
 94  3 17 21 28  0.0000000  0  7 16  7 31 18 27  2 19
  24090473.898     -414392.660 5   -243954.899 9  24090479.125
  22946956.461    -6335245.573 6  -4814710.610 9  22946961.277
  23567377.945      364658.635 6    394462.854 9  23567381.027
  23943972.375    19028825.441 5  14849605.211 9  23943979.926
  20293695.750   -13501009.222 7 -10421539.654 9  20293697.801
  21193162.359   -16446525.382 8 -12683388.022 9  21193165.242
  21381348.906     1076031.424 7    880113.664 9  21381351.895
 94  3 17 21 28 30.0000000  0  7 16  7 31 18 27  2 19
  24100353.086     -362476.383 5   -203500.725 9  24100359.945
  22929235.469    -6428371.915 6  -4887276.404 9  22929240.449
  23584974.477      457129.942 6    466518.379 9  23584976.762
  23966376.453    19146566.550 5  14941351.337 9  23966383.664
  20294492.109   -13496823.956 7 -10418278.402 9  20294494.113
  21189048.906   -16468141.506 8 -12700231.726 9  21189051.859
  21390778.953     1125585.449 7    918727.163 9  21390781.742
 94  3 17 21 29  0.0000000  0  7 16  7 31 18 27  2 19
  24110305.422     -310183.092 5   -162752.795 9  24110310.414
  22911551.984    -6521299.377 6  -4959687.244 9  22911556.918
  23602643.953      549983.822 6    538872.004 9  23602646.578
  23988800.609    19264401.043 5  15033170.235 9  23988808.324
  20295354.250   -13492293.001 7 -10414747.781 9  20295356.195
  21184989.609   -16489472.224 8 -12716853.033 9  21184992.352
  21400253.992     1175375.347 7    957524.464 9  21400256.547
 94  3 17 21 29 30.0000000  0  7 16  7 31 18 27  2 19
  24120325.953     -257525.336 5   -121720.847 9  24120330.500
  22893908.008    -6614020.126 6  -5031937.020 9  22893912.461
  23620385.227      643211.961 6    611517.276 9  23620387.324
  24011241.648    19382331.042 5  15125063.550 9  24011247.953
  20296279.828   -13487431.323 7 -10410959.462 9  20296281.867
  21180985.055   -16510514.090 8 -12733249.264 9  21180987.902
  21409773.383     1225400.288 7    996504.917 9  21409775.855
 94  3 17 21 30  0.0000000  0  8 16  7 31 18 27  2 19 26
  24130408.625     -204542.863 5    -80435.916 9  24130413.629
  22876303.539    -6706529.150 6  -5104021.811 9  22876308.789
  23638195.867      736807.611 6    684448.912 9  23638198.363
  24033701.289    19500354.406 5  15217029.610 9  24033708.535
  20297263.648   -13482260.919 8 -10406930.569 9  20297265.477
  21177034.594   -16531275.723 8 -12749427.135 9  21177037.523
  21419337.461     1275662.326 7   1035670.120 9  21419339.898
  24366882.555      -47947.00415
 94  3 17 21 30 30.0000000  0  8 16  7 31 18 27  2 19 26
  24140548.531     -151253.979 5    -38912.190 9  24140553.547
  22858738.844    -6798828.847 6  -5175943.491 9  22858743.965
  23656072.016      830747.767 6    757648.988 9  23656074.430
  24056180.500    19618477.803 5  15309073.631 9  24056188.191
  20298301.508   -13476807.093 7 -10402680.822 9  20298303.336
  21173130.789   -16551790.803 8 -12765412.887 9  21173133.801
  21428946.969     1326160.143 7   1075019.045 9  21428949.664
  24350802.438     -132444.948 5     -2190.77319  24350805.684
 94  3 17 21 31  0.0000000  0  8 16  7 31 18 27  2 19 26
  24150749.445      -97646.400 5      2859.833 9  24150755.727
  22841216.609    -6890909.935 6  -5247694.820 9  22841221.695
  23674013.750      925035.176 6    831119.671 9  23674016.258
  24078679.266    19736716.802 5  15401207.717 9  24078686.816
  20299397.000   -13471050.006 7 -10398194.776 9  20299399.063
  21169277.977   -16572037.202 8 -12781189.271 9  21169280.977
  21438609.734     1376938.824 7   1114586.832 9  21438612.371
  24334763.570     -216731.298 5    -67868.363 9  24334766.746
 94  3 17 21 31 30.0000000  0  8 16  7 31 18 27  2 19 26
  24161008.219      -43733.168 5     44870.052 9  24161015.957
  22823733.055    -6982788.240 6  -5319288.157 9  22823737.719
  23692014.656     1019630.050 6    904829.922 9  23692017.832
  24101195.109    19855040.312 5  15493407.661 9  24101201.801
  20300551.297   -13464984.582 8 -10393468.469 9  20300553.254
  21165473.734   -16592027.988 8 -12796766.484 9  21165476.523
  21448325.125     1427993.593 7   1154369.745 9  21448327.633
  24318768.320     -300786.029 5   -133365.505 9  24318771.613
 94  3 17 21 32  0.0000000  0  8 16  7 31 18 27  2 19 26
  24171330.383       10507.811 5     87135.633 9  24171337.039
  22806289.586    -7074451.932 6  -5390714.267 9  22806294.379
  23710074.750     1114537.544 6    978783.781 9  23710077.820
  24123728.156    19973446.405 5  15585671.957 9  24123733.969
  20301767.133   -13458593.433 7 -10388488.347 9  20301769.195
  21161718.562   -16611761.483 8 -12812143.206 9  21161721.340
  21458094.047     1479329.672 7   1194371.874 9  21458096.707
  24302824.195     -384572.115 5   -198653.284 9  24302827.781
 94  3 17 21 32 30.0000000  0  8 16  7 31 18 27  2 19 26
  24181718.242       65099.556 5    129674.562 9  24181725.980
  22788886.422    -7165905.786 6  -5461976.874 9  22788891.063
  23728192.945     1209748.982 5   1052974.475 9  23728195.301
  24146273.383    20091919.871 5  15677988.767 9  24146280.051
  20303046.898   -13451868.425 7 -10383248.078 9  20303048.973
  21158009.695   -16631249.740 8 -12827328.831 9  21158012.543
  21467915.367     1530938.942 7   1234586.883 9  21467917.980
  24286934.578     -468074.677 5   -263720.185 9  24286937.836
 94  3 17 21 33  0.0000000  0  8 16  7 31 18 27  2 19 26
  24192176.680      120047.442 5    172491.018 9  24192184.184
  22771526.070    -7257133.385 6  -5533063.168 9  22771530.652
  23746370.234     1305272.251 5   1127408.160 9  23746373.012
  24168830.414    20210455.207 5  15770353.766 9  24168837.391
  20304395.352   -13444782.276 7 -10377726.399 9  20304397.402
  21154349.484   -16650484.425 8 -12842316.871 9  21154352.449
  21477789.039     1582826.542 7   1275018.771 9  21477791.664
  24271097.344     -551298.390 5   -328569.779 9  24271099.359
 94  3 17 21 33 30.0000000  0  8 16  7 31 18 27  2 19 26
  24202701.641      175362.186 5    215593.322 9  24202708.688
  22754214.344    -7348106.844 6  -5603951.437 9  22754219.043
  23764609.531     1401115.730 5   1202091.363 9  23764612.145
  24191398.625    20329057.978 5  15862771.306 9  24191405.578
  20305811.844   -13437336.948 7 -10371924.838 9  20305813.871
  21150736.250   -16669474.042 8 -12857113.955 9  21150739.004
  21487714.422     1634983.958 7   1315660.918 9  21487716.836
  24255309.820     -634266.468 5   -393220.156 9  24255313.148
 94  3 17 21 34  0.0000000  0  8 16  7 31 18 27  2 19 26
  24213299.477      231052.680 5    258988.430 9  24213304.234
  22736953.117    -7438814.475 6  -5674632.585 9  22736957.980
  23782911.883     1497301.514 5   1277041.271 9  23782915.059
  24213982.328    20447735.172 5  15955246.849 9  24213989.727
  20307296.203   -13429537.856 7 -10365847.617 9  20307298.078
  21147170.844   -16688209.946 8 -12871713.336 9  21147173.563
  21497691.992     1687417.251 7   1356518.022 9  21497694.453
  24239565.086     -717002.597 5   -457689.812 9  24239567.559
 94  3 17 21 34 30.0000000  0  8 16  7 31 18 27  2 19 26
  24223966.672      287112.433 5    302671.262 9  24223973.859
  22719740.727    -7529265.946 6  -5745114.116 9  22719745.660
  23801283.383     1593841.356 6   1352267.081 9  23801286.852
  24236582.555    20566497.005 5  16047788.326 9  24236589.387
  20308848.445   -13421382.350 7 -10359492.666 9  20308850.438
  21143657.539   -16706672.412 8 -12886099.655 9  21143660.293
  21507724.281     1740139.638 7   1397600.391 9  21507727.035
  24223862.648     -799515.871 5   -521985.806 9  24223865.402
 94  3 17 21 35  0.0000000  0  8 16  7 31 18 27  2 19 26
  24234700.750      343517.830 5    346623.430 9  24234707.738
  22702576.070    -7619465.857 6  -5815399.641 9  22702581.367
  23819721.602     1690734.217 6   1427767.961 9  23819724.297
  24259200.844    20685350.847 5  16140401.488 9  24259206.867
  20310467.391   -13412873.850 7 -10352862.658 9  20310469.395
  21140201.047   -16724835.418 8 -12900252.624 9  21140203.871
  21517813.914     1793159.203 7   1438914.328 9  21517816.750
  24208205.133     -881801.329 5   -586104.286 9  24208208.180
 94  3 17 21 35 30.0000000  0  8 16  7 31 18 27  2 19 26
  24245497.484      400260.600 5    390838.459 9  24245504.508
  22685455.344    -7709434.309 6  -5885504.789 9  22685460.652
  23838227.875     1787981.619 6   1503545.097 9  23838230.172
  24281834.422    20804296.438 5  16233086.159 9  24281841.375
  20312150.000   -13404029.866 7 -10345971.240 9  20312151.852
  21136803.172   -16742690.902 8 -12914165.966 9  21136805.984
  21527959.523     1846474.751 7   1480458.901 9  21527962.313
  24192590.711     -963850.437 5   -650038.612 9  24192593.688
 94  3 17 21 36  0.0000000  0  8 16  7 31 18 27  2 19 26
  24256359.906      457333.336 5    435310.601 9  24256367.176
  22668376.875    -7799183.776 6  -5955439.326 9  22668382.043
  23856804.609     1885601.942 6   1579612.834 9  23856806.836
  24304488.313    20923343.332 5  16325849.740 9  24304494.383
  20313901.945   -13394825.299 7 -10338798.846 9  20313903.914
  21133468.422   -16760216.246 8 -12927822.060 9  21133471.352
  21538163.336     1900096.687 7   1522242.219 9  21538166.125
  24177025.938    -1045647.763 5   -713776.725 9  24177028.633
 94  3 17 21 36 30.0000000  0  8 16  7 31 18 27  2 19 26
  24267280.086      514723.403 5    480030.045 8  24267285.547
  22651339.117    -7888715.358 6  -6025204.072 9  22651344.285
  23875450.930     1983590.344 6   1655967.384 9  23875454.023
  24327162.539    21042493.400 5  16418693.739 9  24327169.785
  20315724.617   -13385247.014 7 -10331335.250 9  20315726.703
  21130193.258   -16777426.608 8 -12941232.708 9  21130196.199
  21548423.734     1954014.238 7   1564255.884 9  21548426.441
  24161509.805    -1127183.896 5   -777311.341 9  24161512.465
 94  3 17 21 37  0.0000000  0  8 16  7 31 18 27  2 19 26
  24278263.930      572445.341 5    525008.057 9  24278270.070
  22634350.023    -7977993.179 6  -6094771.074 9  22634354.863
  23894166.289     2081944.883 6   1732607.237 9  23894169.148
  24349858.758    21161763.878 5  16511631.542 9  24349864.594
  20317619.180   -13375289.150 7 -10323575.872 9  20317621.277
  21126977.063   -16794329.086 8 -12954403.449 9  21126979.875
  21558741.719     2008233.920 7   1606504.966 9  21558744.320
  24146043.594    -1208458.277 5   -840641.979 9  24146046.172
 94  3 17 21 37 30.0000000  0  8 16  7 31 18 27  2 19 26
  24289316.438      630521.883 5    570262.377 9  24289323.883
  22617412.484    -8067000.684 6  -6164127.441 9  22617417.031
  23912954.344     2180675.339 6   1809540.016 9  23912957.051
  24372577.484    21281152.939 5  16604661.775 8  24372584.344
  20319588.383   -13364943.557 7 -10315514.376 9  20319590.340
  21123815.234   -16810942.722 8 -12967349.116 9  21123818.129
  21569115.281     2062750.862 7   1648985.683 9  21569117.848
  24130627.242    -1289470.094 5   -903768.025 9  24130630.453
 94  3 17 21 38  0.0000000  0  8 16  7 31 18 27  2 19 26
  24300434.641      688951.263 5    615791.675 9  24300441.332
  22600531.234    -8155713.520 6  -6233254.216 9  22600535.395
  23931812.461     2279773.867 6   1886759.608 9  23931814.852
  24395317.102    21400649.259 5  16697775.583 9  24395323.641
  20321631.352   -13354206.346 7 -10307147.709 9  20321633.250
  21120706.961   -16827277.408 8 -12980077.415 9  21120709.949
  21579544.688     2117554.628 7   1691689.893 9  21579547.430
  24115263.469    -1370212.473 5   -966684.102 9  24115266.199
 94  3 17 21 38 30.0000000  0  7  7 31 18 27  2 19 26
  22583706.578    -8244129.776 6  -6302149.878 9  22583710.586
  23950733.469     2379203.307 6   1964237.046 9  23950736.141
  24418073.914    21520230.488 5  16790955.521 8  24418081.207
  20323747.094   -13343089.734 7 -10298485.413 9  20323749.145
  21117648.469   -16843349.306 8 -12992600.944 9  21117651.574
  21590026.578     2172637.444 7   1734611.549 9  21590029.273
  24099952.758    -1450666.813 5  -1029375.751 9  24099955.641
 94  3 17 21 39  0.0000000  0  7  7 31 18 27  2 19 26
  22566940.656    -8332230.167 6  -6370799.415 9  22566945.320
  23969717.117     2478964.737 5   2041973.201 9  23969719.543
  24440843.477    21639888.364 5  16884195.202 9  24440850.828
  20325938.875   -13331571.055 7 -10289509.823 9  20325940.879
  21114645.414   -16859130.875 8 -13004898.248 9  21114648.379
  21600565.156     2228019.510 7   1777766.386 9  21600567.863
  24084704.023    -1530801.134 5  -1091818.052 9  24084706.531
 94  3 17 21 39 30.0000000  0  6  7 31 27  2 19 26
  22550232.156    -8420035.795 6  -6439219.251 9  22550236.586
  23988762.641     2579048.876 5   2119960.825 9  23988765.078
  20328207.492   -13319650.256 8 -10280220.892 9  20328209.414
  21111695.703   -16874630.770 8 -13016976.065 9  21111698.621
  21611157.406     2283681.300 7   1821139.191 9  21611160.172
  24069517.813    -1610603.308 5  -1154001.499 9  24069520.930
 94  3 17 21 40  0.0000000  0  6  7 31 27  2 19 26
  22533580.109    -8507542.314 6  -6507406.021 9  22533584.715
  24007869.984     2679456.662 5   2198200.660 9  24007872.891
  20330552.883   -13307325.033 7 -10270616.817 9  20330554.934
  21108801.930   -16889838.100 8 -13028825.901 9  21108804.836
  21621805.172     2339635.944 7   1864740.191 9  21621807.879
  24054398.781    -1690054.916 5  -1215911.786 9  24054401.371
 94  3 17 21 40 30.0000000  0  6  7 31 27  2 19 26
  22516982.930    -8594758.672 6  -6575366.687 9  22516987.617
  24027037.516     2780187.324 5   2276692.032 9  24027041.477
  20332974.063   -13294600.504 7 -10260701.597 9  20332976.219
  21105963.891   -16904753.443 8 -13040448.222 9  21105966.504
  21632511.492     2395897.319 7   1908580.210 9  21632514.246
  24039342.289    -1769174.833 5  -1277563.597 9  24039345.078
 94  3 17 21 41  0.0000000  0  6  7 31 27  2 19 26
  22500443.344    -8681674.945 6  -6643093.528 9  22500448.160
  24046270.055     2881252.517 5   2355444.091 9  24046272.621
  20335468.625   -13281491.511 7 -10250486.797 9  20335470.687
  21103180.906   -16919378.169 8 -13051844.089 9  21103183.426
  21643276.453     2452468.003 7   1952661.244 9  21643279.184
  24024343.258    -1847995.017 5  -1338981.893 9  24024346.023
 94  3 17 21 41 30.0000000  0  6  7 31 27  2 19 26
  22483961.586    -8768285.402 6  -6710582.065 9  22483966.121
  24065570.164     2982671.040 6   2434471.506 9  24065572.941
  20338034.578   -13268007.519 7 -10239979.794 9  20338036.852
  21100453.961   -16933707.346 8 -13063009.660 9  21100456.609
  21654104.156     2509366.844 7   1996997.993 9  21654106.699
  24009402.281    -1926513.457 5  -1400165.008 9  24009405.082
 94  3 17 21 42  0.0000000  0  6  7 31 27  2 19 26
  22467539.344    -8854585.590 6  -6777828.839 9  22467543.621
  24084933.695     3084430.419 6   2513764.491 9  24084936.227
  20340670.047   -13254157.495 7 -10229187.572 9  20340672.285
  21097785.227   -16947732.060 8 -13073937.988 9  21097787.781
  21664996.102     2566606.308 7   2041600.153 9  21664998.937
  23994517.156    -2004738.288 5  -1461119.359 9  23994520.367
 94  3 17 21 42 30.0000000  0  6  7 31 27  2 19 26
  22451173.961    -8940585.538 6  -6844841.658 9  22451178.402
  24104357.641     3186504.788 5   2593302.943 9  24104360.629
  20343376.180   -13239937.567 7 -10218107.110 9  20343378.207
  21095174.273   -16961453.599 8 -13084630.081 9  21095176.805
  21675952.523     2624182.132 7   2086464.428 9  21675955.137
  23979683.195    -2082687.477 5  -1521858.925 9  23979686.371
 94  3 17 21 43  0.0000000  0  6  7 31 27  2 19 26
  22434863.305    -9026300.231 6  -6911632.198 9  22434867.805
  24123838.547     3288877.380 5   2673073.744 9  24123841.723
  20346153.359   -13225342.646 7 -10206734.450 9  20346155.656
  21092618.234   -16974884.214 8 -13095095.472 9  21092620.836
  21686968.344     2682070.762 7   2131572.431 9  21686971.027
  23964905.430    -2160345.633 5  -1582371.708 9  23964907.832
 94  3 17 21 43 30.0000000  0  6  7 31 27  2 19 26
  22418605.656    -9111732.470 6  -6978202.638 9  22418610.332
  24143376.805     3391548.004 6   2753076.769 9  24143378.996
  20349003.047   -13210367.280 7 -10195065.347 9  20349005.426
  21090118.711   -16988017.703 8 -13105329.338 9  21090121.371
  21698041.258     2740257.272 7   2176912.540 9  21698044.047
  23950188.133    -2237689.313 6  -1642639.453 9  23950190.910
 94  3 17 21 44  0.0000000  0  6  7 31 27  2 19 26
  22402402.719    -9196877.907 6  -7044549.604 9  22402407.641
  24162964.922     3494487.460 6   2833289.291 9  24162968.109
  20351926.211   -13195006.246 7 -10183095.714 9  20351928.484
  21087675.289   -17000860.716 8 -13115336.868 9  21087677.879
  21709165.453     2798716.757 7   2222465.357 9  21709168.125
  23935529.711    -2314719.531 6  -1702662.955 9  23935531.902
 94  3 17 21 44 30.0000000  0  6  7 31 27  2 19 26
  22386253.172    -9281743.913 6  -7110678.837 9  22386257.461
  24182605.570     3597701.989 5   2913716.124 9  24182608.055
  20354922.609   -13179259.023 7 -10170825.146 9  20354924.684
  21085283.305   -17013429.658 8 -13125130.831 9  21085285.660
  21720339.391     2857435.306 7   2268220.052 9  21720342.203
  23920930.961    -2391435.434 5  -1762441.537 9  23920933.246
 94  3 17 21 45  0.0000000  0  6  7 31 27  2 19 26
  22370161.070    -9366310.215 6  -7176574.536 9  22370165.430
  24202303.453     3701213.213 5   2994374.168 9  24202306.371
  20357992.242   -13163129.935 7 -10158257.026 9  20357994.422
  21082944.977   -17025717.009 8 -13134705.370 9  21082947.332
  21731564.234     2916421.388 7   2314183.212 9  21731567.023
  23906395.680    -2467815.660 5  -1821958.558 9  23906398.059
 94  3 17 21 45 30.0000000  0  6  7 31 27  2 19 26
  22354126.414    -9450571.332 6  -7242232.417 9  22354130.949
  24222054.344     3805002.776 5   3075249.088 9  24222057.742
  20361129.406   -13146643.195 7 -10145410.215 9  20361131.574
  21080658.664   -17037732.159 8 -13144067.811 9  21080661.207
  21742840.992     2975681.812 7   2360360.144 9  21742843.453
  23891922.891    -2543871.536 5  -1881222.854 9  23891925.188
 94  3 17 21 46  0.0000000  0  6  7 31 27  2 19 26
  22338151.281    -9534523.253 6  -7307649.363 9  22338155.488
  24241855.969     3909062.734 5   3156334.750 9  24241859.004
  20364337.570   -13129783.339 7 -10132272.658 9  20364339.668
  21078421.063   -17049491.035 8 -13153230.557 9  21078423.535
  21754174.063     3035238.411 7   2406767.867 9  21754176.219
  23877510.133    -2619609.165 6  -1940239.147 9  23877512.605
 94  3 17 21 46 30.0000000  0  6  7 31 27  2 19 26
  22322231.477    -9618178.329 6  -7372835.010 9  22322235.543
  24261710.891     4013399.760 5   3237636.313 9  24261713.984
  20367614.891   -13112560.064 7 -10118851.917 9  20367616.930
  21076229.828   -17061006.067 8 -13162203.298 9  21076232.336
  21765565.016     3095097.131 7   2453411.004 9  21765567.441
  23863155.063    -2695045.233 6  -1999020.464 9  23863157.535
 94  3 17 21 47  0.0000000  0  5  7 27  2 19 26
  22306370.727    -9701528.659 6  -7437783.191 9  22306374.781
  20370960.695   -13094978.549 7 -10105152.029 9  20370963.016
  21074084.867   -17072278.897 8 -13170987.309 9  21074087.422
  21777013.133     3155256.156 7   2500288.145 9  21777015.688
  23848856.109    -2770185.535 6  -2057571.306 9  23848858.664
 94  3 17 21 47 30.0000000  0  5  7 27  2 19 26
  22290567.273    -9784574.883 6  -7502494.411 9  22290571.492
  20374377.438   -13077023.239 7 -10091160.883 9  20374379.746
  21071985.703   -17083310.160 8 -13179583.078 9  21071988.176
  21788516.203     3215704.740 7   2547390.919 9  21788518.688
  23834612.727    -2845037.002 6  -2115897.110 9  23834614.871
 94  3 17 21 48  0.0000000  0  5  7 27  2 19 26
  22274818.258    -9867337.405 6  -7566984.560 9  22274822.277
  20377867.266   -13058683.574 7 -10076870.244 9  20377869.609
  21069932.031   -17094100.331 8 -13187990.992 9  21069934.469
  21800070.273     3276422.320 7   2594703.294 9  21800072.910
  23820421.109    -2919615.775 6  -2174010.396 9  23820423.090
 94  3 17 21 48 30.0000000  0  5  7 27  2 19 26
  22259126.398    -9949796.920 7  -7631238.604 9  22259130.395
  20381430.164   -13039960.396 7 -10062280.754 9  20381432.437
  21067929.289   -17104626.102 8 -13196192.879 9  21067931.680
  21811676.008     3337411.552 7   2642227.359 9  21811678.691
  23806282.180    -2993911.666 5  -2231903.261 9  23806284.406
 94  3 17 21 49  0.0000000  0  5  7 27  2 19 26
  22243494.859   -10031940.099 7  -7695246.159 9  22243498.586
  20385066.188   -13020855.279 7 -10047393.654 9  20385068.320
  21065977.031   -17114884.115 8 -13204186.124 9  21065979.539
  21823332.781     3398667.248 7   2689959.044 9  21823335.324
  23792201.242    -3067911.967 6  -2289565.785 9  23792203.797
 94  3 17 21 49 30.0000000  0  5  7 27  2 19 26
  22227922.805   -10113771.401 7  -7759010.695 9  22227927.000
  20388776.148   -13001357.456 7 -10032200.544 9  20388778.281
  21064076.273   -17124872.438 8 -13211969.218 9  21064078.898
  21835040.172     3460192.478 7   2737900.750 9  21835042.902
  23778176.258    -3141612.392 6  -2346994.631 9  23778177.922
 94  3 17 21 50  0.0000000  0  5  7 27  2 19 26
  22212413.664   -10195273.396 7  -7822518.634 9  22212417.988
  20392561.414   -12981466.848 7 -10016701.370 9  20392563.688
  21062225.875   -17134596.189 8 -13219546.152 9  21062228.348
  21846802.367     3521999.274 7   2786061.857 9  21846805.109
  23764212.031    -3214994.949 6  -2404175.799 9  23764214.363
 94  3 17 21 50 30.0000000  0  5  7 27  2 19 26
  22196969.367   -10276431.625 7  -7885758.702 9  22196973.445
  20396417.977   -12961200.408 7 -10000909.346 9  20396420.309
  21060424.891   -17144060.026 8 -13226920.553 9  21060427.563
  21858617.680     3584090.349 7   2834444.482 9  21858620.188
  23750310.898    -3288044.798 6  -2461097.724 9  23750313.324
 94  3 17 21 51  0.0000000  0  5  7 27  2 19 26
  22181588.727   -10357257.462 7  -7948739.773 9  22181592.629
  20400346.281   -12940554.609 7  -9984821.717 9  20400348.613
  21058671.586   -17153274.285 8 -13234100.480 9  21058674.258
  21870487.492     3646467.033 7   2883049.654 9  21870490.117
  23736476.008    -3360747.676 6  -2517749.277 9  23736478.926
 94  3 17 21 51 30.0000000  0  5  7 27  2 19 26
  22166267.258   -10437771.719 7  -8011478.058 9  22166270.844
  20404346.922   -12919531.032 7  -9968439.709 9  20404349.172
  21056964.484   -17162246.648 8 -13241091.909 9  21056967.145
  21882411.508     3709126.358 7   2931875.071 9  21882414.355
  23722705.734    -3433113.072 6  -2574137.864 9  23722708.324
 94  3 17 21 52  0.0000000  0  5  7 27  2 19 26
  22151007.602   -10517963.061 7  -8073964.722 9  22151011.164
  20408419.820   -12898131.254 7  -9951764.562 9  20408422.199
  21055306.055   -17170960.356 8 -13247881.796 9  21055308.445
  21894392.414     3772087.624 7   2980935.762 9  21894395.203
  23709001.539    -3505125.469 6  -2630251.396 9  23709003.977
 94  3 17 21 52 30.0000000  0  5  7 27  2 19 26
  22135806.133   -10597848.318 7  -8136212.873 9  22135809.836
  20412561.930   -12876364.419 7  -9934803.392 9  20412564.344
  21053698.336   -17179408.918 8 -13254465.076 9  21053700.750
  21906432.148     3835356.440 7   3030236.111 9  21906435.066
  23695363.242    -3576794.733 6  -2686097.538 9  23695366.395
 94  3 17 21 53  0.0000000  0  5  7 27  2 19 26
  22120663.039   -10677426.051 7  -8198221.399 9  22120666.590
  20416777.367   -12854209.677 7  -9917539.958 9  20416779.535
  21052141.875   -17187590.179 8 -13260840.068 9  21052144.219
  21918529.398     3898928.840 7   3079773.026 9  21918531.766
  23681790.445    -3648121.438 6  -2741676.763 9  23681793.574
 94  3 17 21 53 30.0000000  0  5  7 27  2 19 26
  22105580.742   -10756681.870 7  -8259979.081 9  22105584.398
  20421069.063   -12831657.262 7  -9899966.642 9  20421071.102
  21050637.180   -17195495.998 8 -13267000.431 9  21050639.629
  21930681.469     3962789.895 7   3129534.880 9  21930683.941
  23668283.102    -3719104.857 6  -2796988.484 9  23668285.891
 94  3 17 21 54  0.0000000  0  5  7 27  2 19 26
  22090562.977   -10835600.261 7  -8321473.837 9  22090566.738
  20425435.789   -12808711.251 7  -9882086.636 9  20425437.957
  21049183.461   -17203135.432 8 -13272953.216 9  21049186.121
  21942889.945     4026942.127 7   3179523.614 9  21942892.512
  23654843.023    -3789732.167 6  -2852022.698 9  23654846.117
 94  3 17 21 54 30.0000000  0  5  7 27  2 19 26
  22075609.461   -10914178.531 7  -8382703.558 9  22075613.527
  20429877.305   -12785368.603 7  -9863897.565 9  20429879.719
  21047775.266   -17210535.494 8 -13278719.483 9  21047777.914
  21955147.984     4091361.053 7   3229720.155 9  21955150.949
  23641469.914    -3860009.749 6  -2906784.428 9  23641472.293
 94  3 17 21 55  0.0000000  0  5  7 27  2 19 26
  22060723.344   -10992409.399 7  -8443662.580 9  22060727.023
  20434397.219   -12761617.723 7  -9845390.392 9  20434399.539
  21046411.016   -17217703.228 8 -13284304.715 9  21046413.664
  21967454.398     4156031.139 7   3280112.411 9  21967457.047
  23628163.305    -3929931.886 6  -2961269.184 9  23628165.520
 94  3 17 21 55 30.0000000  0  5  7 27  2 19 26
  22045902.836   -11070291.254 7  -8504349.641 9  22045906.469
  20438992.188   -12737472.221 7  -9826575.724 9  20438994.426
  21045091.430   -17224637.937 8 -13289708.358 9  21045093.938
  21979812.313     4220971.673 7   3330715.399 9  21979814.984
  23614927.359    -3999489.544 6  -3015469.911 9  23614929.680
 94  3 17 21 56  0.0000000  0  5  7 27  2 19 26
  22031147.891   -11147826.456 7  -8564766.589 9  22031151.559
  20443660.609   -12712939.069 7  -9807458.984 9  20443662.742
  21043817.172   -17231335.595 8 -13294927.294 9  21043819.797
  21992224.727     4286200.208 7   3381542.790 9  21992227.457
  23601761.711    -4068678.346 6  -3069383.236 9  23601764.020
 94  3 17 21 56 30.0000000  0  5  7 27  2 19 26
  22016461.000   -11225005.999 7  -8624906.396 9  22016464.645
  20448404.477   -12688008.567 7  -9788032.614 9  20448406.551
  21042591.797   -17237774.071 8 -13299944.267 9  21042594.188
  22004689.656     4351706.050 7   3432586.272 9  22004692.516
  23588665.039    -4137499.629 6  -3123010.163 9  23588667.113
 94  3 17 21 57  0.0000000  0  5  7 27  2 19 26
  22001841.664   -11301830.403 7  -8684769.471 9  22001845.391
  20453221.422   -12662697.238 8  -9768309.494 9  20453223.355
  21041416.555   -17243949.789 8 -13304756.489 9  21041418.910
  22017208.906     4417493.139 7   3483848.909 9  22017211.777
  23575638.039    -4205958.306 6  -3176354.533 9  23575640.359
 94  3 17 21 57 30.0000000  0  5  7 27  2 19 26
  21987292.141   -11378288.589 7  -8744347.189 9  21987295.809
  20458108.211   -12637016.612 7  -9748298.613 9  20458110.168
  21040292.219   -17249856.438 8 -13309359.054 9  21040294.844
  22029783.453     4483575.905 7   3535341.952 9  22029786.453
  23562679.406    -4274052.807 6  -3229415.142 9  23562682.336
 94  3 17 21 58  0.0000000  0  5  7 27  2 19 26
  21972815.336   -11454365.411 7  -8803627.746 9  21972818.863
  20463067.008   -12610956.591 7  -9727992.096 9  20463069.023
  21039220.422   -17255488.297 8 -13313747.498 9  21039223.293
  22042414.773     4549949.591 7   3587061.692 9  22042417.586
  23549790.445    -4341784.632 6  -3282193.140 9  23549792.918
 94  3 17 21 58 30.0000000  0  5  7 27  2 19 26
  21958411.242   -11530057.652 7  -8862608.624 9  21958415.016
  20468098.148   -12584518.056 7  -9707390.642 9  20468100.281
  21038199.094   -17260856.582 8 -13317930.559 9  21038201.719
  22055100.367     4616616.068 7   3639009.576 9  22055103.191
  23536969.680    -4409160.599 6  -3334693.852 9  23536972.469
 94  3 17 21 59  0.0000000  0  5  7 27  2 19 26
  21944078.391   -11605378.135 7  -8921299.823 9  21944081.883
  20473202.156   -12557693.879 7  -9686488.687 9  20473204.324
  21037226.078   -17265969.269 8 -13321914.448 9  21037228.445
  22067845.367     4683589.598 7   3691196.727 9  22067848.121
  23524216.547    -4476176.380 6  -3386913.906 9  23524218.996
 94  3 17 21 59 30.0000000  0  5  7 27  2 19 26
  21929811.852   -11680349.243 7  -8979718.792 9  21929815.168
  20478383.609   -12530467.369 7  -9665273.226 9  20478385.648
  21036302.766   -17270822.340 8 -13325696.038 9  21036304.980
  22080646.688     4750859.888 7   3743615.119 9  22080649.570
  23511533.320    -4542828.127 6  -3438850.299 9  23511535.770
 94  3 17 22  0  0.0000000  0  5  7 27  2 19 26
  21915613.609   -11754962.800 7  -9037859.141 9  21915616.773
  20483646.266   -12502813.003 7  -9643724.370 9  20483648.434
  21035428.672   -17275416.219 8 -13329275.661 9  21035431.133
  22093503.273     4818421.907 7   3796260.832 9  22093506.191
  23498919.664    -4609111.350 6  -3490499.541 9  23498922.266
 94  3 17 22  0 30.0000000  0  5  7 27  2 19 26
  21901482.969   -11829217.595 7  -9095719.935 9  21901486.285
  20488991.242   -12474725.436 7  -9621837.951 9  20488993.293
  21034602.148   -17279758.473 8 -13332659.215 9  21034604.738
  22106415.703     4886277.137 7   3849135.010 9  22106418.609
  23486377.523    -4675021.157 6  -3541857.812 9  23486380.148
 94  3 17 22  1  0.0000000  0  5  7 27  2 19 26
  21887419.727   -11903119.218 7  -9153305.532 9  21887423.008
  20494418.156   -12446205.514 7  -9599614.625 9  20494420.207
  21033822.391   -17283856.123 8 -13335852.167 9  21033824.723
  22119382.188     4954416.460 7   3902230.554 9  22119385.305
  23473906.492    -4740560.304 6  -3592927.238 9  23473909.223
 94  3 17 22  1 30.0000000  0  5  7 27  2 19 26
  21873428.281   -11976645.217 7  -9210598.438 9  21873431.621
  20499926.969   -12417255.605 7  -9577056.254 9  20499929.254
  21033088.773   -17287711.402 8 -13338856.259 9  21033091.152
  22132403.469     5022846.082 7   3955552.304 9  22132406.270
  23461506.250    -4805719.743 6  -3643700.787 9  23461508.898
 94  3 17 22  2  0.0000000  0  5  7 27  2 19 26
  21859512.148   -12049774.410 7  -9267582.150 9  21859515.488
  20505515.984   -12387885.317 7  -9554170.307 9  20505518.340
  21032400.133   -17291330.317 8 -13341676.173 9  21032402.746
  22145484.625     5091585.034 7   4009115.096 9  22145487.309
  23449182.133    -4870485.186 6  -3694167.310 9  23449184.875
 94  3 17 22  2 30.0000000  0  5  7 27  2 19 26
  21845669.555   -12122515.576 7  -9324263.501 9  21845672.930
  20511182.570   -12358106.850 7  -9530966.303 9  20511184.656
  21031756.953   -17294711.204 8 -13344310.612 9  21031759.449
  22158626.328     5160645.231 7   4062928.220 9  22158629.141
  23436934.398    -4934844.670 6  -3744317.506 9  23436937.117
 94  3 17 22  3  0.0000000  0  5  7 27  2 19 26
  21831902.180   -12194866.229 7  -9380640.561 9  21831905.309
  20516929.797   -12327905.345 7  -9507432.659 9  20516931.918
  21031160.891   -17297843.331 8 -13346751.212 9  21031163.117
  22171830.398     5230030.558 7   4116994.696 9  22171833.305
  23424766.023    -4998789.930 6  -3794144.932 9  23424768.602
 94  3 17 22  3 30.0000000  0  5  7 27  2 19 26
  21818208.219   -12266827.065 7  -9436713.866 9  21818211.406
  20522756.094   -12297288.192 7  -9483575.133 9  20522758.262
  21030613.352   -17300720.178 8 -13348992.892 9  21030615.613
  22185094.789     5299738.151 7   4171312.276 9  22185097.672
  23412677.109    -5062320.103 6  -3843648.936 9  23412679.688
 94  3 17 22  4  0.0000000  0  5  7 27  2 19 26
  21804588.242   -12338401.730 7  -9492486.261 9  21804591.488
  20528659.680   -12266263.981 7  -9459400.423 9  20528661.941
  21030114.961   -17303337.716 8 -13351032.518 9  21030117.387
  22198418.852     5369756.048 7   4225871.656 9  22198422.133
  23400662.242    -5125455.094 6  -3892844.992 9  23400664.199
 94  3 17 22  4 30.0000000  0  5  7 27  2 19 26
  21791042.773   -12409582.593 7  -9547951.796 9  21791046.020
  20534644.086   -12234815.947 7  -9434895.458 9  20534646.313
  21029668.594   -17305683.331 8 -13352860.256 9  21029670.961
  22211799.328     5440071.628 7   4280662.995 9  22211802.070
  23388721.602    -5188205.250 6  -3941741.190 9  23388723.734
 94  3 17 22  5  0.0000000  0  5  7 27  2 19 26
  21777575.680   -12480351.642 7  -9603096.438 9  21777579.078
  20540711.531   -12202931.439 7  -9410050.383 9  20540713.770
  21029278.445   -17307734.336 8 -13354458.429 9  21029280.895
  22225236.289     5510683.330 7   4335685.077 9  22225239.195
  23376856.461    -5250555.956 6  -3990326.110 9  23376858.887
 94  3 17 22  5 30.0000000  0  5  7 27  2 19 26
  21764189.203   -12550697.557 7  -9657911.362 9  21764192.578
  20546859.023   -12170627.956 7  -9384878.841 9  20546861.027
  21028944.625   -17309489.368 8 -13355825.973 9  21028947.145
  22238728.102     5581580.979 7   4390929.976 9  22238730.727
  23365068.969    -5312503.375 6  -4038596.794 9  23365070.691
 94  3 17 22  6  0.0000000  0  5  7 27  2 19 26
  21750884.148   -12620619.475 7  -9712395.911 9  21750887.289
  20553085.063   -12137910.169 7  -9359384.457 9  20553087.090
  21028665.734   -17310954.313 8 -13356967.480 9  21028668.113
  22252272.211     5652756.796 7   4446391.632 9  22252274.977
  23353358.422    -5374039.669 6  -4086547.115 9  23353360.332
 94  3 17 22  6 30.0000000  0  5  7 27  2 19 26
  21737658.633   -12690118.409 7  -9766550.857 9  21737661.996
  20559389.336   -12104779.257 7  -9333568.161 9  20559391.445
  21028440.414   -17312137.928 8 -13357889.766 9  21028442.641
  22265870.516     5724215.016 7   4502073.339 9  22265873.504
  23341732.805    -5435137.426 6  -4134155.710 9  23341734.691
 94  3 17 22  7  0.0000000  0  5  7 27  2 19 26
  21724514.789   -12759188.605 7  -9820371.724 9  21724518.176
  20565770.984   -12071243.095 7  -9307436.089 9  20565773.328
  21028266.859   -17313052.027 8 -13358602.039 9  21028269.074
  22279525.602     5795972.336 7   4557988.115 9  22279528.414
  23330192.906    -5495778.907 6  -4181408.777 9  23330194.945
 94  3 17 22  7 30.0000000  0  5  7 27  2 19 26
  21711449.977   -12827843.693 7  -9873869.134 9  21711453.258
  20572227.273   -12037315.799 7  -9280999.237 9  20572229.453
  21028137.227   -17313732.277 8 -13359132.089 9  21028139.688
  22293235.773     5868018.462 7   4614127.931 9  22293238.680
  23318736.789    -5555976.065 6  -4228315.609 9  23318738.969
 94  3 17 22  8  0.0000000  0  5  7 27  2 19 26
  21698463.281   -12896090.085 7  -9927048.078 9  21698466.504
  20578761.078   -12002981.640 7  -9254245.345 9  20578763.199
  21028052.188   -17314177.983 8 -13359479.378 9  21028054.590
  22307002.680     5940365.833 7   4670502.489 9  22307005.844
  23307369.250    -5615714.004 6  -4274864.614 9  23307371.652
 94  3 17 22  8 30.0000000  0  5  7 27  2 19 26
  21685553.109   -12963929.492 7  -9979909.892 9  21685556.484
  20585375.094   -11968222.926 7  -9227160.633 9  20585377.227
  21028009.234   -17314402.398 8 -13359654.232 9  21028011.438
  22320825.383     6013008.353 7   4727107.019 9  22320828.594
  23296086.984    -5675002.321 6  -4321063.267 9  23296089.398
 94  3 17 22  9  0.0000000  0  5  7 27  2 19 26
  21672722.570   -13031355.767 7 -10032449.781 9  21672725.898
  20592074.602   -11933016.336 7  -9199726.917 9  20592076.945
  21028011.336   -17314392.365 8 -13359646.398 9  21028013.820
  22334707.687     6085959.225 7   4783951.828 9  22334711.063
  23284891.336    -5733835.840 6  -4366907.524 9  23284893.867
 94  3 17 22  9 30.0000000  0  5  7 27  2 19 26
  21659970.938   -13098365.144 7 -10084664.821 9  21659974.406
  20598859.859   -11897358.132 7  -9171941.312 9  20598862.320
  21028062.250   -17314126.804 8 -13359439.457 9  21028064.746
  22348648.836     6159220.655 6   4841038.620 9  22348652.281
  23273781.563    -5792215.897 6  -4412398.452 9  23273784.012
 94  3 17 22 10  0.0000000  0  5  7 27  2 19 26
  21647301.094   -13164945.207 7 -10136545.328 9  21647304.492
  20605733.867   -11861236.674 7  -9143794.726 9  20605736.199
  21028163.883   -17313590.534 8 -13359021.572 9  21028166.098
  22362650.453     6232799.459 7   4898372.720 9  22362653.512
  23262756.969    -5850151.234 6  -4457542.832 9  23262759.160
 94  3 17 22 10 30.0000000  0  5  7 27  2 19 26
  21634716.320   -13231077.634 7 -10188077.029 9  21634719.742
  20612697.109   -11824644.959 7  -9115281.699 9  20612699.371
  21028318.547   -17312777.036 8 -13358387.665 9  21028320.785
  22376714.039     6306702.159 7   4955959.203 9  22376716.969
  23251817.281    -5907640.195 6  -4502339.388 9  23251819.648
 94  3 17 22 11  0.0000000  0  5  7 27  2 19 26
  21622220.367   -13296743.871 7 -10239245.464 9  21622223.836
  20619747.289   -11787595.942 7  -9086412.331 9  20619749.469
  21028530.398   -17311664.858 8 -13357521.017 9  21028532.684
  22390840.750     6380937.275 7   5013804.719 9  22390843.914
  23240964.609    -5964672.023 6  -4546779.739 9  23240967.094
 94  3 17 22 11 30.0000000  0  5  7 27  2 19 26
  21609816.023   -13361930.991 7 -10290040.558 9  21609819.387
  20626885.844   -11750081.677 7  -9057180.429 9  20626888.129
  21028799.719   -17310248.999 8 -13356417.736 9  21028801.992
  22405030.172     6455505.761 7   5071910.004 9  22405033.277
  23230198.359    -6021248.623 6  -4590865.375 9  23230200.621
 94  3 17 22 12  0.0000000  0  5  7 27  2 19 26
  21597504.109   -13426630.725 7 -10340455.870 9  21597507.156
  20634115.383   -11712090.959 7  -9027577.283 9  20634117.691
  21029125.984   -17308534.113 8 -13355081.449 9  21029128.270
  22419283.695     6530407.921 7   5130275.296 9  22419286.660
  23219522.359    -6077352.221 6  -4634582.425 9  23219524.820
 94  3 17 22 12 30.0000000  0  5  7 27  2 19 26
  21585285.148   -13490841.257 7 -10390489.981 9  21585288.313
  20641434.492   -11673628.803 7  -8997606.779 9  20641436.813
  21029510.250   -17306514.577 8 -13353507.770 9  21029512.617
  22433602.281     6605651.346 7   5188906.521 9  22433604.953
  23208938.867    -6132965.605 6  -4677917.502 9  23208941.352
 94  3 17 22 13  0.0000000  0  5  7 27  2 19 26
  21573160.570   -13554557.335 7 -10440138.805 9  21573163.465
  20648845.375   -11634685.323 7  -8967261.210 9  20648847.625
  21029955.000   -17304177.731 8 -13351686.840 9  21029957.438
  22447990.078     6681262.587 6   5247824.348 9  22447992.926
  23198449.648    -6188088.753 6  -4720870.578 9  23198452.285
 94  3 17 22 13 30.0000000  0  5  7 27  2 19 26
  21561128.195   -13617786.292 7 -10489408.061 9  21561131.137
  20656349.148   -11595252.611 7  -8936534.420 9  20656351.293
  21030458.516   -17301534.116 8 -13349626.868 9  21030460.660
  22462451.273     6757253.898 7   5307038.339 9  22462453.816
  23188053.625    -6242719.795 6  -4763440.209 9  23188056.086
 94  3 17 22 14  0.0000000  0  5  7 27  2 19 26
  21549190.313   -13680521.466 7 -10538292.547 9  21549193.172
  20663946.844   -11555326.840 7  -8905423.429 9  20663949.023
  21031020.102   -17298581.938 8 -13347326.457 9  21031022.258
  22476984.070     6833624.402 7   5366547.806 9  22476986.719
  23177752.813    -6296849.763 6  -4805619.370 9  23177755.473
 94  3 17 22 14 30.0000000  0  5  7 27  2 19 26
  21537346.406   -13742760.601 7 -10586790.510 9  21537349.254
  20671639.164   -11514902.984 7  -8873924.321 9  20671641.438
  21031641.055   -17295317.400 8 -13344782.654 9  21031643.445
  22491589.914     6910379.792 6   5426357.179 9  22491592.867
  23167546.828    -6350484.509 6  -4847412.661 9  23167549.242
 94  3 17 22 15  0.0000000  0  5  7 27  2 19 26
  21525594.953   -13804515.204 7 -10634910.909 9  21525597.777
  20679425.563   -11473986.525 7  -8842041.368 9  20679427.871
  21032317.523   -17291762.776 8 -13342012.809 9  21032319.891
  22506266.328     6987503.147 7   5486453.276 9  22506269.363
  23157433.297    -6403631.706 6  -4888826.032 9  23157435.242
 94  3 17 22 15 30.0000000  0  5  7 27  2 19 26
  21513934.188   -13865792.412 7 -10682659.310 9  21513937.082
  20687301.859   -11432596.030 7  -8809789.035 9  20687303.969
  21033045.250   -17287938.692 8 -13339032.992 9  21033047.477
  22521004.164     7064949.358 7   5546800.949 9  22521006.953
  23147413.625    -6456285.216 6  -4929854.715 9  23147415.523
 94  3 17 22 16  0.0000000  0  5  7 27  2 19 26
  21502361.336   -13926606.421 7 -10730046.779 9  21502364.441
  20695262.000   -11390763.004 7  -8777191.876 9  20695264.297
  21033821.773   -17283859.785 8 -13335854.611 9  21033824.105
  22535798.242     7142692.682 7   5607380.129 9  22535801.313
  23137486.930    -6508450.086 6  -4970502.646 9  23137488.992
 94  3 17 22 16 30.0000000  0  5  7 27  2 19 26
  21490875.930   -13986966.091 7 -10777080.211 9  21490878.895
  20703303.273   -11348506.707 7  -8744264.897 9  20703305.430
  21034646.320   -17279525.610 8 -13332477.327 9  21034648.547
  22550647.219     7220725.091 6   5668184.564 9  22550650.242
  23127652.195    -6560131.566 6  -5010773.895 9  23127654.094
 94  3 17 22 17  0.0000000  0  5  7 27  2 19 26
  21479473.305   -14046884.836 7 -10823770.076 9  21479476.223
  20711421.602   -11305844.145 7  -8711021.342 9  20711423.723
  21035517.219   -17274949.047 8 -13328911.165 9  21035519.422
  22565547.898     7299027.943 6   5729199.736 9  22565550.980
  23117909.852    -6611327.126 6  -5050666.517 9  23117912.055
 94  3 17 22 17 30.0000000  0  5  7 27  2 19 26
  21468154.219   -14106366.032 7 -10870118.988 9  21468157.266
  20719616.641   -11262778.633 7  -8677463.804 9  20719618.902
  21036435.008   -17270126.261 8 -13325153.141 9  21036437.070
  22580497.617     7377590.466 6   5790417.248 9  22580500.793
  23108261.570    -6662029.662 6  -5090174.967 9  23108263.352
 94  3 17 22 18  0.0000000  0  5  7 27  2 19 26
  21456914.727   -14165428.973 7 -10916141.991 9  21456917.551
  20727886.852   -11219319.210 7  -8643599.331 9  20727888.926
  21037398.031   -17265065.977 8 -13321210.055 9  21037400.082
  22595497.523     7456415.986 6   5851839.696 9  22595500.898
  23098702.367    -6712260.301 6  -5129315.702 9  23098704.617
 94  3 17 22 18 30.0000000  0  5  7 27  2 19 26
  21445756.070   -14224067.792 7 -10961834.510 9  21445758.848
  20736235.656   -11175445.841 7  -8609412.301 9  20736238.047
  21038404.695   -17259774.144 8 -13317086.550 9  21038406.980
  22610548.523     7535508.026 6   5913469.815 9  22610551.535
  23089233.320    -6762023.494 6  -5168092.195 9  23089235.605
 94  3 17 22 19  0.0000000  0  5  7 27  2 19 26
  21434683.680   -14282255.616 7 -11007175.606 9  21434686.363
  20744667.258   -11131137.670 7  -8574886.467 9  20744669.660
  21039455.070   -17254255.274 8 -13312786.134 9  21039457.320
  22625654.688     7614890.028 7   5975325.885 9  22625657.617
  23079856.117    -6811301.565 6  -5206490.671 9  23079858.320
 94  3 17 22 19 30.0000000  0  5  7 27  2 19 26
  21423697.234   -14339990.131 7 -11052163.469 9  21423699.813
  20753181.781   -11086394.083 7  -8540021.338 9  20753183.867
  21040546.430   -17248519.288 8 -13308316.529 9  21040548.879
  22640814.961     7694558.777 6   6037405.386 9  22640818.102
  23070566.484    -6860117.901 6  -5244529.355 9  23070568.676
 94  3 17 22 20  0.0000000  0  5  7 27  2 19 26
  21412795.234   -14397278.407 7 -11096803.622 9  21412797.918
  20761776.031   -11041228.850 7  -8504827.656 9  20761778.328
  21041677.016   -17242579.781 8 -13303688.343 9  21041679.430
  22656029.391     7774514.138 6   6099708.222 9  22656032.578
  23061360.445    -6908498.333 6  -5282228.372 9  23061362.742
 94  3 17 22 20 30.0000000  0  5  7 27  2 19 26
  21401976.391   -14454130.373 7 -11141103.792 9  21401979.262
  20770450.055   -10995647.599 7  -8469309.803 9  20770452.340
  21042842.531   -17236453.660 8 -13298914.739 9  21042844.816
  22671295.477     7854738.285 6   6162220.501 9  22671298.664
  23052232.875    -6956460.346 6  -5319601.355 9  23052235.195
 94  3 17 22 21  0.0000000  0  5  7 27  2 19 26
  21391240.328   -14510549.570 7 -11185066.742 9  21391243.270
  20779202.305   -10949651.954 7  -8433469.054 9  20779204.766
  21044044.445   -17230136.379 8 -13293992.180 9  21044046.836
  22686611.484     7935223.468 6   6224936.188 9  22686614.684
  23043185.305    -7004007.016 6  -5356650.686 9  23043187.449
 94  3 17 22 21 30.0000000  0  5  7 27  2 19 26
  21380582.023   -14566557.541 7 -11228709.262 9  21380584.836
  20788033.211   -10903246.418 7  -8397308.906 9  20788035.555
  21045283.641   -17223624.655 8 -13288918.107 9  21045285.902
  22701974.453     8015955.912 6   6287844.536 9  22701977.570
  23034213.813    -7051152.954 6  -5393387.762 9  23034216.156
 94  3 17 22 22  0.0000000  0  5  7 27  2 19 26
  21370005.961   -14622136.645 7 -11272017.599 9  21370008.738
  20796945.438   -10856411.777 7  -8360814.392 9  20796947.852
  21046562.531   -17216902.727 8 -13283680.234 9  21046564.922
  22717389.703     8096962.495 6   6350966.502 9  22717393.020
  23025324.156    -7097867.553 6  -5429788.733 9  23025326.348
 94  3 17 22 22 30.0000000  0  5  7 27  2 19 26
  21359511.398   -14677283.350 7 -11314989.010 9  21359514.352
  20805940.734   -10809142.975 7  -8323981.568 9  20805943.066
  21047882.063   -17209970.155 8 -13278278.227 9  21047884.371
  22732856.398     8178239.931 6   6414299.520 9  22732859.176
  23016517.672    -7144147.264 6  -5465850.831 9  23016519.793
 94  3 17 22 23  0.0000000  0  5  7 27  2 19 26
  21349098.258   -14732006.058 7 -11357630.025 9  21349101.223
  20815013.430   -10761466.174 7  -8286830.828 9  20815015.727
  21049241.117   -17202828.451 8 -13272713.254 9  21049243.332
  22748373.109     8259780.923 6   6477837.906 9  22748376.051
  23007795.258    -7189983.252 6  -5501567.168 9  23007797.484
 94  3 17 22 23 30.0000000  0  5  7 27  2 19 26
  21338767.961   -14786290.802 7 -11399929.786 9  21338770.738
  20824162.313   -10713387.987 7  -8249367.322 9  20824164.574
  21050641.047   -17195471.587 8 -13266980.626 9  21050643.461
  22763940.836     8341592.514 6   6541587.162 9  22763943.930
  22999160.508    -7235356.725 6  -5536923.099 9  22999162.969
 94  3 17 22 24  0.0000000  0  5  7 27  2 19 26
  21328521.117   -14840139.225 7 -11441889.553 9  21328523.730
  20833383.078   -10664932.095 7  -8211609.507 9  20833385.410
  21052081.508   -17187903.510 8 -13261083.418 9  21052083.711
  22779557.773     8423659.855 6   6605535.688 9  22779561.113
  22990615.438    -7280260.802 6  -5571913.263 9  22990617.863
 94  3 17 22 24 30.0000000  0  5  7 27  2 19 26
  21318358.180   -14893547.946 7 -11483506.697 9  21318360.617
  20842670.992   -10616124.870 7  -8173577.928 9  20842673.277
  21053560.680   -17180130.395 8 -13255026.436 9  21053562.918
  22795217.906     8505952.376 6   6669659.682 9  22795221.375
  22982159.422    -7324698.829 6  -5606540.277 9  22982161.859
 94  3 17 22 25  0.0000000  0  6 15  7 27  2 19 26
  24325954.500      -21124.57515
  21308276.078   -14946528.161 7 -11524789.941 9  21308278.609
  20852021.867   -10566986.441 7  -8135288.268 9  20852024.070
  21055074.859   -17172172.534 8 -13248825.505 9  21055077.203
  22810917.930     8588455.988 6   6733948.160 9  22810921.492
  22973790.703    -7368675.179 6  -5640807.547 9  22973793.035
 94  3 17 22 25 30.0000000  0  6 15  7 27  2 19 26
  24320778.141      -48327.031 5     -3511.38519  24320781.281
  21298275.531   -14999079.921 7 -11565739.324 9  21298278.273
  20861435.828   -10517515.180 7  -8096739.267 9  20861437.844
  21056620.281   -17164051.634 8 -13242497.526 9  21056622.531
  22826656.289     8671161.791 6   6798394.195 9  22826659.840
  22965506.687    -7412211.247 6  -5674731.743 9  22965509.137
 94  3 17 22 26  0.0000000  0  6 15  7 27  2 19 26
  24315677.492      -75136.155 5    -24401.558 9  24315680.879
  21288354.922   -15051214.108 7 -11606363.330 9  21288357.816
  20870915.164   -10467701.438 7  -8057923.392 9  20870917.449
  21058194.594   -17155779.653 8 -13236051.820 9  21058196.926
  22842433.852     8754070.384 6   6862998.246 9  22842437.402
  22957302.406    -7455325.962 6  -5708327.611 9  22957304.457
 94  3 17 22 26 30.0000000  0  6 15  7 27  2 19 26
  24310647.875     -101560.559 5    -44991.903 9  24310652.609
  21278510.281   -15102945.007 7 -11646673.084 9  21278512.977
  20880460.492   -10417539.839 7  -8018836.459 9  20880462.777
  21059794.594   -17147372.728 8 -13229500.966 9  21059796.762
  22858250.289     8837186.081 6   6927763.678 9  22858253.934
  22949174.242    -7498036.632 6  -5741608.642 9  22949176.059
 94  3 17 22 27  0.0000000  0  6 15  7 27  2 19 26
  24305689.984     -127613.521 5    -65292.860 9  24305693.852
  21268738.727   -15154297.209 7 -11686687.750 9  21268741.281
  20890076.414   -10367009.435 7  -7979462.148 9  20890078.582
  21061418.617   -17138833.077 8 -13222846.690 9  21061420.914
  22874108.438     8920520.026 6   6992699.181 9  22874111.625
  22941120.672    -7540358.820 6  -5774586.961 9  22941122.676
 94  3 17 22 27 30.0000000  0  6 15  7 27  2 19 26
  24300807.055     -153276.855 5    -85290.220 9  24300810.863
  21259042.164   -15205254.522 7 -11726394.716 9  21259044.766
  20899769.609   -10316070.522 7  -7939769.518 9  20899771.895
  21063074.539   -17130134.097 8 -13216068.260 9  21063076.719
  22890009.266     9004083.817 6   7057813.773 9  22890012.230
  22933143.945    -7582277.283 6  -5807250.685 9  22933145.867
 94  3 17 22 28  0.0000000  0  6 15  7 27  2 19 26
  24295999.539     -178538.857 5   -104974.894 9  24296003.242
  21249421.531   -15255808.754 7 -11765787.582 9  21249424.133
  20909543.367   -10264708.240 7  -7899746.995 9  20909545.840
  21064762.508   -17121262.446 8 -13209155.281 9  21064764.676
  22905956.336     9087884.048 6   7123112.615 9  22905959.582
  22925247.844    -7623770.052 6  -5839582.706 9  22925249.930
 94  3 17 22 28 30.0000000  0  6 15  7 27  2 19 26
  24291270.000     -203390.845 5   -124340.063 9  24291273.563
  21239880.445   -15305945.816 7 -11804855.387 9  21239883.152
  20919397.734   -10212923.931 7  -7859395.616 9  20919400.184
  21066486.883   -17112201.314 8 -13202094.655 9  21066489.086
  22921947.031     9171915.774 6   7188591.844 9  22921950.488
  22917435.609    -7664824.825 6  -5871573.429 9  22917437.566
 94  3 17 22 29  0.0000000  0  6 15  7 27  2 19 26
  24286618.008     -227840.934 5   -143392.049 9  24286621.945
  21230418.875   -15355667.893 7 -11843599.825 9  21230421.512
  20929326.586   -10160747.260 7  -7818738.494 9  20929328.965
  21068243.000   -17102973.190 8 -13194903.903 9  21068245.016
  22937975.578     9256145.998 6   7254225.748 9  22937979.199
  22909705.141    -7705447.121 6  -5903227.151 9  22909707.285
 94  3 17 22 29 30.0000000  0  6 15  7 27  2 19 26
  24282041.516     -251888.049 5   -162129.996 9  24282045.090
  21221037.563   -15404966.515 7 -11882014.304 9  21221040.305
  20939323.648   -10108211.091 7  -7777801.245 9  20939326.016
  21070027.125   -17093597.655 8 -13187598.280 9  21070029.164
  22954038.602     9340558.042 6   7320001.329 9  22954042.129
  22902058.922    -7745630.069 6  -5934538.532 9  22902061.020
 94  3 17 22 30  0.0000000  0  6 15  7 27  2 19 26
  24277542.148     -275531.292 5   -180553.217 9  24277545.523
  21211738.055   -15453837.867 7 -11920095.839 9  21211740.926
  20949383.094   -10055350.018 7  -7736610.820 9  20949385.391
  21071839.328   -17084075.066 8 -13180178.070 9  21071841.367
  22970137.102     9425158.325 6   7385923.587 9  22970140.758
  22894495.719    -7785374.138 6  -5965507.918 9  22894497.629
 94  3 17 22 30 30.0000000  0  6 15  7 27  2 19 26
  24273123.281     -298752.734 5   -198647.785 9  24273127.184
  21202520.305   -15502276.203 7 -11957839.964 9  21202523.141
  20959503.672   -10002165.393 7  -7695168.271 9  20959506.051
  21073681.672   -17074393.599 8 -13172634.059 9  21073683.605
  22986274.836     9509961.132 6   7452003.655 9  22986278.480
  22887019.016    -7824666.370 6  -5996125.231 9  22887021.160
 94  3 17 22 31  0.0000000  0  6 15  7 27  2 19 26
  24268785.195     -321548.246 5   -216410.489 9  24268788.770
  21193385.313   -15550280.330 7 -11995245.743 9  21193388.113
  20969687.781    -9948647.216 7  -7653465.812 9  20969690.102
  21075551.016   -17064570.129 8 -13164979.401 9  21075553.090
  23002453.945     9594981.219 6   7518253.027 9  23002457.309
  22879629.828    -7863494.745 6  -6026381.101 9  22879631.891
 94  3 17 22 31 30.0000000  0  6 15  7 27  2 19 26
  24264531.422     -343904.362 5   -233830.838 9  24264535.406
  21184334.984   -15597840.479 7 -12032305.568 9  21184337.586
  20979939.633    -9894773.232 7  -7611486.113 9  20979942.129
  21077452.945   -17054574.876 8 -13157190.882 9  21077455.043
  23018679.281     9680244.978 6   7584692.266 9  23018682.363
  22872331.852    -7901848.648 7  -6056267.249 9  22872333.785
 94  3 17 22 32  0.0000000  0  6 15  7 27  2 19 26
  24260359.477     -365826.437 5   -250912.958 9  24260363.426
  21175365.828   -15644973.875 7 -12069032.856 9  21175368.395
  20990261.234    -9840534.884 7  -7569222.487 9  20990263.625
  21079388.000   -17044405.101 8 -13149266.375 9  21079389.992
  23034949.555     9765749.686 6   7651319.269 9  23034953.797
  22865121.820    -7939735.753 6  -6085789.663 9  22865124.070
 94  3 17 22 32 30.0000000  0  6 15  7 27  2 19 26
  24256269.750     -387317.041 5   -267658.849 9  24256274.051
  21166476.984   -15691684.452 7 -12105430.680 9  21166479.551
  21000655.125    -9785913.508 7  -7526660.397 9  21000657.445
  21081354.117   -17034075.126 8 -13141217.035 9  21081355.992
  23051264.016     9851480.292 6   7718122.279 9  23051267.625
  22858002.422    -7977149.143 6  -6114942.946 9  22858004.426
 94  3 17 22 33  0.0000000  0  6 15  7 27  2 19 26
  24252260.828     -408386.906 5   -284076.893 9  24252264.238
  21157669.195   -15737967.899 7 -12141495.674 9  21157671.891
  21011121.453    -9730912.304 7  -7483802.331 9  21011123.938
  21083350.391   -17023583.405 8 -13133041.660 9  21083352.266
  23067620.234     9937432.396 6   7785097.894 9  23067624.184
  22850970.445    -8014100.338 6  -6143736.083 9  22850972.496
 94  3 17 22 33 30.0000000  0  6 15  7 27  2 19 26
  24248328.688     -429042.807 5   -300172.372 9  24248332.648
  21148941.688   -15783830.608 7 -12177232.820 9  21148944.500
  21021656.430    -9675550.811 7  -7440663.521 9  21021659.020
  21085378.328   -17012926.108 8 -13124737.276 9  21085380.543
  23084014.133    10023582.337 6   7852227.664 9  23084017.543
  22844024.469    -8050603.221 6  -6172179.887 9  22844026.672
 94  3 17 22 34  0.0000000  0  6 15  7 27  2 19 26
  24244480.719     -449269.732 5   -315933.571 9  24244484.563
  21140297.328   -15829258.708 7 -12212631.309 9  21140299.965
  21032263.438    -9619809.743 7  -7397228.942 9  21032265.898
  21087436.711   -17002110.084 8 -13116309.199 9  21087438.738
  23100446.461    10109931.357 6   7919512.557 9  23100449.355
  22837166.195    -8086643.882 7  -6200263.504 9  22837168.059
 94  3 17 22 34 30.0000000  0  6 15  7 27  2 19 26
  24240711.180     -469082.090 5   -331371.754 9  24240715.117
  21131734.039   -15874259.838 7 -12247697.097 9  21131736.652
  21042937.914    -9563715.129 7  -7353518.877 9  21042940.234
  21089521.570   -16991153.205 8 -13107771.364 9  21089523.773
  23116913.313    10196467.048 6   7986942.913 9  23116916.805
  22830391.125    -8122249.232 7  -6228007.918 9  22830392.941
 94  3 17 22 35  0.0000000  0  6 15  7 27  2 19 26
  24237018.297     -488484.212 5   -346490.277 9  24237022.469
  21123249.781   -15918845.865 7 -12282439.428 9  21123252.242
  21053676.898    -9507283.257 7  -7309546.011 9  21053679.184
  21091632.133   -16980061.006 8 -13099128.090 9  21091634.406
  23133415.555    10283187.071 6   8054516.914 9  23133419.188
  22823694.555    -8157440.531 7  -6255429.702 9  22823696.172
 94  3 17 22 35 30.0000000  0  6 15  7 27  2 19 26
  24233414.141     -507427.002 5   -361250.853 9  24233417.879
  21114850.391   -15962984.059 7 -12316832.799 9  21114852.711
  21064489.305    -9450462.853 7  -7265270.385 9  21064491.801
  21093775.328   -16968799.345 8 -13090352.766 9  21093777.402
  23149959.688    10370127.215 6   8122262.418 9  23149962.922
  22817083.695    -8192178.969 7  -6282498.602 9  22817085.406
 94  3 17 22 36  0.0000000  0  6 15  7 27  2 19 26
  24229894.719     -525918.782 5   -375660.003 9  24229898.809
  21106532.523   -16006694.495 7 -12350892.850 9  21106534.832
  21075375.336    -9393255.838 7  -7220693.506 9  21075377.961
  21095948.422   -16957379.354 8 -13081454.069 9  21095950.625
  23166545.625    10457288.892 6   8190180.532 9  23166548.801
  22810555.016    -8226482.133 6  -6309228.329 9  22810557.102
 94  3 17 22 36 30.0000000  0  6 15  7 27  2 19 26
  24226459.438     -543972.703 5   -389727.970 9  24226463.305
  21098293.578   -16049988.641 7 -12384628.521 9  21098296.027
  21086331.242    -9335682.950 7  -7175831.530 9  21086333.387
  21098151.031   -16945805.310 8 -13072435.333 9  21098153.059
  23183172.734    10544662.674 6   8258263.944 9  23183176.121
  22804105.930    -8260372.050 6  -6335636.056 9  22804108.016
 94  3 17 22 37  0.0000000  0  6 15  7 27  2 19 26
  24223107.273     -561586.653 5   -403453.090 9  24223111.188
  21090135.242   -16092862.438 7 -12418036.647 9  21090137.762
  21097360.055    -9277725.941 7  -7130670.242 9  21097362.070
  21100382.031   -16934079.602 8 -13063298.418 9  21100384.035
  23199839.320    10632243.216 6   8326508.479 9  23199842.402
  22797738.844    -8293836.194 6  -6361712.010 9  22797740.625
 94  3 17 22 37 30.0000000  0  6 15  7 27  2 19 26
  24219838.383     -578764.320 5   -416838.260 9  24219841.031
  21082057.211   -16135313.372 7 -12451115.272 9  21082059.789
  21108461.656    -9219387.269 7  -7085211.559 9  21108463.977
  21102641.750   -16922205.264 8 -13054045.691 9  21102643.895
  23216543.688    10720026.665 6   8394911.098 9  23216546.969
  22791452.383    -8326869.527 6  -6387452.263 9  22791454.551
 94  3 17 22 38  0.0000000  0  6 15  7 27  2 19 26
  24216656.203     -595484.125 5   -429866.636 9  24216660.188
  21074066.641   -16177302.654 7 -12483834.160 9  21074069.148
  21119637.719    -9160656.389 7  -7039447.258 9  21119640.016
  21104933.609   -16910160.734 8 -13044660.338 9  21104935.754
  23233290.266    10808031.293 6   8463486.091 9  23233293.758
  22785255.883    -8359433.606 6  -6412826.856 9  22785258.133
 94  3 17 22 38 30.0000000  0  6 15  7 27  2 19 26
  24213559.727     -611759.197 5   -442548.524 9  24213563.594
  21066164.672   -16218828.742 7 -12516192.121 9  21066167.168
  21130884.289    -9101555.036 7  -6993394.278 9  21130886.820
  21107257.242   -16897950.572 8 -13035145.928 9  21107259.281
  23250076.555    10896243.429 6   8532222.754 9  23250080.105
  22779149.930    -8391519.454 6  -6437828.805 9  22779152.285
 94  3 17 22 39  0.0000000  0  6 15  7 27  2 19 26
  24210546.094     -627597.112 5   -454889.695 9  24210549.996
  21058347.789   -16259906.632 7 -12548200.832 9  21058350.121
  21142199.664    -9042092.809 7  -6947060.097 9  21142202.406
  21109610.266   -16885584.357 8 -13025509.918 9  21109612.363
  23266901.805    10984659.193 6   8601118.105 9  23266905.344
  22773136.375    -8423118.514 6  -6462451.441 9  22773138.766
 94  3 17 22 39 30.0000000  0  6 15  7 27  2 19 26
  24207614.297     -643008.281 6   -466898.365 9  24207617.590
  21050613.969   -16300548.092 7 -12579869.472 9  21050616.336
  21153578.984    -8982294.551 7  -6900464.084 9  21153581.738
  21111992.672   -16873064.996 8 -13015754.573 9  21111994.887
  23283762.188    11073262.828 6   8670159.836 9  23283765.809
  22767214.289    -8454242.429 6  -6486703.842 9  22767216.586
 94  3 17 22 40  0.0000000  0  6 15  7 27  2 19 26
  24204762.398     -657991.453 6   -478573.533 9  24204765.738
  21042961.375   -16340761.135 7 -12611204.279 9  21042963.437
  21165022.758    -8922155.511 7  -6853602.521 9  21165025.242
  21114404.898   -16860390.718 8 -13005878.511 9  21114406.961
  23300658.430    11162054.429 6   8739348.029 9  23300661.852
  22761382.695    -8484887.817 6  -6510583.353 9  22761384.652
 94  3 17 22 40 30.0000000  0  6 15  7 27  2 19 26
  24201991.953     -672554.974 6   -489921.705 9  24201994.508
  21035386.656   -16380568.322 7 -12642222.830 9  21035388.918
  21176530.805    -8861682.126 7  -6806480.429 9  21176532.938
  21116843.820   -16847573.023 8 -12995890.701 9  21116845.918
  23317590.109    11251029.402 6   8808679.117 9  23317594.059
  22755638.484    -8515074.344 6  -6534105.317 9  22755640.664
 94  3 17 22 41  0.0000000  0  6 15  7 27  2 19 26
  24199297.898     -686706.193 5   -500948.595 9  24199302.410
  21027886.242   -16419982.025 7 -12672934.770 9  21027888.598
  21188101.891    -8800875.505 7  -6759098.661 9  21188103.988
  21119304.188   -16834644.031 8 -12985816.164 9  21119306.156
  23334552.031    11340164.802 6   8878135.209 9  23334555.535
  22749976.156    -8544827.395 6  -6557289.510 9  22749978.383
 94  3 17 22 41 30.0000000  0  6 15  7 27  2 19 26
  24196681.516     -700450.094 5   -511658.112 9  24196685.195
  21020462.336   -16458994.542 7 -12703334.094 9  21020464.762
  21199734.320    -8739744.890 7  -6711464.438 9  21199736.617
  21121782.883   -16821619.721 8 -12975667.348 9  21121784.746
  23351539.672    11429434.479 6   8947695.939 9  23351542.941
  22744395.031    -8574157.728 7  -6580144.312 9  22744397.199
 94  3 17 22 42  0.0000000  0  6 15  7 27  2 19 26
  24194143.969     -713789.867 5   -522052.743 9  24194148.000
  21013113.906   -16497610.201 7 -12733424.181 9  21013116.473
  21211428.187    -8678293.096 7  -6663579.943 9  21211430.566
  21124275.930   -16808516.887 8 -12965457.346 9  21124277.957
  23368553.930    11518843.294 6   9017365.072 9  23368556.895
  22738893.008    -8603071.756 7  -6602674.718 9  22738895.223
 94  3 17 22 42 30.0000000  0  6 15  7 27  2 19 26
  24191682.016     -726724.122 5   -532131.357 9  24191685.695
  21005841.516   -16535825.575 7 -12763202.356 9  21005844.023
  21223180.750    -8616532.993 7  -6615455.205 9  21223183.223
  21126781.047   -16795352.434 8 -12955199.332 9  21126783.004
  23385593.875    11608389.060 6   9087140.953 9  23385597.156
  22733469.141    -8631571.653 6  -6624882.424 9  22733471.438
 94  3 17 22 43  0.0000000  0  6 15  7 27  2 19 26
  24189300.305     -739242.141 5   -541885.628 9  24189303.797
  20998648.672   -16573625.771 7 -12792657.023 9  20998650.957
  21234993.672    -8554457.402 7  -6567084.641 9  21234995.992
  21129298.609   -16782122.371 8 -12944890.185 9  21129300.777
  23402660.125    11698071.399 6   9157023.223 9  23402663.242
  22728129.016    -8659638.529 7  -6646752.715 9  22728131.102
 94  3 17 22 43 30.0000000  0  6 15  7 27  2 19 26
  24186998.211     -751340.436 6   -551312.837 9  24187001.516
  20991533.727   -16611014.843 7 -12821791.330 9  20991536.035
  21246865.414    -8492072.324 7  -6518472.902 9  21246867.570
  21131832.406   -16768807.771 8 -12934515.177 9  21131834.609
  23419753.820    11787902.111 6   9227021.122 9  23419757.043
  22722872.094    -8687263.515 7  -6668278.671 9  22722874.074
 94  3 17 22 44  0.0000000  0  6 15  7 27  2 19 26
  24184777.125     -763010.699 6   -560406.504 9  24184780.148
  20984494.602   -16648005.840 7 -12850615.451 9  20984497.027
  21258796.648    -8429372.669 7  -6469616.056 9  21258799.004
  21134382.742   -16755405.326 8 -12924071.707 9  21134384.746
  23436877.914    11877891.629 6   9297142.774 9  23436881.230
  22717700.078    -8714438.655 6  -6689454.106 9  22717702.234
 94  3 17 22 44 30.0000000  0  6 15  7 27  2 19 26
  24182639.086     -774250.042 6   -569164.414 9  24182641.875
  20977532.070   -16684593.788 7 -12879125.509 9  20977534.566
  21270788.625    -8366355.514 7  -6420511.809 9  21270790.570
  21136951.000   -16741909.448 8 -12913555.441 9  21136953.098
  23454031.484    11968027.763 6   9367378.666 9  23454034.461
  22712615.273    -8741159.900 7  -6710275.852 9  22712617.148
 94  3 17 22 45  0.0000000  0  6 15  7 27  2 19 26
  24180581.281     -785060.413 6   -577588.044 9  24180584.375
  20970646.781   -16720776.130 7 -12907319.511 9  20970649.219
  21282843.813    -8303007.322 7  -6371149.614 9  21282846.109
  21139539.609   -16728306.499 8 -12902955.742 9  21139541.801
  23471210.719    12058310.387 6   9437728.704 9  23471214.234
  22707614.234    -8767441.617 7  -6730755.115 9  22707616.367
 94  3 17 22 45 30.0000000  0  6 15  7 27  2 19 26
  24178605.641     -795444.781 6   -585679.739 9  24178609.508
  20963838.469   -16756554.825 7 -12935198.982 9  20963840.895
  21294961.688    -8239324.532 7  -6321526.684 9  21294963.984
  21142148.750   -16714595.242 8 -12892271.646 9  21142150.766
  23488420.305    12148746.494 6   9508198.330 9  23488424.348
  22702693.734    -8793301.431 7  -6750905.622 9  22702695.703
 94  3 17 22 46  0.0000000  0  6 15  7 27  2 19 26
  24176708.016     -805411.944 5   -593446.374 9  24176710.992
  20957106.117   -16791932.462 7 -12962765.945 9  20957108.543
  21307142.125    -8175315.225 7  -6271649.323 9  21307144.492
  21144775.750   -16700791.090 8 -12881515.165 9  21144777.824
  23505658.656    12239334.082 6   9578786.011 9  23505662.969
  22697849.523    -8818757.418 7  -6770741.458 9  22697851.316
 94  3 17 22 46 30.0000000  0  6 15  7 27  2 19 26
  24174891.531     -814958.260 5   -600885.042 9  24174894.953
  20950454.313   -16826886.206 7 -12990002.598 9  20950456.844
  21319385.375    -8110977.470 7  -6221516.040 9  21319387.590
  21147423.141   -16686878.046 8 -12870673.835 9  21147425.250
  23522928.406    12330086.935 6   9649502.459 9  23522932.812
  22693081.695    -8843810.828 7  -6790263.601 9  22693083.746
 94  3 17 22 47  0.0000000  0  6 15  7 27  2 19 26
  24173154.719     -824088.184 5   -607999.275 9  24173158.703
  20943882.039   -16861422.787 7 -13016914.193 9  20943884.688
  21331686.813    -8046334.695 7  -6171145.073 9  21331689.016
  21150089.922   -16672864.671 8 -12859754.313 9  21150091.867
  23540227.992    12421000.427 6   9720344.084 9  23540231.648
  22688391.086    -8868461.469 7  -6809471.884 9  22688392.996
 94  3 17 22 47 30.0000000  0  6 15  7 27  2 19 26
  24171499.133     -832788.664 5   -614778.867 9  24171502.344
  20937391.094   -16895535.947 7 -13043495.854 9  20937393.543
  21344042.883    -7981402.200 7  -6120548.361 9  21344045.121
  21152776.938   -16658742.291 8 -12848749.859 9  21152779.070
  23557559.156    12512075.175 5   9791311.347 9  23557562.707
  22683783.133    -8892678.063 7  -6828341.963 9  22683784.973
 94  3 17 22 48  0.0000000  0  7 15  7 13 27  2 19 26
  24169924.641     -841061.120 6   -621224.912 9  24169928.262
  20930979.633   -16929227.660 7 -13069749.109 9  20930982.047
  24493367.773      -63879.02513    -52704.53319  24493375.332
  21356450.680    -7916196.516 7  -6069738.767 9  21356452.965
  21155485.367   -16644511.217 8 -12837660.705 9  21155487.254
  23574916.258    12603286.354 6   9862384.915 9  23574920.863
  22679258.984    -8916450.563 7  -6846865.983 9  22679261.305
 94  3 17 22 48 30.0000000  0  7 15  7 13 27  2 19 26
  24168433.500     -848897.586 6   -627331.229 9  24168436.488
  20924649.398   -16962494.414 7 -13095671.228 9  20924651.672
  24471918.930     -176596.793 3   -140536.124 9  24471925.902
  21368913.211    -7850707.895 7  -6018708.715 9  21368915.590
  21158215.391   -16630164.064 8 -12826481.101 9  21158217.395
  23592295.773    12694617.440 5   9933551.942 9  23592300.191
  22674823.234    -8939760.316 7  -6865029.425 9  22674825.168
 94  3 17 22 49  0.0010000  0  7 15  7 13 27  2 19 26
  24167025.294     -856299.487 6   -633098.911 9  24167028.880
  20918396.427   -16995353.721 8 -13121275.856 9  20918398.396
  24450471.794     -289299.469 3   -228356.032 9  24450478.517
  21381430.138    -7784928.521 7  -5967452.087 9  21381432.669
  21160966.622   -16615706.145 8 -12815215.190 9  21160968.731
  23609697.200    12786062.467 5  10004807.728 9  23609701.196
  22670475.802    -8962606.776 7  -6882831.862 9  22670477.899
 94  3 17 22 49 30.0010000  0  7 15  7 13 27  2 19 26
  24165703.099     -863248.027 6   -638513.316 9  24165707.716
  20912224.864   -17027783.519 7 -13146545.805 9  20912227.009
  24429032.638     -401959.408 3   -316142.664 9  24429040.239
  21394010.591    -7718819.594 7  -5915938.683 9  21394013.110
  21163742.521   -16601118.656 8 -12803848.313 9  21163744.700
  23627123.919    12877636.982 6  10076164.419 9  23627128.067
  22666218.794    -8984976.779 7  -6900263.035 9  22666221.091
 94  3 17 22 50  0.0010000  0  7 15  7 13 27  2 19 26
  24164467.614     -869738.139 6   -643570.516 9  24164471.224
  20906135.856   -17059782.645 7 -13171480.164 9  20906138.095
  24407603.294     -514573.103 3   -403893.323 9  24407610.048
  21406658.677    -7652353.648 7  -5864147.072 9  21406660.915
  21166542.200   -16586406.468 8 -12792384.272 9  21166544.438
  23644577.927    12969355.954 6  10147633.672 9  23644581.946
  22662051.989    -9006874.182 7  -6917325.948 9  22662054.063
 94  3 17 22 50 30.0010000  0  7 15  7 13 27  2 19 26
  24163320.146     -875769.217 6   -648269.992 9  24163323.720
  20900128.317   -17091351.948 7 -13196079.595 9  20900130.544
  24386182.114     -627139.122 3   -491606.875 9  24386189.470
  21419375.841    -7585523.905 7  -5812071.983 9  21419378.255
  21169363.950   -16571578.125 8 -12780829.715 9  21169366.001
  23662065.036    13061250.198 6  10219239.504 9  23662068.739
  22657974.091    -9028301.257 7  -6934022.373 9  22657976.259
 94  3 17 22 51  0.0010000  0  7 15  7 13 27  2 19 26
  24162259.239     -881341.570 6   -652612.050 9  24162263.095
  20894204.481   -17122482.169 7 -13220336.879 9  20894206.813
  24364770.794     -739655.517 3   -579281.767 9  24364778.759
  21432161.833    -7518333.813 7  -5759716.096 9  21432164.317
  21172206.833   -16556639.338 8 -12769189.110 9  21172208.978
  23679587.786    13153336.977 6  10290995.380 9  23679591.970
  22653986.880    -9049257.398 7  -6950351.830 9  22653988.919
 94  3 17 22 51 30.0010000  0  7 15  7 13 27  2 19 26
  24161283.653     -886469.879 5   -656608.098 9  24161287.228
  20888361.856   -17153184.793 7 -13244260.972 9  20888364.212
  24343366.653     -852134.821 3   -666927.754 9  24343373.478
  21445012.278    -7450804.960 7  -5707096.234 9  21445014.657
  21175067.286   -16541608.431 8 -12757476.711 9  21175069.091
  23697145.294    13245597.540 6  10362886.659 9  23697148.962
  22650084.903    -9069760.826 7  -6966328.527 9  22650086.872
 94  3 17 22 52  0.0010000  0  7 15  7 13 27  2 19 26
  24160391.481     -891157.320 5   -660260.632 9  24160394.763
  20882598.981   -17183470.840 7 -13267860.460 9  20882601.419
  24321969.255     -964578.364 3   -754545.898 9  24321976.911
  21457922.896    -7382958.339 7  -5654228.759 9  21457925.544
  21177944.528   -16526487.204 8 -12745693.933 9  21177946.661
  23714732.622    13338028.280 5  10434910.562 9  23714736.571
  22646268.677    -9089815.701 7  -6981955.703 9  22646270.880
 94  3 17 22 52 30.0010000  0  7 15  7 13 27  2 19 26
  24159584.646     -895397.546 5   -663564.672 9  24159587.341
  20876916.075   -17213333.610 7 -13291130.120 9  20876918.431
  24300580.106    -1076978.066 3   -842129.868 9  24300587.185
  21470893.653    -7314796.187 7  -5601115.420 9  21470896.325
  21180842.591   -16511259.970 8 -12733828.562 9  21180844.642
  23732354.474    13430625.820 6  10507064.407 9  23732358.587
  22642537.341    -9109421.252 7  -6997232.757 9  22642539.509
 94  3 17 22 53  0.0010000  0  7 15  7 13 27  2 19 26
  24158862.060     -899194.655 5   -666523.459 9  24158864.368
  20871310.997   -17242787.340 7 -13314081.051 9  20871313.329
  24279198.450    -1189336.054 3   -929681.301 9  24279206.091
  21483921.880    -7246332.624 7  -5547767.228 9  21483924.423
  21183759.958   -16495926.306 8 -12721880.249 9  21183761.985
  23750002.278    13523365.819 6  10579329.300 9  23750005.970
  22638891.474    -9128583.987 7  -7012164.763 9  22638893.431
 94  3 17 22 53 30.0010000  0  7 15  7 13 27  2 19 26
  24158225.231     -902545.127 6   -669134.229 9  24158227.364
  20865783.599   -17271836.594 8 -13336716.810 9  20865785.638
  24257826.802    -1301646.408 3  -1017195.607 9  24257833.224
  21497007.106    -7177569.967 7  -5494185.983 9  21497009.462
  21186698.942   -16480481.471 8 -12709845.313 9  21186701.192
  23767675.231    13616237.278 6  10651696.614 9  23767679.497
  22635329.021    -9147305.594 7  -7026753.028 9  22635331.083
 94  3 17 22 54  0.0010000  0  7 15  7 13 27  2 19 26
  24157673.044     -905440.762 5   -671390.541 9  24157675.657
  20860334.091   -17300472.918 7 -13359030.800 9  20860336.106
  24236465.505    -1413899.379 3  -1104665.174 9  24236472.606
  21510149.614    -7108506.686 7  -5440370.473 9  21510151.864
  21189660.544   -16464920.544 8 -12697719.918 9  21189662.630
  23785373.997    13709241.822 5  10724167.611 9  23785377.161
  22631852.927    -9165571.532 7  -7040986.225 9  22631854.708
 94  3 17 22 54 30.0010000  0  7 15  7 13 27  2 19 26
  24157210.645     -907872.008 6   -673285.021 9  24157213.692
  20854967.372   -17328674.199 7 -13381005.801 9  20854969.575
  24215117.419    -1526083.345 3  -1192080.957 9  24215124.157
  21523350.989    -7039133.468 7  -5386313.441 9  21523353.181
  21192644.927   -16449235.740 8 -12685497.995 9  21192647.060
  23803097.294    13802379.863 5  10796742.637 9  23803101.606
  22628466.638    -9183367.522 7  -7054853.234 9  22628468.337
 94  3 17 22 55  0.0010000  0  7 15  7 13 27  2 19 26
  24156835.067     -909842.082 6   -674820.129 9  24156838.782
  20849683.372   -17356441.635 7 -13402642.740 9  20849685.692
  24193782.614    -1638199.894 3  -1279444.205 9  24193788.864
  21536610.231    -6969455.766 7  -5332019.143 9  21536612.282
  21195650.536   -16433442.390 8 -12673191.492 9  21195652.587
  23820845.145    13895646.132 5  10869417.550 9  23820849.200
  22625168.286    -9200699.367 7  -7068358.566 9  22625170.032
 94  3 17 22 55 30.0010000  0  7 15  7 13 27  2 19 26
  24156547.755     -911354.610 6   -675998.704 9  24156550.872
  20844482.513   -17383769.669 7 -13423937.292 9  20844484.833
  24172459.114    -1750250.449 3  -1366756.004 9  24172465.540
  21549928.419    -6899467.543 7  -5277482.874 9  21549930.470
  21198674.653   -16417548.589 8 -12660806.718 9  21198676.985
  23838614.341    13989026.828 5  10942181.672 9  23838618.724
  22621956.544    -9217577.859 7  -7081510.633 9  22621958.524
 94  3 17 22 56  0.0010000  0  7 15  7 13 27  2 19 26
  24156348.841     -912401.352 6   -676814.341 9  24156352.415
  20839368.185   -17410649.568 8 -13444882.648 9  20839370.317
  24151151.497    -1862224.985 4  -1454008.603 9  24151157.247
  21563308.810    -6829152.454 7  -5222691.904 9  21563311.118
  21201718.903   -16401550.631 8 -12648340.778 9  21201721.247
  23856408.333    14082533.143 5  11015043.655 9  23856413.196
  22618831.708    -9233998.236 7  -7094305.720 9  22618833.782
 94  3 17 22 56 30.0010000  0  7 15  7 13 27  2 19 26
  24156242.442     -912965.823 6   -677254.168 9  24156245.513
  20834341.013   -17437066.305 8 -13465467.099 9  20834343.063
  24129861.122    -1974104.873 4  -1541187.451 9  24129867.157
  21576755.216    -6758491.783 7  -5167631.651 9  21576757.770
  21204785.825   -16385436.493 8 -12635784.305 9  21204788.087
  23874230.989    14176189.772 5  11088022.739 9  23874235.231
  22615795.302    -9249955.183 7  -7106739.700 9  22615797.599
 94  3 17 22 57  0.0010000  0  7 15  7 13 27  2 19 26
  24156225.458     -913050.554 6   -677320.182 9  24156228.728
  20829399.317   -17463033.498 7 -13485701.256 9  20829401.556
  24108588.981    -2085890.298 4  -1628292.712 9  24108594.575
  21590269.341    -6687474.818 7  -5112293.779 9  21590271.720
  21207871.583   -16369219.334 8 -12623147.563 9  21207873.962
  23892081.872    14269996.972 5  11161119.183 9  23892085.692
  22612847.263    -9265447.029 7  -7118811.259 9  22612849.606
 94  3 17 22 57 30.0010000  0  7 15  7 13 27  2 19 26
  24156301.888     -912650.549 6   -677008.457 9  24156304.888
  20824544.700   -17488547.199 8 -13505582.042 9  20824546.751
  24087336.317    -2197574.140 4  -1715318.847 9  24087342.489
  21603852.747    -6616093.793 7  -5056672.229 9  21603854.962
  21210977.489   -16352898.573 8 -12610430.090 9  21210979.575
  23909962.747    14363961.227 5  11234338.007 9  23909967.224
  22609991.185    -9280455.550 7  -7130506.204 9  22609993.376
 94  3 17 22 58  0.0010000  0  7 15  7 13 27  2 19 26
  24156471.075     -911757.878 6   -676312.839 9  24156474.837
  20819775.825   -17513606.000 7 -13525108.365 9  20819778.052
  24066104.513    -2309146.643 4  -1802258.233 9  24066110.302
  21617504.161    -6544355.398 7  -5000772.220 9  21617506.587
  21214103.685   -16336468.829 8 -12597627.693 9  21214105.888
  23927875.372    14458097.404 5  11307690.773 9  23927880.224
  22607230.239    -9294964.849 7  -7141812.146 9  22607232.384
 94  3 17 22 58 30.0010000  0  7 15  7 13 27  2 19 26
  24156738.231     -910357.049 6   -675221.275 9  24156742.228
  20815097.044   -17538193.053 7 -13544267.095 9  20815099.224
  24044896.981    -2420590.016 4  -1889097.026 9  24044903.130
  21631225.841    -6472248.039 7  -4944584.704 9  21631228.208
  21217254.849   -16319910.668 8 -12584725.232 9  21217257.017
  23945825.942    14552417.657 5  11381186.979 9  23945830.103
  22604569.106    -9308948.307 7  -7152708.341 9  22604571.157
 94  3 17 22 59  0.0010000  0  7 15  7 13 27  2 19 26
  24157100.646     -908449.888 6   -673735.128 9  24157103.364
  20810508.419   -17562306.499 7 -13563056.776 9  20810510.728
  24023714.263    -2531904.022 4  -1975835.030 9  24023719.931
  21645017.349    -6399773.207 7  -4888110.847 9  21645019.739
  21220429.716   -16303225.391 8 -12571723.713 9  21220431.907
  23963805.458    14646906.816 5  11454814.834 9  23963810.028
  22602009.122    -9322400.492 7  -7163190.560 9  22602011.009
 94  3 17 22 59 30.0010000  0  7 15  7 13 27  2 19 26
  24157562.052     -906025.466 6   -671845.948 9  24157565.052
  20806013.364   -17585927.325 7 -13581462.599 9  20806015.626
  24002559.278    -2643075.473 4  -2062461.943 9  24002564.759
  21658876.130    -6326944.714 7  -4831361.405 9  21658878.802
  21223634.106   -16286385.813 8 -12558601.965 9  21223636.286
  23981819.146    14741570.774 5  11528578.879 9  23981824.231
  22599550.833    -9335319.406 7  -7173257.244 9  22599552.813
 94  3 17 23  0  0.0010000  0  7 15  7 13 27  2 19 26
  24158119.997     -903090.394 6   -669558.839 9  24158122.903
  20801611.552   -17609058.423 7 -13599486.810 9  20801613.860
  23981429.708    -2754108.824 4  -2148981.289 9  23981435.899
  21672799.146    -6253778.589 7  -4774348.873 9  21672801.478
  21226869.614   -16269383.665 8 -12545353.538 9  21226871.677
  23999864.606    14836399.151 5  11602471.031 9  23999868.860
  22597190.286    -9347726.644 7  -7182925.213 9  22597192.313
 94  3 17 23  0 30.0010000  0  7 15  7 13 27  2 19 26
  24158777.356     -899633.186 5   -666864.908 9  24158780.497
  20797304.731   -17631691.477 7 -13617122.940 9  20797307.099
  23960330.536    -2864990.092 4  -2235382.126 9  23960335.923
  21686790.786    -6180252.164 7  -4717055.584 9  21686793.118
  21230138.005   -16252208.486 8 -12531970.286 9  21230140.079
  24017943.216    14931404.836 5  11676501.358 9  24017949.216
  22594928.419    -9359610.544 7  -7192185.390 9  22594930.517
 94  3 17 23  1  0.0010000  0  7 15  7 13 27  2 19 26
  24159532.974     -895666.576 5   -663774.037 9  24159535.528
  20793089.739   -17653842.752 8 -13634383.655 9  20793092.024
  23939256.872    -2975729.497 4  -2321672.418 9  23939263.063
  21700846.130    -6106390.875 7  -4659501.364 9  21700848.755
  21233434.591   -16234885.160 8 -12518471.596 9  21233436.618
  24036054.974    15026577.136 5  11750661.505 9  24036058.981
  22592762.169    -9370994.120 7  -7201055.705 9  22592764.524
 94  3 17 23  1 30.0010000  0  7 15  7 13 27  2 19 26
  24160385.606     -891188.560 5   -660284.628 9  24160388.560
  20788965.099   -17675517.732 8 -13651273.228 9  20788967.337
  23918211.614    -3086323.051 5  -2407849.051 9  23918217.282
  21714964.677    -6032195.684 7  -4601686.965 9  21714967.442
  21236757.864   -16217419.999 8 -12504862.378 9  21236760.021
  24054198.974    15121925.359 5  11824958.795 9  24054203.661
  22590690.466    -9381879.972 7  -7209538.189 9  22590692.821
 94  3 17 23  2  0.0010000  0  7 15  7 13 27  2 19 26
  24161337.880     -886187.493 6   -656387.687 9  24161341.126
  20784929.724   -17696723.850 8 -13667797.457 9  20784932.091
  23897196.075    -3196757.085 4  -2493901.387 9  23897202.204
  21729152.864    -5957638.392 7  -4543590.410 9  21729155.349
  21240106.060   -16199825.703 8 -12491152.544 9  21240108.157
  24072381.442    15217477.053 5  11899414.556 9  24072386.622
  22588715.677    -9392253.923 6  -7217621.782 9  22588718.302
 94  3 17 23  2 30.0010000  0  7 15  7 13 27  2 19 26
  24162385.646     -880678.936 5   -652095.286 9  24162388.634
  20780980.817   -17717475.122 8 -13683967.259 9  20780983.126
  23876208.903    -3307044.495 4  -2579839.473 9  23876215.149
  21743407.106    -5882732.716 7  -4485222.381 9  21743409.333
  21243474.583   -16182123.922 8 -12477358.949 9  21243476.517
  24090601.161    15313218.795 5  11974018.428 9  24090605.626
  22586836.560    -9402130.796 7  -7225318.051 9  22586839.056
 94  3 17 23  3  0.0010000  0  7 15  7 13 27  2 19 26
  24163531.669     -874656.349 5   -647402.350 9  24163535.243
  20777121.153   -17737757.847 8 -13699771.960 9  20777123.427
  23855251.505    -3417176.626 5  -2665656.565 9  23855257.849
  21757726.513    -5807480.825 7  -4426584.577 9  21757728.763
  21246865.239   -16164305.737 8 -12463474.663 9  21246867.489
  24108856.310    15409150.849 5  12048770.623 9  24108860.493
  22585052.927    -9411506.516 7  -7232623.807 9  22585055.306
 94  3 17 23  3 30.0010000  0  7 15  7 13 27  2 19 26
  24164773.435     -868121.794 5   -642310.497 9  24164776.692
  20773350.013   -17757575.245 8 -13715214.074 9  20773352.146
  23834323.974    -3527152.904 5  -2751352.214 9  23834329.149
  21772114.286    -5731872.501 7  -4367669.047 9  21772116.747
  21250282.099   -16146351.436 8 -12449484.302 9  21250284.056
  24127146.864    15505264.148 5  12123663.978 9  24127152.220
  22583363.599    -9420382.974 7  -7239540.528 9  22583366.071
 94  3 17 23  4  0.0010000  0  7 15  7 13 27  2 19 26
  24166114.028     -861082.173 5   -636825.039 9  24166117.591
  20769667.294   -17776927.924 8 -13730294.066 9  20769669.368
  23813424.653    -3636977.929 5  -2836929.991 9  23813430.528
  21786567.739    -5655920.549 7  -4308485.745 9  21786570.317
  21253725.919   -16128251.348 8 -12435380.334 9  21253728.122
  24145467.489    15601542.916 5  12198686.318 9  24145471.567
  22581769.771    -9428758.444 7  -7246066.872 9  22581772.255
 94  3 17 23  4 30.0010000  0  7 15  7 13 27  2 19 26
  24167553.396     -853518.667 5   -630931.391 9  24167557.157
  20766078.388   -17795787.085 8 -13744989.494 9  20766080.603
  23792558.341    -3746630.410 5  -2922373.354 9  23792564.228
  21801088.513    -5579614.377 7  -4249026.432 9  21801090.821
  21257204.013   -16109975.003 8 -12421139.034 9  21257206.310
  24163818.333    15697975.887 5  12273828.825 9  24163823.255
  22580275.685    -9436608.295 7  -7252183.649 9  22580278.017
 94  3 17 23  5  0.0010000  0  7 15  7 13 27  2 19 26
  24169092.864     -845432.446 5   -624630.403 9  24169095.606
  20762579.302   -17814174.331 8 -13759317.201 9  20762581.411
  23771725.278    -3856109.094 5  -3007681.284 9  23771730.856
  21815676.302    -5502956.279 7  -4189292.889 9  21815678.493
  21260715.122   -16091524.050 8 -12406761.670 9  21260717.325
  24182195.685    15794552.359 5  12349083.114 9  24182201.028
  22578883.825    -9443924.694 7  -7257884.744 9  22578886.438
 94  3 17 23  5 30.0010000  0  7 15  7 13 27  2 19 26
  24170733.216     -836813.294 5   -617914.172 9  24170736.298
  20759171.669   -17832080.251 7 -13773269.848 9  20759173.978
  23750927.364    -3965401.386 5  -3092843.965 9  23750933.298
  21830332.106    -5425938.725 7  -4129279.256 9  21830334.673
  21264260.771   -16072891.077 8 -12392242.472 9  21264263.079
  24200604.067    15891285.098 5  12424459.191 9  24200609.399
  22577594.544    -9450699.094 7  -7263163.514 9  22577596.794
 94  3 17 23  6  0.0010000  0  7 15  7 13 27  2 19 26
  24172473.989     -827661.199 5   -610782.651 9  24172477.892
  20755856.747   -17849501.817 8 -13786845.083 9  20755858.985
  23730165.263    -4074504.648 5  -3177859.368 9  23730171.345
  21845054.177    -5348574.536 7  -4068995.521 9  21845056.685
  21267838.364   -16054091.704 8 -12377593.607 9  21267840.579
  24219042.630    15988179.852 5  12499961.486 9  24219047.517
  22576409.216    -9456931.435 7  -7268019.903 9  22576411.548
 94  3 17 23  6 30.0010000  0  7 15  7 13 27  2 19 26
  24174316.771     -817981.234 6   -603239.811 9  24174320.099
  20752632.411   -17866446.198 8 -13800048.487 9  20752634.567
  23709439.286    -4183421.496 5  -3262729.518 9  23709445.345
  21859841.614    -5270865.200 7  -4008442.825 9  21859844.216
  21271444.310   -16035141.583 8 -12362827.276 9  21271446.384
  24237512.005    16085236.403 5  12575589.863 9  24237516.552
  22575321.622    -9462645.100 7  -7272472.119 9  22575323.860
 94  3 17 23  7  0.0010000  0  7 15  7 13 27  2 19 26
  24176257.356     -807776.999 5   -595288.433 9  24176260.884
  20749499.731   -17882908.272 8 -13812876.064 9  20749501.876
  23688748.731    -4292153.203 5  -3347455.409 9  23688753.700
  21874695.036    -5192811.938 7  -3947622.124 9  21874697.427
  21275080.427   -16016037.673 8 -12347941.110 9  21275082.302
  24256013.802    16182468.267 5  12651354.847 9  24256019.298
  22574329.849    -9467858.358 7  -7276534.409 9  22574332.181
 94  3 17 23  7 30.0010000  0  7 15  7 13 27  2 19 26
  24178298.708     -797052.871 5   -586931.949 9  24178301.122
  20746462.919   -17898868.667 8 -13825312.716 9  20746465.146
  23668092.575    -4400701.276 5  -3432038.217 9  23668098.196
  21889612.911    -5114417.120 7  -3886535.281 9  21889615.255
  21278743.692   -15996784.275 8 -12332938.457 9  21278745.884
  24274549.458    16279874.260 5  12727255.540 9  24274553.290
  22573432.013    -9472572.952 7  -7280208.124 9  22573434.169
 94  3 17 23  8  0.0010000  0  7 15  7 13 27  2 19 26
  24180435.888     -785818.761 5   -578178.097 9  24180440.036
  20743518.560   -17914339.500 8 -13837367.899 9  20743520.692
  23647469.802    -4509072.982 5  -3516483.590 9  23647475.399
  21904595.021    -5035684.857 7  -3825185.496 9  21904597.599
  21282433.630   -15977393.195 8 -12317828.526 9  21282435.833
  24293114.185    16377427.112 5  12803270.660 9  24293118.415
  22572627.161    -9476805.271 7  -7283506.044 9  22572629.306
 94  3 17 23  8 30.0010000  0  7 15  7 13 27  2 19 26
  24182672.895     -774068.839 5   -569022.300 9  24182675.192
  20740667.286   -17929322.383 8 -13849042.856 9  20740669.513
  23626882.271    -4617260.041 5  -3600785.101 9  23626888.153
  21919643.833    -4956602.257 7  -3763562.723 9  21919646.435
  21286150.521   -15957862.168 8 -12302609.536 9  21286152.478
  24311705.638    16475120.731 5  12879395.456 9  24311708.813
  22571915.138    -9480547.024 7  -7286421.715 9  22571917.083
 94  3 17 23  9  0.0010000  0  7 15  7 13 27  2 19 26
  24185008.067     -761797.392 5   -559460.086 9  24185010.458
  20737910.989   -17943806.251 7 -13860328.973 9  20737913.333
  23606331.606    -4725254.036 5  -3684936.167 9  23606337.196
  21934760.810    -4877163.301 7  -3701662.269 9  21934763.188
  21289893.981   -15938189.550 8 -12287280.222 9  21289896.138
  24330322.083    16572955.218 5  12955630.017 9  24330325.985
  22571301.130    -9483773.575 7  -7288935.923 9  22571302.864
 94  3 17 23  9 30.0010000  0  7 15  7 13 27  2 19 26
  24187442.872     -749003.291 5   -549490.659 9  24187445.872
  20735247.763   -17957800.777 7 -13871233.785 9  20735250.247
  23585818.294    -4833051.184 5  -3768933.832 9  23585823.665
  21949943.021    -4797379.896 7  -3639493.422 9  21949945.399
  21293658.927   -15918403.883 8 -12271862.823 9  21293661.001
  24348964.802    16670921.985 5  13031967.685 9  24348969.478
  22570787.271    -9486475.782 7  -7291041.551 9  22570789.239
 94  3 17 23 10  0.0010000  0  7 15  7 13 27  2 19 26
  24189975.630     -735692.802 5   -539118.823 9  24189978.384
  20732673.224   -17971330.384 8 -13881776.319 9  20732675.532
  23565342.208    -4940654.899 5  -3852780.765 9  23565347.419
  21965189.153    -4717259.474 7  -3577061.952 9  21965191.849
  21297442.692   -15898518.882 8 -12256368.017 9  21297444.860
  24367633.661    16769027.972 5  13108413.810 9  24367639.614
  22570368.161    -9488676.953 7  -7292756.764 9  22570370.224
 94  3 17 23 10 30.0010000  0  7 15  7 13 27  2 19 26
  24192607.442     -721858.373 5   -528338.722 9  24192610.337
  20730189.325   -17984385.524 8 -13891949.141 9  20730191.646
  23544904.427    -5048055.248 5  -3936469.222 9  23544909.813
  21980501.856    -4636791.854 7  -3514359.938 9  21980504.364
  21301248.044   -15878524.529 8 -12240788.004 9  21301250.153
  24386335.825    16867307.986 5  13184995.535 9  24386341.052
  22570048.685    -9490354.771 7  -7294064.167 9  22570050.923
 94  3 17 23 11  0.0010000  0  7 15  7 13 27  2 19 26
  24195338.864     -707506.353 5   -517155.315 9  24195341.864
  20727794.411   -17996970.515 8 -13901755.611 9  20727796.497
  23524504.958    -5155255.689 5  -4020001.909 9  23524510.360
  21995878.185    -4555989.480 7  -3451397.085 9  21995880.634
  21305073.231   -15858420.947 8 -12225122.880 9  21305075.399
  24405069.239    16965757.130 5  13261709.063 9  24405075.169
  22569828.708    -9491510.985 7  -7294965.129 9  22569830.876
 94  3 17 23 11 30.0010000  0  7 15  7 13 27  2 19 26
  24198167.286     -692640.688 5   -505571.688 9  24198171.118
  20725486.310   -18009098.434 8 -13911205.924 9  20725488.290
  23504143.083    -5262257.658 5  -4103379.936 9  23504147.892
  22011315.185    -4474870.230 7  -3388187.310 9  22011317.587
  21308920.755   -15838201.735 8 -12209367.648 9  21308922.794
  24423835.630    17064373.082 5  13338552.577 9  24423841.091
  22569705.013    -9492159.748 7  -7295470.670 9  22569707.497
 94  3 17 23 12  0.0010000  0  7 15  7 13 27  2 19 26
  24201093.060     -677264.288 5   -493590.057 9  24201095.626
  20723266.372   -18020765.106 8 -13920296.827 9  20723268.540
  23483818.731    -5369061.119 5  -4186603.275 9  23483824.185
  22026812.231    -4393431.535 7  -3324728.615 9  22026814.739
  21312796.786   -15817833.231 8 -12193496.090 9  21312798.978
  24442634.395    17163157.794 5  13415527.540 9  24442640.325
  22569677.888    -9492305.823 7  -7295584.507 9  22569680.337
 94  3 17 23 12 30.0010000  0  7 15  7 13 27  2 19 26
  24204115.310     -661383.244 5   -481215.198 9  24204118.567
  20721133.606   -18031972.080 8 -13929029.523 9  20721135.845
  23463531.950    -5475669.550 5  -4269674.638 9  23463537.036
  22042365.013    -4311701.211 7  -3261042.671 9  22042367.556
  21316700.427   -15797318.306 8 -12177510.436 9  21316702.747
  24461457.075    17262074.546 5  13492605.433 9  24461462.407
  22569747.067    -9491939.758 7  -7295299.278 9  22569749.048
 94  3 17 23 13  0.0010000  0  7 15  7 13 27  2 19 26
  24207233.185     -644999.556 5   -468448.674 9  24207236.478
  20719087.513   -18042723.749 8 -13937407.436 9  20719089.833
  23443281.927    -5582081.901 5  -4352593.220 9  23443287.356
  22057970.208    -4229693.568 7  -3197140.637 9  22057972.903
  21320630.958   -15776662.753 8 -12161415.200 9  21320633.067
  24480300.177    17361096.436 5  13569765.238 9  24480305.438
  22569909.200    -9491085.244 7  -7294633.437 9  22569911.556
 94  3 17 23 13 30.0010000  0  7 15  7 13 27  2 19 26
  24210445.146     -628122.230 5   -455297.494 9  24210448.356
  20717126.263   -18053030.233 8 -13945438.448 9  20717128.313
  23423068.200    -5688304.540 5  -4435363.976 9  23423073.856
  22073626.771    -4147417.306 7  -3133029.302 9  22073629.536
  21324586.896   -15755876.011 8 -12145217.743 9  21324589.099
  24499163.771    17460225.777 5  13647008.776 9  24499170.310
  22570159.817    -9489770.935 7  -7293609.312 9  22570161.927
 94  3 17 23 14  0.0010000  0  7 15  7 13 27  2 19 26
  24213753.716     -610739.882 5   -441752.819 9  24213756.341
  20715251.747   -18062880.530 8 -13953113.991 9  20715253.856
  23402893.333    -5794323.410 5  -4517975.950 9  23402899.095
  22089339.856    -4064845.610 7  -3068687.768 9  22089342.458
  21328566.661   -15734961.590 8 -12128920.801 9  21328568.829
  24518051.005    17559473.159 5  13724344.268 9  24518057.052
  22570499.708    -9487982.409 7  -7292215.677 9  22570501.794
 94  3 17 23 14 30.0010000  0  7 15  7 13 27  2 19 26
  24217155.224     -592858.565 5   -427819.334 9  24217158.153
  20713461.231   -18072288.872 8 -13960445.157 9  20713463.411
  23382756.708    -5900141.673 5  -4600431.615 9  23382762.427
  22105110.505    -3981971.120 7  -3004110.280 9  22105113.188
  21332566.255   -15713944.178 8 -12112543.596 9  21332568.306
  24536956.739    17658826.547 5  13801762.412 9  24536962.446
  22570930.489    -9485719.735 7  -7290452.564 9  22570932.599
 94  3 17 23 15  0.0010000  0  7 15  7 13 27  2 19 26
  24220654.130     -574472.973 5   -413492.890 9  24220658.149
  20711758.872   -18081235.767 8 -13967416.753 9  20711760.993
  23362660.122    -6005751.074 5  -4682724.552 9  23362665.489
  22120943.981    -3898765.168 7  -2939274.512 9  22120946.853
  21336587.481   -15692813.407 8 -12096078.066 9  21336589.661
  24555888.856    17758310.394 5  13879282.197 9  24555893.978
  22571452.028    -9482980.192 7  -7288317.864 9  22571454.149
 94  3 17 23 15 30.0010000  0  6 15  7 13 27  2 26
  24224249.669     -555575.603 5   -398767.661 9  24224253.618
  20710145.919   -18089711.690 8 -13974021.359 9  20710148.181
  23342604.896    -6111140.904 5  -4764846.394 9  23342610.067
  22136840.958    -3815224.729 7  -2874178.113 9  22136843.841
  21340632.880   -15671554.464 8 -12079512.663 9  21340635.024
  22572068.497    -9479741.455 7  -7285794.190 9  22572070.372
 94  3 17 23 16  0.0010000  0  6 15  7 13 27  2 26
  24227943.349     -536164.457 5   -383642.092 9  24227947.298
  20708623.067   -18097715.325 8 -13980257.949 9  20708625.224
  23322592.466    -6216306.291 5  -4846793.344 9  23322597.294
  22152801.872    -3731350.793 7  -2808821.848 9  22152804.661
  21344702.474   -15650168.984 8 -12062848.660 9  21344704.454
  22572784.849    -9475978.014 7  -7282861.652 9  22572786.806
 94  3 17 23 16 30.0010000  0  6 15  7 13 27  2 26
  24231734.122     -516244.159 5   -368119.794 9  24231738.001
  20707187.083   -18105261.289 8 -13986137.906 9  20707189.087
  23302622.419    -6321249.262 5  -4928567.007 9  23302627.204
  22168822.825    -3647160.598 7  -2743219.143 9  22168825.239
  21348796.474   -15628653.804 8 -12046083.587 9  21348798.466
  22573597.200    -9471705.862 6  -7279532.710 9  22573599.427
 94  3 17 23 17  0.0010000  0  6 15  7 13 27  2 26
  24235623.755     -495803.294 5   -352191.858 9  24235627.282
  20705838.521   -18112348.301 8 -13991660.246 9  20705840.806
  23282697.560    -6425955.126 5  -5010155.897 9  23282702.493
  22184901.106    -3562667.623 7  -2677380.513 9  22184903.485
  21352917.942   -15606995.577 8 -12029207.048 9  21352919.958
  22574507.060    -9466926.287 7  -7275808.372 9  22574509.450
 94  3 17 23 17 30.0010000  0  6 15  7 13 27  2 26
  24239615.224     -474826.487 5   -335846.295 9  24239617.778
  20704576.231   -18118981.012 8 -13996828.581 9  20704578.399
  23262821.208    -6530405.683 5  -5091545.837 9  23262825.907
  22201038.903    -3477861.435 7  -2611297.811 9  22201041.446
  21357067.981   -15585186.351 8 -12012212.845 9  21357070.032
  22575516.325    -9461622.184 7  -7271675.320 9  22575518.974
 94  3 17 23 18  0.0010000  0  6 15  7 13 27  2 26
  24243707.060     -453330.571 5   -319096.252 9  24243710.610
  20703396.880   -18125177.386 8 -14001656.910 9  20703399.071
  23242990.692    -6634614.945 5  -5172747.764 9  23242995.642
  22217237.458    -3392739.808 6  -2544969.319 9  22217240.235
  21361242.606   -15563248.786 8 -11995118.638 9  21361244.681
  22576621.036    -9455815.520 6  -7267150.662 9  22576623.731
 94  3 17 23 18 30.0010000  0  6 15  7 13 27  2 26
  24247896.349     -431310.138 5   -301937.463 9  24247899.126
  20702304.294   -18130919.699 8 -14006131.428 9  20702306.497
  23223207.646    -6738574.600 5  -5253755.181 9  23223212.821
  22233498.544    -3307285.141 6  -2478381.319 9  22233501.474
  21365445.255   -15541164.312 8 -11977909.959 9  21365447.399
  22577820.614    -9449511.662 6  -7262238.585 9  22577823.415
 94  3 17 23 19  0.0010000  0  6 15  7 13 27  2 26
  24252189.427     -408747.993 5   -284356.555 9  24252193.095
  20701306.333   -18136164.305 8 -14010218.121 9  20701308.501
  23203476.185    -6842264.049 5  -5334552.036 9  23203481.228
  22249828.216    -3221473.855 6  -2411515.428 9  22249831.017
  21369678.231   -15518917.752 8 -11960574.985 9  21369680.540
  22579120.380    -9442681.233 6  -7256916.192 9  22579122.981
 94  3 17 23 19 30.0010000  0  6 15  7 13 27  2 26
  24256586.528     -385643.864 5   -266353.347 9  24256590.067
  20700406.739   -18140891.486 8 -14013901.628 9  20700408.743
  23183796.942    -6945680.027 5  -5415135.802 9  23183801.353
  22266226.685    -3135300.470 6  -2344367.378 9  22266229.087
  21373941.427   -15496515.737 8 -11943118.873 9  21373943.583
  22580519.161    -9435331.040 6  -7251188.778 9  22580521.599
 94  3 17 23 20  0.0010000  0  6 15  7 13 27  2 26
  24261085.638     -362002.293 5   -247931.357 9  24261088.696
  20699605.622   -18145100.545 8 -14017181.403 9  20699607.649
  23164169.122    -7048823.721 5  -5495507.405 9  23164173.938
  22282690.481    -3048783.262 6  -2276951.419 9  22282693.165
  21378233.271   -15473960.660 8 -11925543.491 9  21378235.521
  22582013.403    -9427478.147 6  -7245069.660 9  22582015.935
 94  3 17 23 20 30.0010000  0  6 15  7 13 27  2 26
  24265687.185     -337822.555 5   -229090.015 9  24265690.560
  20698900.005   -18148809.428 8 -14020071.429 9  20698902.149
  23144594.075    -7151691.675 5  -5575664.136 9  23144598.634
  22299215.646    -2961941.839 6  -2209282.831 9  22299218.962
  21382553.396   -15451259.878 8 -11907854.582 9  21382555.716
  22583604.091    -9419122.595 7  -7238558.859 9  22583606.118
 94  3 17 23 21  0.0010000  0  6 15  7 13 27  2 26
  24270391.333     -313103.415 6   -209828.355 9  24270394.896
  20698286.388   -18152033.226 8 -14022583.466 9  20698288.368
  23125071.942    -7254279.624 5  -5655602.680 9  23125076.591
  22315799.138    -2874796.909 6  -2141377.742 9  22315802.606
  21386896.692   -15428434.261 8 -11890068.387 9  21386898.919
  22585289.356    -9410265.810 7  -7231657.483 9  22585291.372
 94  3 17 23 21 30.0010000  0  6 15  7 13 27  2 26
  24275197.271     -287841.065 5   -190143.377 9  24275200.634
  20697760.560   -18154795.101 8 -14024735.562 9  20697762.657
  23105604.849    -7356580.394 5  -5735317.448 9  23105609.528
  22332440.731    -2787340.788 6  -2073230.165 9  22332443.825
  21391266.177   -15405472.250 8 -11872175.914 9  21391268.532
  22587071.153    -9400900.925 7  -7224360.187 9  22587073.403
 94  3 17 23 22  0.0010000  0  6 15  7 13 27  2 26
  24280109.060     -262033.017 5   -170033.211 9  24280112.329
  20697320.638   -18157108.327 8 -14026538.064 9  20697322.771
  23086193.169    -7458588.644 5  -5814804.279 9  23086197.903
  22349144.872    -2699564.411 6  -2004833.044 9  22349148.200
  21395664.950   -15382358.009 8 -11854164.827 9  21395667.341
  22588956.614    -9390993.343 7  -7216640.015 9  22588959.005
 94  3 17 23 22 30.0010000  0  6 15  7 13 27  2 26
  24285124.146     -235675.157 5   -149494.628 9  24285127.345
  20696967.692   -18158962.396 8 -14027982.783 9  20696969.720
  23066838.669    -7560296.872 5  -5894057.335 9  23066842.935
  22365910.981    -2611458.567 6  -1936179.202 9  22365914.005
  21400092.106   -15359091.354 8 -11836034.971 9  21400094.591
  22590947.950    -9380527.287 6  -7208484.655 9  22590950.153
 94  3 17 23 23  0.0010000  0  6 15  7 13 27  2 26
  24290243.653     -208773.075 5   -128531.970 9  24290247.567
  20696707.528   -18160330.360 8 -14029048.719 9  20696709.767
  23047540.489    -7661707.391 5  -5973078.404 9  23047545.157
  22382739.567    -2523021.982 6  -1867267.622 9  22382742.509
  21404550.302   -15335664.429 8 -11817780.230 9  21404552.728
  22593045.560    -9369505.223 7  -7199896.053 9  22593047.704
 94  3 17 23 23 30.0010000  0  6 15  7 13 27  2 26
  24295465.497     -181334.631 5   -107151.374 9  24295468.896
  20696539.794   -18161211.303 8 -14029735.157 9  20696542.091
  23028298.317    -7762824.906 5  -6051871.176 9  23028303.200
  22399632.122    -2434251.060 6  -1798095.527 9  22399634.958
  21409039.864   -15312070.546 8 -11799395.385 9  21409042.208
  22595248.325    -9357929.723 6  -7190876.197 9  22595250.833
 94  3 17 23 24  0.0010000  0  6 15  7 13 27  2 26
  24300788.146     -153365.067 5    -85356.904 9  24300791.134
  20696467.138   -18161593.734 8 -14030033.143 9  20696469.458
  23009111.794    -7863651.775 5  -6130437.469 9  23009116.188
  22416585.692    -2345161.741 7  -1728675.324 9  22416588.388
  21413557.208   -15288333.275 8 -11780898.815 9  21413559.634
  22597552.497    -9345821.334 7  -7181441.098 9  22597554.653
 94  3 17 23 24 30.0010000  0  6 15  7 13 27  2 26
  24306212.310     -124858.980 5    -63144.339 9  24306215.462
  20696493.888   -18161453.974 8 -14029924.226 9  20696496.009
  22989982.036    -7964179.143 5  -6208770.381 9  22989986.411
  22433598.966    -2255754.963 6  -1659007.737 9  22433601.884
  21418100.489   -15264457.293 8 -11762294.157 9  21418102.821
  22599952.614    -9333206.744 7  -7171611.558 9  22599954.864
 94  3 17 23 25  0.0010000  0  6 15  7 13 27  2 26
  24311740.700      -95806.890 5    -40506.345 9  24311744.122
  20696619.755   -18160790.621 8 -14029407.319 9  20696621.606
  22970911.653    -8064394.659 5  -6286860.298 9  22970915.942
  22450674.013    -2166024.603 6  -1589088.023 9  22450677.224
  21422672.739   -15240429.201 8 -11743570.967 9  21422675.235
  22602449.481    -9320084.481 6  -7161386.431 9  22602452.235
 94  3 17 23 25 30.0010000  0  6 15  7 13 27  2 26
  24317372.935      -66209.849 5    -17443.701 9  24317376.228
  20696841.474   -18159626.137 8 -14028499.922 9  20696843.536
  22951901.185    -8164295.592 5  -6364705.091 9  22951905.638
  22467808.091    -2075983.472 6  -1518926.155 9  22467811.372
  21427274.380   -15216248.581 8 -11724728.932 9  21427276.899
  22605042.731    -9306459.815 6  -7150769.829 9  22605045.544
 94  3 17 23 26  0.0010000  0  6 15  7 13 27  2 26
  24323108.731      -36068.179 5      6043.317 9  24323112.095
  20697157.278   -18157966.040 8 -14027206.332 9  20697159.353
  22932950.731    -8263879.144 5  -6442302.574 9  22932955.528
  22485000.060    -1985639.717 6  -1448528.475 9  22485003.235
  21431904.825   -15191915.932 8 -11705768.430 9  21431907.122
  22607729.755    -9292338.992 6  -7139766.611 9  22607732.450
 94  3 17 23 26 30.0010000  0  6 15  7 13 27  2 26
  24328948.833       -5379.835 5     29956.330 9  24328951.798
  20697568.192   -18155807.473 8 -14025524.321 9  20697570.349
  22914062.083    -8363139.832 6  -6519648.474 9  22914066.724
  22502251.747    -1894981.651 6  -1377885.877 9  22502255.052
  21436568.489   -15167406.131 8 -11686669.881 9  21436570.751
  22610514.591    -9277708.020 7  -7128365.870 9  22610517.181
 94  3 17 23 27  0.0010000  0  6 15  7 13 27  2 26
  24334893.075       25851.848 5     54292.692 9  24334896.345
  20698070.294   -18153167.944 8 -14023467.536 9  20698072.427
  22895234.817    -8462077.844 6  -6596742.959 9  22895239.060
  22519563.419    -1804008.670 6  -1306997.893 9  22519566.782
  21441268.638   -15142708.642 8 -11667425.092 9  21441271.017
  22613397.146    -9262557.306 6  -7116560.135 9  22613399.325
 94  3 17 23 27 30.0010000  0  6 15  7 13 27  2 26
  24340935.708       57617.816 5     79045.403 9  24340938.591
  20698661.552   -18150061.831 8 -14021047.178 9  20698663.661
  22876467.731    -8560698.901 6  -6673590.455 9  22876472.228
  22536934.560    -1712720.658 6  -1235864.435 9  22536937.759
  21446002.747   -15117831.515 8 -11648040.320 9  21446004.997
  22616377.138    -9246897.249 7  -7104357.509 9  22616379.540
 94  3 17 23 28  0.0010000  0  6 15  7 13 27  2 26
  24347086.052       89932.280 5    104225.483 9  24347088.806
  20699345.130   -18146470.010 8 -14018248.345 9  20699347.380
  22857764.317    -8658985.266 6  -6750177.173 9  22857768.759
  22554371.896    -1621090.074 6  -1164464.034 9  22554375.247
  21450772.724   -15092764.755 8 -11628507.782 9  21450775.032
  22619458.567    -9230707.555 7  -7091742.176 9  22619460.923
 94  3 17 23 28 30.0010000  0  6 15  7 13 27  2 26
  24353338.239      122790.102 5    129828.996 9  24353342.036
  20700118.606   -18142404.657 8 -14015080.535 9  20700120.599
  22839124.521    -8756938.682 6  -6826504.453 9  22839128.618
  22571873.708    -1529117.357 6  -1092797.043 9  22571877.271
  21455579.669   -15067503.179 8 -11608823.442 9  21455582.095
  22622639.544    -9213987.407 6  -7078713.505 9  22622641.981
 94  3 17 23 29  0.0010000  0  6 15  7 13 27  2 26
  24359690.466      156168.697 6    155838.270 9  24359693.724
  20700975.169   -18137902.474 8 -14011572.333 9  20700977.208
  22820544.169    -8854578.614 6  -6902587.458 9  22820548.442
  22589433.661    -1436837.891 6  -1020891.018 9  22589437.177
  21460417.333   -15042081.762 8 -11589014.549 9  21460419.712
  22625917.942    -9196759.712 6  -7065289.337 9  22625920.626
 94  3 17 23 29 30.0010000  0  6 15  7 13 27  2 26
  24366146.161      190096.941 5    182275.858 9  24366149.923
  20701921.685   -18132929.363 8 -14007697.172 9  20701923.864
  22802029.716    -8951872.614 6  -6978400.883 9  22802034.060
  22607056.833    -1344227.408 6   -948727.063 9  22607060.513
  21465289.771   -15016476.178 8 -11569062.149 9  21465292.067
  22629298.153    -9178996.539 6  -7051447.915 9  22629300.755
 94  3 17 23 30  0.0010000  0  6 15  7 13 27  2 26
  24372706.341      224570.300 6    209138.217 9  24372710.431
  20702959.169   -18127476.072 8 -14003447.842 9  20702961.489
  22783580.817    -9048822.208 6  -7053945.940 9  22783585.278
  22624742.005    -1251292.745 6   -876310.496 9  22624745.392
  21470197.067   -14990688.045 8 -11548967.503 9  21470199.259
  22632780.833    -9160696.908 6  -7037188.473 9  22632783.610
 94  3 17 23 30 30.0010000  0  6 15  7 13 27  2 26
  24379367.521      259574.225 6    236413.975 9  24379370.978
  20704085.919   -18121555.828 8 -13998834.653 9  20704088.146
  22765195.489    -9145437.984 6  -7129230.866 9  22765199.829
  22642483.903    -1158059.618 6   -803661.365 9  22642486.856
  21475133.028   -14964748.235 8 -11528754.664 9  21475135.313
  22636361.575    -9141877.636 6  -7022524.123 9  22636364.247
 94  3 17 23 31  0.0010000  0  5  7 13 27  2 26
  20705307.794   -18115134.441 8 -13993830.966 9  20705309.997
  22746877.208    -9241700.563 6  -7204240.589 9  22746881.438
  22660285.310    -1064514.074 6   -730768.791 9  22660288.649
  21480097.817   -14938658.743 8 -11508425.190 9  21480100.138
  22640042.692    -9122533.850 6  -7007451.058 9  22640045.036
 94  3 17 23 31 30.0010000  0  5  7 13 27  2 26
  20706625.106   -18108212.094 8 -13988436.917 9  20706627.239
  22728624.763    -9337615.972 6  -7278979.796 9  22728629.200
  22678146.161     -970655.667 6   -657632.428 9  22678149.337
  21485089.255   -14912429.039 8 -11487986.463 9  21485091.575
  22643821.067    -9102679.605 6  -6991980.238 9  22643823.599
 94  3 17 23 32  0.0010000  0  5  7 13 27  2 26
  20708037.497   -18100790.256 8 -13982653.660 9  20708039.700
  22710439.544    -9433179.833 6  -7353445.078 9  22710443.899
  22696065.653     -876486.117 6   -584253.611 9  22696069.040
  21490105.247   -14886069.632 8 -11467446.670 9  21490107.474
  22647696.427    -9082315.749 6  -6976112.318 9  22647699.251
 94  3 17 23 32 30.0010000  0  6  9  7 13 27  2 26
  24521492.325      -91056.760 5
  20709546.591   -18092859.316 8 -13976473.704 9  20709548.665
  22692324.825    -9528372.583 6  -7427621.178 9  22692328.935
  22714045.864     -782001.211 6   -510629.057 9  22714048.606
  21495151.325   -14859553.325 8 -11446784.621 9  21495153.798
  22651669.552    -9061434.565 6  -6959841.277 9  22651672.517
 94  3 17 23 33  0.0010000  0  6  9  7 13 27  2 26
  24503579.067     -185194.041 5    -31779.12119  24503581.974
  20711150.044   -18084433.906 8 -13969908.439 9  20711152.095
  22674280.317    -9623198.477 6  -7501511.428 9  22674284.392
  22732085.349     -687201.806 6   -436759.439 9  22732088.243
  21500230.044   -14832864.653 8 -11425988.262 9  21500232.505
  22655738.028    -9040053.198 6  -6943180.482 9  22655740.759
 94  3 17 23 33 30.0010000  0  6  9  7 13 27  2 26
  24485676.692     -279273.545 5   -105087.768 9  24485679.247
  20712843.122   -18075536.401 8 -13962975.312 9  20712845.208
  22656305.356    -9717657.210 6  -7575115.579 9  22656309.493
  22750181.036     -592106.683 6   -362659.393 9  22750184.188
  21505342.825   -14805996.637 8 -11405052.148 9  21505345.251
  22659903.685    -9018163.693 6  -6926123.737 9  22659906.403
 94  3 17 23 34  0.0010000  0  6  9  7 13 27  2 26
  24467784.622     -373295.855 5   -178351.829 9  24467786.474
  20714624.622   -18066173.105 8 -13955679.233 9  20714626.790
  22638400.489    -9811746.237 6  -7648431.649 9  22638404.841
  22768331.669     -496724.992 6   -288336.061 9  22768334.985
  21510490.294   -14778944.496 8 -11383972.568 9  21510493.001
  22664165.317    -8995768.261 6  -6908672.776 9  22664168.036
 94  3 17 23 34 30.0010000  0  6  9  7 13 27  2 26
  24449903.864     -467259.015 5   -251569.851 9  24449905.716
  20716492.927   -18056356.493 8 -13948029.917 9  20716495.095
  22620566.013    -9905467.793 6  -7721461.385 9  22620569.935
  22786537.919     -401050.109 6   -213784.258 9  22786541.118
  21515673.646   -14751707.499 8 -11362748.945 9  21515676.423
  22668522.489    -8972870.109 6  -6890830.074 9  22668525.501
 94  3 17 23 35  0.0010000  0  6  9  7 13 27  2 26
  24432035.239     -561156.509 5   -324736.699 9  24432037.255
  20718446.739   -18046088.291 8 -13940028.714 9  20718448.942
  22602802.630    -9998813.214 6  -7794198.018 9  22602806.985
  22804803.685     -305067.777 6   -138992.896 9  22804806.661
  21520889.224   -14724298.195 8 -11341391.055 9  21520891.884
  22672978.075    -8949460.726 6  -6872589.013 9  22672980.864
 94  3 17 23 35 30.0010000  0  6  9  7 13 27  2 26
  24414177.278     -655003.372 5   -397864.067 9  24414180.114
  20720485.911   -18035374.325 8 -13931680.169 9  20720488.114
  22585109.724   -10091789.308 6  -7866646.863 9  22585114.360
  22823124.255     -208791.234 6    -63972.265 9  22823126.962
  21526135.513   -14696729.514 8 -11319908.972 9  21526138.103
  22677529.763    -8925540.094 6  -6853949.580 9  22677532.575
 94  3 17 23 36  0.0010000  0  6  9  7 13 27  2 26
  24396331.177     -748784.244 5   -470940.017 9  24396333.380
  20722612.372   -18024198.672 8 -13922971.865 9  20722614.575
  22567489.153   -10184387.233 6  -7938801.053 9  22567493.501
  22841507.224     -112187.413 6     11303.382 9  22841510.329
  21531413.200   -14668996.560 8 -11298298.893 9  21531415.778
  22682177.364    -8901116.714 6  -6834918.391 9  22682180.001
 94  3 17 23 36 30.0010000  0  6  9  7 13 27  2 26
  24378495.833     -842504.238 5   -543968.542 9  24378498.856
  20724826.864   -18012558.876 8 -13913901.895 9  20724829.032
  22549940.856   -10276603.427 6  -8010657.786 9  22549945.165
  22859951.896      -15258.470 6     86832.380 9  22859955.306
  21536721.731   -14641099.059 8 -11276560.589 9  21536724.204
  22686919.653    -8876195.266 6  -6815499.110 9  22686922.548
 94  3 17 23 37  0.0010000  0  6  9  7 13 27  2 26
  24360674.872     -936153.514 5   -616941.946 9  24360678.001
  20727134.872   -18000431.681 7 -13904452.129 9  20727137.028
  22532467.536   -10368426.562 6  -8082208.240 9  22532471.884
  22878457.153       81986.215 6    162607.392 9  22878461.255
  21542063.974   -14613025.897 8 -11254685.408 9  21542066.458
  22691757.981    -8850770.114 6  -6795687.328 9  22691761.157
 94  3 17 23 37 30.0010000  0  6  9  7 13 27  2 26
  24342865.927    -1029745.156 5   -689870.412 9  24342868.142
  20729535.974   -17987814.949 8 -13894620.905 9  20729538.083
  22515067.317   -10459865.445 6  -8153459.272 9  22515071.638
  22897020.169      179533.571 6    238618.262 9  22897023.556
  21547439.958   -14584773.584 8 -11232670.619 9  21547442.278
  22696691.005    -8824843.564 6  -6775484.836 9  22696693.923
 94  3 17 23 38  0.0010000  0  6  9  7 13 27  2 26
  24325067.724    -1123272.372 5   -762748.707 9  24325070.208
  20732032.356   -17974696.935 8 -13884399.072 9  20732034.419
  22497742.028   -10550910.650 6  -8224403.554 9  22497746.122
  22915641.310      277388.452 6    314868.747 9  22915645.001
  21552850.067   -14556344.124 8 -11210517.794 9  21552852.388
  22701720.567    -8798414.642 6  -6754890.893 9  22701723.556
 94  3 17 23 38 30.0010000  0  6  9  7 13 27  2 26
  24307282.685    -1216734.147 5   -835576.011 9  24307285.591
  20734624.349   -17961075.676 8 -13873785.098 9  20734626.540
  22480493.021   -10641553.570 6  -8295034.348 9  22480497.563
  22934318.435      375535.671 6    391347.033 9  22934321.610
  21558293.833   -14527736.674 8 -11188226.282 9  21558296.563
  22706849.060    -8771464.907 6  -6733891.129 9  22706851.685
 94  3 17 23 39  0.0010000  0  6  9  7 13 27  2 26
  24289511.333    -1310123.257 5   -908346.708 9  24289513.817
  20737310.739   -17946957.627 8 -13862784.014 9  20737313.083
  22463321.552   -10731791.013 6  -8365349.173 9  22463325.970
  22953051.521      473978.775 6    468055.882 9  22953054.368
  21563772.700   -14498944.649 8 -11165790.944 9  21563775.126
  22712078.333    -8743989.112 6  -6712481.436 9  22712081.028
 94  3 17 23 39 30.0010000  0  6  9  7 13 27  2 26
  24271752.075    -1403450.108 5   -981068.875 9  24271753.599
  20740086.036   -17932374.192 7 -13851420.293 9  20740088.462
  22446225.763   -10821629.953 6  -8435353.480 9  22446229.927
  22971840.435      572715.371 6    544993.428 9  22971843.364
  21569283.646   -14469985.058 8 -11143225.019 9  21569285.931
  22717403.856    -8716001.244 6  -6690672.711 9  22717406.575
 94  3 17 23 40  0.0010000  0  6  9  7 13 27  2 26
  24254005.099    -1496706.515 5  -1053736.184 9  24254008.310
  20742947.364   -17917336.652 7 -13839702.727 9  20742949.743
  22429206.286   -10911067.704 6  -8505045.181 9  22429210.653
  22990684.630      671740.532 6    622155.813 9  22990687.466
  21574822.927   -14440875.001 8 -11120541.862 9  21574825.317
  22722824.146    -8687515.825 6  -6668476.288 9  22722827.028
 94  3 17 23 40 30.0010000  0  6  9  7 13 27  2 26
  24236278.591    -1589862.780 5  -1126325.465 9  24236280.700
  20745898.481   -17901830.071 8 -13827619.676 9  20745900.521
  22412267.731   -11000080.838 6  -8574406.012 9  22412271.802
  23009585.763      771069.830 6    699555.196 9  23009589.571
  21580397.872   -14411580.227 8 -11097714.772 9  21580400.192
  22728343.919    -8658508.533 6  -6645873.213 9  22728346.778
 94  3 17 23 41  0.0010000  0  7  9  7 13  4 27  2 26
  24218568.708    -1682929.361 5  -1198844.850 9  24218570.794
  20748936.786   -17885862.647 8 -13815177.520 9  20748938.919
  22395407.606   -11088680.507 6  -8643444.642 9  22395411.821
  24454993.552      -74644.64315
  23028543.661      870693.066 6    777183.626 9  23028546.872
  21586007.450   -14382101.653 8 -11074744.463 9  21586009.923
  22733960.458    -8628992.936 6  -6622874.045 9  22733963.446
 94  3 17 23 41 30.0010000  0  7  9  7 13  4 27  2 26
  24200873.161    -1775915.694 5  -1271301.685 9  24200875.903
  20752064.177   -17869428.429 8 -13802371.629 9  20752066.380
  22378624.466   -11176877.553 6  -8712169.563 9  22378628.181
  24436465.958     -172005.138 5    -17699.00619  24436471.724
  23047553.692      970589.434 6    855024.883 9  23047556.892
  21591647.575   -14352461.817 8 -11051648.486 9  21591649.919
  22739671.505    -8598979.282 6  -6599486.828 9  22739674.716
 94  3 17 23 42  0.0010000  0  7  9  7 13  4 27  2 26
  24183191.364    -1868835.851 5  -1343706.965 9  24183194.411
  20755279.606   -17852530.678 7 -13789204.539 9  20755281.856
  22361915.130   -11264684.708 6  -8780590.677 9  22361918.993
  24417937.716     -269364.000 5    -93562.914 9  24417943.774
  23066610.856     1070737.914 6    933062.604 9  23066614.489
  21597318.927   -14322658.140 8 -11028424.848 9  21597321.224
  22745475.091    -8568486.218 6  -6575726.013 9  22745478.126
 94  3 17 23 42 30.0010000  0  7  9  7 13  4 27  2 26
  24165521.731    -1961688.246 5  -1416059.462 9  24165524.392
  20758584.427   -17835162.489 7 -13775670.878 9  20758586.606
  22345282.067   -11352091.609 6  -8848699.895 9  22345286.087
  24399413.646     -366715.361 5   -169420.951 9  24399419.282
  23085717.966     1171145.446 6   1011302.172 9  23085721.118
  21603026.700   -14292664.309 8 -11005053.043 9  21603029.278
  22751369.286    -8537508.273 6  -6551587.375 9  22751372.251
 94  3 17 23 43  0.0010000  0  7  9  7 13  4 27  2 26
  24147864.786    -2054479.287 5  -1488364.146 9  24147867.622
  20761975.372   -17817343.620 7 -13761786.040 9  20761977.634
  22328724.638   -11439101.049 6  -8916499.395 9  22328728.544
  24380893.114     -464044.788 5   -245261.939 9  24380897.649
  23104875.255     1271817.141 6   1089747.599 9  23104878.267
  21608767.481   -14262496.160 8 -10981545.400 9  21608769.884
  22757355.286    -8506054.757 6  -6527078.146 9  22757358.040
 94  3 17 23 43 30.0010000  0  7  9  7 13  4 27  2 26
  24130219.419    -2147206.372 5  -1560618.965 9  24130222.407
  20765449.021   -17799090.003 7 -13747562.436 9  20765451.282
  22312241.911   -11525719.100 6  -8983993.933 9  22312245.810
  24362371.013     -561372.660 5   -321101.694 9  24362375.735
  23124080.528     1372742.899 6   1168390.977 9  23124084.196
  21614538.396   -14232168.750 8 -10957913.661 9  21614540.786
  22763427.302    -8474146.881 6  -6502214.881 9  22763430.103
 94  3 17 23 44  0.0010000  0  7  9  7 13  4 27  2 26
  24112587.083    -2239865.081 5  -1632820.518 9  24112590.364
  20769001.247   -17780420.631 7 -13733014.869 9  20769003.591
  22295833.364   -11611945.587 6  -9051183.356 9  22295837.407
  24343845.325     -658724.309 5   -396959.982 9  24343849.028
  23143335.942     1473928.203 6   1247236.618 9  23143339.106
  21620339.372   -14201685.887 8 -10934160.788 9  21620341.728
  22769584.271    -8441793.442 6  -6477004.427 9  22769586.837
 94  3 17 23 44 30.0010000  0  7  9  7 13  4 27  2 26
  24094966.731    -2332457.161 5  -1704970.161 9  24094969.356
  20772631.864   -17761343.447 7 -13718149.526 9  20772634.278
  22279499.239   -11697782.967 6  -9118069.580 9  22279503.142
  24325314.091     -756108.115 5   -472843.372 9  24325318.603
  23162639.919     1575370.647 6   1326282.593 9  23162643.423
  21626165.708   -14171066.994 8 -10910301.920 9  21626168.169
  22775825.802    -8408992.558 6  -6451445.319 9  22775828.333
 94  3 17 23 45  0.0010000  0  7  9  7 13  4 27  2 26
  24077361.583    -2424976.314 6  -1777062.962 9  24077363.833
  20776340.224   -17741855.360 7 -13702963.999 9  20776342.579
  22263237.974   -11783236.876 6  -9184657.001 9  22263241.696
  24306775.396     -853524.591 5   -548752.245 9  24306779.310
  23181990.067     1677055.365 6   1405517.379 9  23181993.724
  21632014.622   -14140332.087 8 -10886352.658 9  21632017.142
  22782152.036    -8375746.093 6  -6425538.999 9  22782154.778
 94  3 17 23 45 30.0010000  0  7  9  7 13  4 27  2 26
  24059771.036    -2517413.817 5  -1849092.134 9  24059774.071
  20780131.583   -17721931.965 7 -13687439.275 9  20780133.763
  22247050.247   -11868302.591 6  -9250941.924 9  22247054.056
  24288231.841     -950977.640 5   -624689.587 9  24288236.903
  23201383.380     1778967.749 6   1484929.547 9  23201386.708
  21637886.114   -14109476.281 8 -10862309.175 9  21637888.353
  22788562.239    -8342062.500 6  -6399292.070 9  22788565.017
 94  3 17 23 46  0.0010000  0  7  9  7 13  4 27  2 26
  24042193.817    -2609783.463 5  -1921068.447 9  24042196.501
  20784002.044   -17701593.347 7 -13671590.995 9  20784004.095
  22230935.974   -11952984.456 6  -9316927.742 9  22230939.419
  24269681.888    -1048455.675 5   -700646.450 9  24269687.044
  23220816.638     1881093.238 6   1564507.775 9  23220820.458
  21643780.458   -14078503.244 8 -10838174.342 9  21643782.731
  22795053.161    -8307951.794 6  -6372712.310 9  22795055.692
 94  3 17 23 46 30.0010000  0  7  9  7 13  4 27  2 26
  24024627.763    -2702089.856 5  -1992995.459 9  24024630.646
  20787948.388   -17680855.196 7 -13655431.391 9  20787950.321
  22214893.606   -12037286.352 6  -9382617.481 9  22214897.364
  24251129.255    -1145950.896 5   -776616.661 9  24251134.880
  23240286.521     1983406.139 6   1644232.057 9  23240290.071
  21649697.052   -14047411.075 8 -10813946.687 9  21649699.349
  22801622.716    -8273427.316 6  -6345810.145 9  22801625.165
 94  3 17 23 47  0.0010000  0  7  9  7 13  4 27  2 26
  24007078.677    -2794312.089 5  -2064856.881 9  24007080.962
  20791972.474   -17659707.223 7 -13638952.445 9  20791974.325
  22198926.286   -12121194.313 6  -9448000.260 9  22198930.298
  24232575.989    -1243448.351 5   -852588.651 9  24232580.126
  23259793.763     2085914.544 6   1724108.665 9  23259797.618
  21655638.575   -14016186.260 8 -10789615.678 9  21655641.083
  22808272.091    -8238484.696 6  -6318582.166 9  22808274.798
 94  3 17 23 47 30.0010000  0  7  9  7 13  4 27  2 26
  23989541.653    -2886468.068 5  -2136666.702 9  23989545.063
  20796070.310   -17638173.337 7 -13622172.792 9  20796072.255
  22183033.474   -12204712.001 6  -9513078.932 9  22183037.454
  24214021.341    -1340951.111 5   -928564.812 9  24214026.110
  23279337.153     2188620.474 6   1804139.201 9  23279340.962
  21661605.903   -13984827.327 8 -10765180.156 9  21661608.493
  22814997.974    -8203140.878 6  -6291041.555 9  22815000.552
 94  3 17 23 48  0.0010000  0  7  9  7 13  4 27  2 26
  23972018.927    -2978552.049 5  -2208420.420 9  23972021.798
  20800238.239   -17616270.229 7 -13605105.438 9  20800240.278
  22167216.896   -12287827.574 6  -9577844.265 9  22167220.813
  24195470.567    -1438441.424 5  -1004531.246 9  24195474.997
  23298922.989     2291543.109 6   1884338.573 9  23298926.517
  21667600.552   -13953325.848 8 -10740633.552 9  21667603.024
  22821802.388    -8167382.411 6  -6263177.834 9  22821805.142
 94  3 17 23 48 30.0010000  0  7  9  7 13  4 27  2 26
  23954507.966    -3070574.722 5  -2280126.355 9  23954510.438
  20804478.536   -17593989.115 7 -13587743.530 9  20804480.728
  22151475.192   -12370550.714 6  -9642303.804 9  22151479.321
  24176918.864    -1535928.925 5  -1080495.513 9  24176923.165
  23318550.388     2394687.133 6   1964710.475 9  23318554.278
  21673619.583   -13921696.156 8 -10715987.054 9  21673622.114
  22828686.364    -8131208.649 6  -6234990.526 9  22828689.388
 94  3 17 23 49  0.0010000  0  7  9  7 13  4 27  2 26
  23937007.692    -3162538.174 6  -2351786.162 9  23937010.024
  20808791.950   -17571321.521 7 -13570080.470 9  20808794.247
  22135808.880   -12452877.742 6  -9706454.682 9  22135813.271
  24158367.497    -1633416.106 5  -1156459.486 9  24158372.325
  23338225.286     2498079.555 5   2045275.948 9  23338229.235
  21679661.317   -13889946.874 8 -10691247.359 9  21679663.790
  22835651.724    -8094604.525 6  -6206467.853 9  22835654.782
 94  3 17 23 49 30.0010000  0  7  9  7 13  4 27  2 26
  23919515.567    -3254455.414 5  -2423409.947 9  23919517.993
  20813176.716   -17548279.106 7 -13552125.344 9  20813179.048
  22120216.067   -12534818.322 6  -9770304.434 9  22120220.188
  24139813.161    -1730915.566 5  -1232433.042 9  24139818.224
  23357944.981     2601706.411 6   2126024.069 9  23357948.825
  21685724.192   -13858084.899 8 -10666419.856 9  21685726.712
  22842698.802    -8057572.690 6  -6177611.897 9  22842701.696
 94  3 17 23 50  0.0010000  0  7  9  7 13  4 27  2 26
  23902037.192    -3346309.033 6  -2494984.169 9  23902039.407
  20817635.396   -17524847.436 7 -13533866.901 9  20817637.634
  22104698.060   -12616365.652 6  -9833847.758 9  22104701.935
  24121257.192    -1828430.024 5  -1308418.230 9  24121263.485
  23377710.052     2705568.696 6   2206955.634 9  23377714.118
  21691808.474   -13826113.460 8 -10641507.060 9  21691810.935
  22849833.106    -8020082.508 6  -6148398.787 9  22849835.778
 94  3 17 23 50 30.0010000  0  7  9  7 13  4 27  2 26
  23884568.856    -3438107.901 6  -2566515.728 9  23884571.259
  20822170.169   -17501017.243 7 -13515297.922 9  20822172.407
  22089253.560   -12697526.898 6  -9897090.240 9  22089257.501
  24102692.513    -1925985.262 5  -1384435.171 9  24102698.196
  23397517.341     2809657.041 6   2288063.378 9  23397520.892
  21697911.138   -13794044.401 8 -10616518.186 9  21697913.271
  22857055.255    -7982130.979 6  -6118826.184 9  22857057.810
 94  3 17 23 51  0.0010000  0  7  9  7 13  4 27  2 26
  23867109.185    -3529855.112 6  -2638007.044 9  23867111.470
  20826775.669   -17476815.571 7 -13496439.481 9  20826777.696
  22073880.474   -12778312.605 6  -9960040.081 9  22073884.396
  24084116.849    -2023599.524 5  -1460498.139 9  24084123.001
  23417362.130     2913940.269 6   2369322.948 9  23417365.880
  21704030.364   -13761887.313 8 -10591460.721 9  21704032.521
  22864360.981    -7943738.524 6  -6088910.004 9  22864363.712
 94  3 17 23 51 30.0010000  0  7  9  7 13  4 27  2 26
  23849660.708    -3621548.331 6  -2709456.285 9  23849663.075
  20831449.528   -17452254.298 7 -13477300.823 9  20831451.579
  22058577.067   -12858732.103 6 -10022704.557 9  22058580.989
  24065530.442    -2121272.751 5  -1536607.001 9  24065535.177
  23437236.708     3018382.635 6   2450706.536 9  23437240.610
  21710166.763   -13729639.504 8 -10566332.570 9  21710169.388
  22871743.302    -7904939.523 6  -6058677.033 9  22871745.774
 94  3 17 23 52  0.0010000  0  7  9  7 13  4 27  2 26
  23832221.669    -3713189.966 6  -2780865.339 9  23832224.294
  20836188.403   -17427350.775 7 -13457895.483 9  20836190.407
  22043343.630   -12938785.501 6 -10085083.767 9  22043347.368
  24046934.544    -2218997.514 5  -1612756.010 9  24046938.880
  23457139.919     3122979.853 6   2532210.801 9  23457143.938
  21716320.005   -13697302.919 8 -10541135.244 9  21716322.513
  22879199.599    -7865758.963 6  -6028146.739 9  22879202.142
 94  3 17 23 52 30.0010000  0  7  9  7 13  4 27  2 26
  23814793.224    -3804777.801 6  -2852232.460 9  23814796.153
  20840991.364   -17402111.888 7 -13438228.818 9  20840993.438
  22028181.192   -13018463.738 6 -10147170.643 9  22028185.087
  24028334.606    -2316744.806 5  -1688922.585 9  24028338.942
  23477072.060     3227721.202 6   2613827.361 9  23477076.431
  21722492.216   -13664867.335 8 -10515860.772 9  21722494.759
  22886721.880    -7826227.624 6  -5997343.125 9  22886724.657
 94  3 17 23 53  0.0010000  0  7  9  7 13  4 27  2 26
  23797376.841    -3896299.593 6  -2923548.122 9  23797379.630
  20845857.997   -17376535.559 7 -13418299.213 9  20845860.399
  22013092.028   -13097757.590 6 -10208958.002 9  22013095.685
  24009735.310    -2414478.389 5  -1765078.476 9  24009739.024
  23497030.677     3332603.757 6   2695553.966 9  23497034.919
  21728686.958   -13632314.958 8 -10490495.295 9  21728689.501
  22894306.794    -7786369.881 6  -5966285.169 9  22894309.665
 94  3 17 23 53 30.0010000  0  7  9  7 13  4 27  2 26
  23779970.466    -3987771.412 6  -2994824.826 9  23779973.114
  20850790.536   -17350614.888 7 -13398101.291 9  20850793.267
  21998076.060   -13176666.058 6 -10270445.056 9  21998079.837
  23991139.763    -2512196.064 5  -1841221.985 9  23991143.290
  23517015.606     3437626.582 5   2777389.874 9  23517020.517
  21734903.114   -13599648.507 8 -10465040.927 9  21734905.610
  22901952.153    -7746196.157 6  -5934980.989 9  22901954.767
 94  3 17 23 54  0.0010000  0  7  9  7 13  4 27  2 26
  23762569.966    -4079212.563 6  -3066077.641 9  23762573.118
  20855787.325   -17324356.540 7 -13377640.242 9  20855789.833
  21983132.880   -13255192.254 6 -10331634.242 9  21983136.665
  23972547.341    -2609904.172 5  -1917358.038 9  23972551.677
  23537025.974     3542782.643 5   2859329.583 9  23537030.638
  21741138.419   -13566881.845 8 -10439508.474 9  21741140.704
  22909657.614    -7705701.367 6  -5903426.625 9  22909660.462
 94  3 17 23 54 30.0010000  0  7  9  7 13  4 27  2 26
  23745176.560    -4170617.423 6  -3137302.161 9  23745179.489
  20860853.442   -17297735.115 7 -13356896.276 9  20860856.021
  21968263.341   -13333331.225 6 -10392521.694 9  21968267.321
  23953956.005    -2707597.517 5  -1993482.602 9  23953961.325
  23557061.474     3648069.699 5   2941371.373 9  23557065.985
  21747394.716   -13534006.493 8 -10413891.329 9  21747396.895
  22917427.489    -7664871.657 6  -5871611.297 9  22917430.009
 94  3 17 23 55  0.0010000  0  7  9  7 13  4 27  2 26
  23727792.513    -4261966.953 6  -3208483.561 9  23727795.103
  20865992.364   -17270728.304 7 -13335852.002 9  20865994.837
  21953469.778   -13411072.300 6 -10453099.098 9  21953473.622
  23935367.661    -2805282.705 5  -2069600.831 9  23935371.399
  23577127.646     3753513.225 5   3023535.088 9  23577131.712
  21753674.106   -13501006.501 8 -10388177.053 9  21753676.403
  22925266.560    -7623677.899 6  -5839512.282 9  22925268.810
 94  3 17 23 55 30.0010000  0  7  9  7 13  4 27  2 26
  23710419.606    -4353264.057 6  -3279624.130 9  23710422.700
  20871201.778   -17243352.548 7 -13314520.234 9  20871203.935
  21938750.513   -13488423.003 6 -10513372.321 9  21938754.380
  23916776.505    -2902979.713 5  -2145728.271 9  23916780.419
  23597219.708     3859098.421 5   3105809.163 9  23597223.435
  21759974.419   -13467898.582 8 -10362378.690 9  21759976.774
  22933177.739    -7582105.786 6  -5807118.440 9  22933179.802
 94  3 17 23 56  0.0010000  0  7  9  7 13  4 27  2 26
  23693060.825    -4444486.384 6  -3350706.431 9  23693063.298
  20876481.286   -17215611.056 7 -13292903.481 9  20876483.536
  21924106.231   -13565379.197 6 -10573338.132 9  21924110.142
  23898185.567    -3000675.212 5  -2221854.554 9  23898190.255
  23617341.138     3964835.337 5   3188201.492 9  23617344.864
  21766293.825   -13434689.594 8 -10336501.568 9  21766296.146
  22941161.333    -7540146.684 6  -5774423.061 9  22941164.474
 94  3 17 23 56 30.0010000  0  7  9  7 13  4 27  2 26
  23675718.661    -4535619.003 6  -3421718.825 9  23675721.310
  20881832.442   -17187488.449 7 -13270989.763 9  20881834.985
  21909540.653   -13641921.054 6 -10632981.093 9  21909544.485
  23879598.138    -3098346.929 5  -2297962.302 9  23879602.978
  23637496.927     4070758.550 5   3270738.970 9  23637501.145
  21772635.106   -13401365.284 8 -10310534.583 9  21772637.790
  22949223.864    -7497778.587 6  -5741408.989 9  22949226.817
 94  3 17 23 57  0.0010000  0  7  9  7 13  4 27  2 26
  23658393.013    -4626665.114 6  -3492663.817 9  23658395.673
  20887251.919   -17159009.560 7 -13248798.419 9  20887254.427
  21895053.856   -13718050.720 6 -10692302.864 9  21895057.563
  23861015.825    -3195999.701 5  -2374055.279 9  23861020.267
  23657688.231     4176863.335 5   3353417.953 9  23657692.345
  21778995.536   -13367940.472 8 -10284489.285 9  21778998.267
  22957361.169    -7455017.357 6  -5708088.578 9  22957364.040
 94  3 17 23 57 30.0010000  0  7  9  7 13  4 27  2 26
  23641080.911    -4717640.694 6  -3563553.819 9  23641083.923
  20892735.388   -17130195.317 7 -13226345.762 9  20892737.790
  21880643.083   -13793780.046 6 -10751312.690 9  21880646.591
  23842438.021    -3293631.181 5  -2450131.693 9  23842442.005
  23677909.560     4283123.219 5   3436217.781 9  23677912.794
  21785370.646   -13334440.405 8 -10258385.348 9  21785373.188
  22965570.060    -7411881.758 6  -5674476.449 9  22965573.036
 94  3 17 23 58  0.0010000  0  7  9  7 13  4 27  2 26
  23623786.013    -4808526.973 6  -3634374.260 9  23623788.884
  20898283.810   -17101037.234 7 -13203625.177 9  20898286.153
  21866311.942   -13869089.890 6 -10809995.639 9  21866315.517
  23823866.950    -3391222.009 5  -2526176.426 9  23823870.103
  23698163.771     4389562.568 5   3519157.432 9  23698167.638
  21791764.380   -13300840.575 8 -10232203.672 9  21791767.087
  22973849.778    -7368368.680 6  -5640570.176 9  22973852.978
 94  3 17 23 58 30.0010000  0  7  9  7 13  4 27  2 26
  23606507.560    -4899322.515 6  -3705123.999 9  23606510.771
  20903894.020   -17071553.303 7 -13180650.680 9  20903896.165
  21852060.653   -13943980.292 6 -10868351.756 9  21852064.493
  23805300.161    -3488787.495 5  -2602201.411 9  23805304.521
  23718449.849     4496165.269 5   3602224.401 9  23718453.259
  21798181.161   -13267121.883 8 -10205929.383 9  21798183.938
  22982200.521    -7324488.205 6  -5606377.616 9  22982203.298
 94  3 17 23 59  0.0010000  0  7  9  7 13  4 27  2 26
  23589250.411    -4990011.765 6  -3775790.899 9  23589253.013
  20909564.255   -17041757.785 7 -13157433.388 9  20909566.423
  21837887.036   -14018463.043 6 -10926390.222 9  21837890.876
  23786736.692    -3586340.151 5  -2678216.405 9  23786741.626
  23738762.099     4602906.087 5   3685398.997 9  23738765.790
  21804618.091   -13233294.717 8 -10179570.556 9  21804620.552
  22990617.505    -7280256.210 6  -5571911.154 9  22990620.505
 94  3 17 23 59 30.0010000  0  7  9  7 13  4 27  2 26
  23572013.224    -5080591.807 6  -3846372.733 9  23572016.634
  20915294.536   -17011644.443 7 -13133968.444 9  20915296.856
  21823792.396   -14092530.016 6 -10984104.708 9  21823796.415
  23768177.169    -3683871.806 5  -2754215.030 9  23768181.153
  23759102.716     4709801.858 5   3768694.333 9  23759106.771
  21811078.130   -13199348.646 8 -10153119.080 9  21811080.556
  22999103.771    -7235660.101 6  -5537160.965 9  22999106.337
 94  3 18  0  0  0.0010000  0  7  9  7 13  4 27  2 26
  23554794.114    -5171078.853 6  -3916882.078 9  23554796.915
  20921082.302   -16981229.460 7 -13110268.461 9  20921084.798
  21809775.481   -14166189.635 6 -11041501.778 9  21809779.298
  23749617.169    -3781402.185 5  -2830212.654 9  23749621.575
  23779474.724     4816850.549 5   3852108.829 9  23779477.899
  21817559.919   -13165285.146 8 -10126576.101 9  21817562.345
  23007655.372    -7190721.990 6  -5502144.272 9  23007658.032
 94  3 18  0  0 30.0010000  0  7  9  7 13  4 27  2 26
  23537591.638    -5261480.507 6  -3987324.904 9  23537594.532
  20926930.794   -16950495.858 7 -13086320.207 9  20926933.185
  21795835.864   -14239442.301 6 -11098581.742 9  21795839.728
  23731059.411    -3878927.589 6  -2906206.418 9  23731063.642
  23799872.771     4924046.220 5   3935637.867 9  23799876.919
  21824062.341   -13131113.082 7 -10099948.529 9  21824065.071
  23016273.302    -7145433.282 6  -5466854.396 9  23016275.997
 94  3 18  0  1  0.0010000  0  7  9  7 13  4 27  2 26
  23520403.653    -5351804.440 6  -4057707.161 9  23520406.466
  20932841.911   -16919432.808 7 -13062115.236 9  20932844.138
  21781974.817   -14312282.904 6 -11155340.622 9  21781978.724
  23712506.380    -3976422.131 6  -2982176.122 9  23712510.388
  23820300.411     5031393.038 5   4019284.659 9  23820305.052
  21830584.903   -13096837.697 8 -10073240.453 9  21830587.728
  23024959.247    -7099788.926 6  -5431287.388 9  23024962.013
 94  3 18  0  1 30.0010000  0  7  9  7 13  4 27  2 26
  23503228.442    -5442061.714 6  -4128037.490 9  23503231.020
  20938817.153   -16888033.599 7 -13037648.319 9  20938819.380
  21768194.013   -14384701.395 6 -11211770.573 9  21768198.169
  23693959.966    -4073880.309 6  -3058117.522 9  23693964.208
  23840754.763     5138882.346 5   4103042.485 9  23840759.532
  21837129.919   -13062443.358 7 -10046439.674 9  21837132.649
  23033711.919    -7053794.701 6  -5395447.764 9  23033714.685
 94  3 18  0  2  0.0010000  0  7  9  7 13  4 27  2 26
  23486069.239    -5532229.022 6  -4198297.712 9  23486071.735
  20944860.153   -16856277.469 7 -13012903.294 9  20944862.427
  21754496.052   -14456684.498 6 -11267861.260 9  21754499.888
  23675428.646    -4171269.721 6  -3134005.309 9  23675432.560
  23861235.403     5246503.921 5   4186903.371 9  23861239.786
  21843699.841   -13027919.204 8 -10019537.746 9  21843702.524
  23042531.739    -7007442.929 6  -5359329.525 9  23042535.114
 94  3 18  0  2 30.0010000  0  7  9  7 13  4 27  2 26
  23468931.786    -5622289.547 6  -4268474.715 9  23468934.095
  20950970.794   -16824165.632 7 -12987881.091 9  20950973.337
  21740880.505   -14528234.556 6 -11323614.511 9  21740884.235
  23656911.927    -4268572.916 6  -3209825.919 9  23656915.665
  23881737.153     5354245.019 5   4270857.398 9  23881741.325
  21850291.692   -12993279.425 8  -9992545.721 9  21850294.306
  23051418.286    -6960745.663 6  -5322942.072 9  23051421.298
 94  3 18  0  3  0.0010000  0  7  9  7 13  4 27  2 26
  23451813.958    -5712241.792 6  -4338567.355 9  23451816.993
  20957146.864   -16791711.292 7 -12962592.005 9  20957149.231
  21727347.224   -14599352.151 6 -11379030.782 9  21727351.028
  23638411.364    -4365792.923 6  -3285581.697 9  23638415.067
  23902263.638     5462110.929 5   4354908.680 9  23902267.892
  21856904.419   -12958530.054 8  -9965468.292 9  21856906.903
  23060365.700    -6913725.405 6  -5286302.929 9  23060368.290
 94  3 18  0  3 30.0010000  0  7  9  7 13  4 27  2 26
  23434721.302    -5802066.513 6  -4408560.614 9  23434723.610
  20963391.458   -16758894.567 7 -12937020.538 9  20963393.825
  21713898.856   -14670023.697 6 -11434099.487 9  21713902.528
  23619928.317    -4462922.708 6  -3361267.172 9  23619931.481
  23922816.989     5570115.911 5   4439068.354 9  23922821.372
  21863538.833   -12923665.270 8  -9938300.945 9  21863541.153
  23069376.185    -6866377.777 6  -5249408.712 9  23069378.880
 94  3 18  0  4  0.0010000  0  7  9  7 13  4 27  2 26
  23417656.419    -5891742.432 6  -4478437.933 9  23417658.821
  20969705.575   -16725715.073 7 -12911166.394 9  20969707.919
  21700536.653   -14740242.355 6 -11488815.292 9  21700540.313
  23601466.153    -4559942.492 6  -3436866.950 9  23601470.548
  23943400.528     5678290.091 5   4523359.861 9  23943404.688
  21870193.872   -12888692.387 8  -9911049.351 9  21870196.274
  23078449.794    -6818695.283 6  -5212253.552 9  23078452.454
 94  3 18  0  4 30.0010000  0  7  9  7 13  4 27  2 26
  23400616.521    -5981286.634 6  -4548212.602 9  23400619.028
  20976082.458   -16692203.594 7 -12885053.561 9  20976084.731
  21687258.333   -14810019.763 6 -11543187.258 9  21687261.915
  23583017.521    -4656889.192 6  -3512409.759 9  23583020.755
  23964016.458     5786624.449 5   4607776.149 9  23964021.497
  21876867.325   -12853624.172 8  -9883723.483 9  21876869.716
  23087585.419    -6770689.748 6  -5174846.663 9  23087588.126
 94  3 18  0  5  0.0010000  0  8  9  7 13  4 27  2 12 26
  23383601.575    -6070703.742 6  -4617888.247 9  23383604.118
  20982523.700   -16658354.137 7 -12858677.363 9  20982525.868
  21674066.372   -14879344.302 6 -11597206.331 9  21674070.282
  23564582.349    -4753765.480 6  -3587897.692 9  23564586.216
  23984664.239     5895124.811 5   4692321.827 9  23984668.282
  21883562.653   -12818437.407 7  -9856305.225 9  21883565.454
  24301468.458      -49857.38714    -41134.02519  24301473.067
  23096786.333    -6722337.170 6  -5137169.361 9  23096789.181
 94  3 18  0  5 30.0010000  0  8  9  7 13  4 27  2 12 26
  23366609.849    -6159995.087 6  -4687465.899 9  23366612.063
  20989026.989   -16624178.800 7 -12832047.233 9  20989029.228
  21660959.489   -14948222.190 6 -11650877.367 9  21660963.067
  23546162.067    -4850569.958 6  -3663329.692 9  23546165.935
  24005337.161     6003763.023 5   4776974.905 9  24005340.806
  21890281.208   -12783134.949 8  -9828796.834 9  21890283.868
  24284717.138     -137885.807 4   -109727.553 9  24284721.735
  23106054.177    -6673633.746 6  -5099218.672 9  23106056.579
 94  3 18  0  6  0.0010000  0  8  9  7 13  4 27  2 12 26
  23349644.481    -6249149.423 6  -4756936.778 9  23349646.884
  20995593.138   -16589674.825 7 -12805161.020 9  20995595.341
  21647939.763   -15016640.280 6 -11704190.122 9  21647943.306
  23527755.247    -4947297.488 6  -3738701.704 9  23527758.106
  24026038.380     6112550.008 5   4861743.890 9  24026043.360
  21897024.044   -12747699.018 8  -9801184.426 9  21897026.610
  24267957.731     -225958.119 4   -178355.280 9  24267962.278
  23115391.114    -6624566.901 6  -5060984.787 9  23115393.704
 94  3 18  0  6 30.0010000  0  8  9  7 13  4 27  2 12 26
  23332705.239    -6338160.475 6  -4826296.007 9  23332707.560
  21002222.481   -16554836.317 7 -12778014.123 9  21002224.755
  21635009.778   -15084587.892 6 -11757136.274 9  21635013.407
  23509362.669    -5043948.238 6  -3814013.903 9  23509366.255
  24046765.864     6221474.323 5   4946619.900 9  24046771.044
  21903798.778   -12712099.015 8  -9773444.174 9  21903801.380
  24251191.919     -314063.702 4   -247008.932 9  24251196.341
  23124797.911    -6575134.411 6  -5022466.009 9  23124800.923
 94  3 18  0  7  0.0010000  0  8  9  7 13  4 27  2 12 26
  23315795.794    -6427024.318 6  -4895540.522 9  23315798.138
  21008918.380   -16519648.946 7 -12750595.387 9  21008920.653
  21622169.239   -15152065.741 6 -11809716.369 9  21622172.931
  23490987.474    -5140509.332 6  -3889256.236 9  23490991.048
  24067518.724     6330532.527 5   5031600.245 9  24067523.458
  21910604.692   -12676332.591 8  -9745574.239 9  21910607.294
  24234419.567     -402203.414 5   -315689.179 9  24234424.063
  23134274.185    -6525339.386 6  -4983664.701 9  23134276.704
 94  3 18  0  7 30.0010000  0  8  9  7 13  4 27  2 12 26
  23298915.208    -6515732.240 6  -4964663.553 9  23298917.423
  21015679.442   -16484118.806 7 -12722909.557 9  21015681.622
  21609418.567   -15219070.420 6 -11861927.765 9  21609422.396
  23472632.169    -5236969.657 6  -3964420.028 9  23472635.591
  24088298.435     6439728.316 5   5116687.794 9  24088302.923
  21917443.622   -12640393.284 7  -9717569.599 9  21917446.399
  24217641.552     -490373.754 5   -384393.300 9  24217645.657
  23143816.802    -6475191.822 6  -4944588.705 9  23143819.017
